     2.11           OBSERVATION DATA    G (GPS)             RINEX VERSION / TYPE
teqc 2010Oct21 OPUS Account 20111025 20:03:18UTC            PGM / RUN BY / DATE
W 1521                                                      MARKER NAME
1152                                                        MARKER NUMBER
CSMIDDLETON NGS                                             OBSERVER / AGENCY
4619K01307 TRIMBLE NETR5 4.41                               REC # / TYPE / VERS
12668873 TRM41249.00 NONE                                   ANT # / TYPE
  -739449.7000 -5474108.7896  3178360.2839                  APPROX POSITION XYZ
        1.9990        0.0000        0.0000                  ANTENNA: DELTA H/E/N
     1     1                                                WAVELENGTH FACT L1/2
     5    L1    L2    C1    P1    P2                        # / TYPES OF OBSERV
    15                                                      LEAP SECONDS
  2011     7    28     0     0    0.0000000     GPS         TIME OF FIRST OBS
                                                            END OF HEADER
 11  7 28  0  0  0.0000000  0  8G10G17G28G09G04G20G27G02
 123903673.046 7  96548429.45744  23578082.047                    23578094.559
 112301229.250 8                  21370204.570
 114594660.546 8  89294617.78645  21806635.781                    21806644.613
 116573229.274 7  90836360.88745  22183152.938                    22183162.672
 104671666.125 8  81562488.29946  19918340.336                    19918349.746
 127200803.153 6  99117694.45143  24205537.680                    24205547.902
 117809414.325 7  91799621.69445  22418390.109                    22418399.898
 117477569.643 7  91541089.25945  22355226.758                    22355235.094
 11  7 28  0  0 30.0000000  0  8G10G17G28G09G04G20G27G02
 123809754.829 6  96475246.62444  23560209.938                    23560223.180
 112332162.285 8                  21376091.219
 114644921.301 8  89333781.98245  21816199.891                    21816208.930
 116544994.125 7  90814359.46145  22177780.000                    22177789.207
 104656358.437 8  81550560.24546  19915427.344                    19915436.656
 127234939.757 6  99144294.37343  24212034.313                    24212043.699
 117798499.875 7  91791116.89245  22416313.422                    22416323.207
 117397424.674 8  91478638.75845  22339975.930                    22339984.234
 11  7 28  0  1  0.0000000  0  8G10G17G28G09G04G20G27G02
 123715877.439 6  96402095.56744  23542345.148                    23542358.266
 112363190.958 8                  21381995.367
 114695554.218 8  89373236.16845  21825835.094                    21825843.676
 116517393.102 7  90792852.16845  22172527.461                    22172536.984
 104641623.878 8  81539078.78946  19912623.109                    19912632.766
 127269571.582 6  99171280.21243  24218624.523                    24218634.004
 117788077.777 7  91782995.74945  22414329.813                    22414340.391
 117317568.385 8  91416413.18645  22324779.453                    22324787.512
 11  7 28  0  1 30.0000000  0  8G10G17G28G09G04G20G27G02
 123622044.083 7  96328978.80144  23524489.680                    23524502.973
 112394314.623 8                  21387918.258
 114746559.358 8  89412980.39545  21835541.141                    21835549.848
 116490426.731 7  90771839.41345  22167395.953                    22167405.699
 104627462.396 8  81528043.87946  19909928.352                    19909937.859
 127304698.450 6  99198651.78143  24225308.570                    24225318.191
 117778148.199 8  91775258.38945  22412440.367                    22412450.926
 117238002.243 8  91354413.69545  22309638.414                    22309646.711
 11  7 28  0  2  0.0000000  0  8G10G17G28G09G04G20G27G02
 123528257.988 7  96255898.85744  23506642.883                    23506655.555
 112425533.384 8                  21393858.961
 114797936.812 8  89453014.74345  21845317.844                    21845326.680
 116464096.006 7  90751321.95745  22162385.266                    22162395.125
 104613873.762 8  81517455.34546  19907342.609                    19907351.637
 127340319.373 6  99226408.34143  24232087.305                    24232096.223
 117768710.848 7  91767904.57045  22410644.961                    22410654.785
 117158727.727 8  91292641.43245  22294552.742                    22294561.105
 11  7 28  0  2 30.0000000  0  8G10G17G28G09G04G20G27G02
 123434521.822 7  96182857.76843  23488805.391                    23488817.176
 112456846.078 8                  21399817.477
 114849686.129 8  89493338.85445  21855165.539                    21855174.289
 116438401.401 7  90731300.19945  22157496.148                    22157505.930
 104600857.365 8  81507312.71946  19904865.469                    19904874.676
 127376433.763 6  99254549.39543  24238958.883                    24238968.695
 117759765.344 7  91760934.02045  22408942.430                    22408952.914
 117079746.139 8  91231097.43645  22279522.750                    22279531.684
 11  7 28  0  3  0.0000000  0  8G10G17G28G09G04G20G27G02
 123340839.231 6  96109858.44143  23470977.672                    23470990.113
 112488252.897 8                  21405794.203
 114901807.703 8  89533953.02945  21865083.984                    21865092.871
 116413343.316 7  90711774.44245  22152727.219                    22152737.543
 104588412.884 8  81497615.74046  19902497.641                    19902506.758
 127413040.890 6  99283074.41343  24245924.922                    24245934.762
 117751311.763 7  91754346.78945  22407333.797                    22407343.930
 117001058.605 8  91169782.56145  22264548.961                    22264557.660
 11  7 28  0  3 30.0000000  0  8G10G17G28G09G04G20G27G02
 123247213.090 6  96036903.15744  23453161.711                    23453173.688
 112519753.263 8                  21411788.227
 114954301.401 8  89574857.17645  21875072.742                    21875081.883
 116388922.461 7  90692745.22545  22148080.063                    22148090.969
 104576539.890 8  81488364.06846  19900238.055                    19900247.559
 127450140.107 6  99311982.89943  24252984.797                    24252994.992
 117743350.123 7  91748142.88445  22405818.852                    22405828.879
 116922666.365 8  91108697.80045  22249632.023                    22249639.910
 11  7 28  0  4  0.0000000  0  8G10G17G28G09G04G20G27G02
 123153646.669 7  95963994.41544  23435355.648                    23435368.789
 112551347.334 8                  21417800.703
 115007167.434 8  89616051.45445  21885133.023                    21885142.043
 116365139.418 7  90674212.99945  22143554.563                    22143565.035
 104565238.406 8  81479557.73946  19898087.820                    19898097.012
 127487730.826 6  99341274.35043  24260138.234                    24260147.695
 117735880.617 8  91742322.47045  22404397.328                    22404408.141
 116844571.131 8  91047844.45145  22234770.438                    22234778.531
 11  7 28  0  4 30.0000000  0  8G10G17G28G09G04G20G27G02
 123060143.290 7  95891134.78544  23417563.516                    23417575.445
 112583034.589 8                  21423830.250
 115060405.826 7  89657535.89445  21895263.922                    21895272.766
 116341994.642 7  90656178.12845  22139149.750                    22139160.250
 104554508.090 8  81471196.46846  19896045.570                    19896054.844
 127525812.482 6  99370948.36542  24267384.828                    24267395.063
 117728903.034 7  91736885.37245  22403069.195                    22403080.070
 116766774.186 8  90987223.54545  22219966.523                    22219974.945
 11  7 28  0  5  0.0000000  0  8G10G17G28G09G04G20G27G02
 122966706.193 7  95818326.78544  23399782.781                    23399794.578
 112614814.688 8                  21429878.148
 115114016.302 7  89699310.25145  21905466.352                    21905475.117
 116319488.192 7  90638640.64745  22134866.695                    22134877.668
 104544348.274 8  81463279.74146  19894112.328                    19894121.688
 127564384.061 6  99401004.08743  24274724.445                    24274735.027
 117722416.928 7  91731831.24245  22401835.102                    22401845.766
 116689276.639 8  90926835.93945  22205218.688                    22205227.477
 11  7 28  0  5 30.0000000  0  8G10G17G28G09G04G20G27G02
 122873338.326 6  95745572.74743  23382014.672                    23382027.258
 112646686.814 8                  21435943.047
 115167998.580 7  89741374.32745  21915738.242                    21915747.582
 116297620.627 7  90621601.00045  22130705.586                    22130716.633
 104534758.106 8  81455806.90046  19892287.461                    19892296.309
 127603444.586 6  99431440.84442  24282157.961                    24282168.164
 117716421.862 7  91727159.74745  22400694.844                    22400705.012
 116612079.451 8  90866682.37145  22190528.547                    22190536.801
 11  7 28  0  6  0.0000000  0  8G10G17G28G09G04G20G27G02
 122780042.892 6  95672875.14043  23364260.625                    23364273.098
 112678651.234 8                  21442025.805
 115222352.584 7  89783728.04345  21926081.742                    21926090.777
 116276392.871 7  90605059.89245  22126666.695                    22126676.258
 104525737.403 8  81448777.79546  19890570.492                    19890580.039
 127642993.442 6  99462258.10542  24289684.250                    24289693.898
 117710917.729 7  91722870.79945  22399647.203                    22399657.195
 116535184.163 8  90806764.05045  22175895.984                    22175904.344
 11  7 28  0  6 30.0000000  0  8G10G17G28G09G04G20G27G02
 122686823.379 6  95600236.70343  23346522.109                    23346533.438
 112710707.610 8                  21448125.797
 115277078.249 7  89826371.37645  21936495.758                    21936504.730
 116255805.069 7  90589017.44145  22122748.750                    22122758.398
 104517285.868 8  81442192.19446  19888962.555                    19888971.629
 127683029.877 6  99493455.30542  24297302.391                    24297312.367
 117705904.707 7  91718964.54445  22398693.297                    22398703.629
 116458592.199 8  90747082.07845  22161320.516                    22161329.195
 11  7 28  0  7  0.0000000  0  8G10G17G28G09G04G20G27G02
 122593682.761 6  95527659.73644  23328798.297                    23328809.750
 112742855.893 8                  21454243.516
 115332175.904 7  89869304.56645  21946980.727                    21946989.496
 116235857.447 7  90573473.83945  22118952.922                    22118963.090
 104509403.099 8  81436049.79246  19887462.836                    19887471.906
 127723553.049 6  99525031.76442  24305013.773                    24305023.516
 117701382.279 7  91715440.56745  22397832.430                    22397842.480
 116382304.894 8  90687637.50945  22146804.227                    22146812.160
 11  7 28  0  7 30.0000000  0  8G10G17G28G09G04G20G27G02
 122500623.939 7  95455146.51744  23311089.406                    23311101.133
 112775095.265 8                  21460378.555
 115387645.061 7  89912527.23945  21957536.211                    21957544.984
 116216550.030 7  90558429.07545  22115279.063                    22115288.848
 104502087.917 8  81430349.65946  19886070.195                    19886079.473
 127764561.906 6  99556986.66542  24312817.469                    24312827.500
 117697349.770 7  91712298.35345  22397065.219                    22397075.684
 116306323.162 8  90628431.04645  22132345.008                    22132353.332
 11  7 28  0  8  0.0000000  0  8G10G17G28G09G04G20G27G02
 122407650.365 6  95382699.72744  23293396.680                    23293408.648
 112807425.560 8                  21466530.625
 115443485.583 7  89956039.29545  21968161.977                    21968171.031
 116197883.360 7  90543883.59345  22111726.891                    22111736.629
 104495340.129 8  81425091.65446  19884786.070                    19884795.641
 127806055.593 6  99589319.41442  24320712.977                    24320723.723
 117693807.254 8  91709537.95445  22396390.852                    22396401.457
 116230648.565 8  90569463.91845  22117944.570                    22117952.977
 11  7 28  0  8 30.0000000  0  8G10G17G28G09G04G20G27G02
 122314765.250 6  95310321.85644  23275721.227                    23275733.207
 112839846.637 8                  21472700.352
 115499697.543 7  89999840.76545  21978859.117                    21978867.742
 116179857.852 7  90529837.70945  22108296.992                    22108306.094
 104489159.371 8  81420275.48946  19883610.406                    19883619.285
 127848033.393 6  99622029.34442  24328702.172                    24328711.848
 117690754.544 7  91707159.21645  22395810.266                    22395819.902
 116155282.271 8  90510737.03245  22103602.617                    22103611.113
 11  7 28  0  9  0.0000000  0  8G10G17G28G09G04G20G27G02
 122221971.909 6  95238015.49344  23258063.117                    23258074.711
 112872358.708 8                  21478887.125
 115556280.749 7  90043931.54045  21989626.359                    21989635.566
 116162473.802 7  90516291.66245  22104988.391                    22104998.316
 104483544.837 8  81415900.53746  19882541.852                    19882550.898
 127890494.336 6  99655115.85542  24336780.836                    24336791.672
 117688191.253 7  91705161.85845  22395322.391                    22395332.785
 116080225.376 8  90452251.22945  22089319.438                    22089327.719
 11  7 28  0  9 30.0000000  0  8G10G17G28G09G04G20G27G02
 122129273.753 7  95165783.27244  23240423.266                    23240434.547
 112904961.291 7                  21485091.422
 115613234.993 7  90088311.42845  22000464.086                    22000473.398
 116145731.376 7  90503245.58745  22101802.344                    22101812.371
 104478496.261 8  81411966.59246  19881580.945                    19881590.340
 127933437.655 6  99688578.09142  24344953.563                    24344963.578
 117686117.208 7  91703545.71845  22394927.961                    22394937.996
 116005479.214 8  90394007.55145  22075095.609                    22075104.230
 11  7 28  0 10  0.0000000  0  8G10G17G28G09G04G20G27G02
 122036673.598 7  95093627.41344  23222802.688                    23222814.008
 112937653.608 8                  21491312.414
 115670559.659 7  90132979.93045  22011372.820                    22011382.063
 116129630.168 7  90490699.16245  22098738.906                    22098748.484
 104474011.946 8  81408472.33246  19880727.688                    19880737.234
 127976861.894 6  99722415.16042  24353217.063                    24353226.293
 117684531.277 7  91702309.92345  22394626.219                    22394635.938
 115931044.354 8  90336006.44345  22060931.586                    22060939.547
 11  7 28  0 10 30.0000000  0  8G10G17G28G09G04G20G27G02
 121944174.997 7  95021550.69444  23205200.281                    23205211.836
 112970436.140 8                  21497550.664
 115728254.724 7  90177937.09145  22022352.039                    22022361.188
 116114170.666 7  90478652.76445  22095796.961                    22095806.922
 104470091.842 8  81405417.71246  19879981.914                    19879990.633
 128020766.183 6  99756626.27442  24361571.891                    24361581.859
 117683433.255 7  91701454.32145  22394416.836                    22394427.000
 115856922.601 8  90278249.31645  22046826.523                    22046834.523
 11  7 28  0 11  0.0000000  0  8G10G17G28G09G04G20G27G02
 121851781.150 7  94949555.63244  23187617.609                    23187629.504
 113003308.027 8                  21503806.117
 115786320.188 7  90223182.86145  22033401.195                    22033410.563
 116099352.824 7  90467106.36145  22092976.805                    22092987.344
 104466735.254 8  81402802.20246  19879343.117                    19879352.113
 128065149.664 6  99791210.79642  24370018.039                    24370028.023
 117682822.923 7  91700978.73345  22394300.992                    22394310.758
 115783114.882 8  90220736.89045  22032781.297                    22032789.344
 11  7 28  0 11 30.0000000  0  8G10G17G28G09G04G20G27G02
 121759495.254 7  94877644.69744  23170056.563                    23170068.520
 113036269.536 8                  21510078.180
 115844756.031 7  90268717.23445  22044521.547                    22044529.973
 116085177.033 7  90456060.26745  22090279.086                    22090289.523
 104463941.690 8  81400625.41046  19878811.203                    19878820.660
 128110011.555 6  99826168.11142  24378554.750                    24378564.320
 117682700.035 7  91700882.96345  22394277.594                    22394287.992
 115709622.630 8  90163470.28545  22018796.039                    22018804.172
 11  7 28  0 12  0.0000000  0  8G10G17G28G09G04G20G27G02
 121667320.310 7  94805820.18444  23152516.156                    23152527.902
 113069320.213 8                  21516367.680
 115903561.271 7  90314539.45145  22055711.758                    22055720.746
 116071642.865 7  90445514.15045  22087703.680                    22087714.094
 104461709.697 8  81398886.20746  19878386.539                    19878395.727
 128155350.246 6  99861496.94443  24387182.969                    24387191.676
 117683063.738 7  91701166.36145  22394346.547                    22394357.086
 115636446.742 8  90106450.18145  22004871.047                    22004879.164
 11  7 28  0 12 30.0000000  0  8G10G17G28G09G04G20G27G02
 121575260.049 6  94734085.02044  23134997.680                    23135009.020
 113102459.963 7                  21522674.070
 115962736.175 7  90360649.72345  22066972.078                    22066981.652
 116058750.729 7  90435468.30945  22085250.563                    22085260.996
 104460039.249 8  81397584.57746  19878068.586                    19878077.512
 128201165.077 6  99897196.78543  24395900.117                    24395910.207
 117683913.830 7  91701828.76245  22394508.648                    22394518.574
 115563588.434 8  90049677.55345  21991006.516                    21991014.980
 11  7 28  0 13  0.0000000  0  9G10G17G12G28G09G04G20G27G02
 121483317.934 7  94662441.91644  23117501.414                    23117512.656
 113135689.069 8                  21528997.453
 129506912.69616                  24644315.781
 116022280.498 7  90407047.84445  22078303.547                    22078312.633
 116046500.693 7  90425922.80645  22082919.367                    22082929.914
 104458929.649 8  81396719.95946  19877857.547                    19877866.582
 128247455.261 6  99933267.00643  24404709.516                    24404718.590
 117685250.004 7  91702869.92645  22394762.844                    22394772.855
 115491049.136 8  89993153.49145  21977202.500                    21977210.371
 11  7 28  0 13 30.0000000  0  9G10G17G12G28G09G04G20G27G02
 121391497.193 6  94590893.42044  23100027.898                    23100040.418
 113169007.628 7                  21535337.609
 129410035.120 6                  24625879.523
 116082194.847 7  90453734.30045  22089705.297                    22089714.078
 116034893.270 7  90416878.05345  22080710.539                    22080721.223
 104458380.186 8  81396291.81846  19877753.078                    19877762.191
 128294219.964 6  99969707.03643  24413608.219                    24413618.328
 117687071.916 7  91704289.59445  22395109.680                    22395119.297
 115418830.178 8  89936879.04345  21963459.664                    21963468.191
 11  7 28  0 14  0.0000000  0  9G10G17G12G28G09G04G20G27G02
 121299800.424 6  94519441.53344  23082578.867                    23082590.477
 113202414.476 7                  21541695.125
 129313136.357 6                  24607440.664
 116142477.373 7  90500707.64445  22101176.117                    22101185.375
 116023927.326 7  90408333.15645  22078623.797                    22078634.414
 104458389.121 8  81396298.78746  19877754.570                    19877763.617
 128341457.359 6 100006515.38043  24422596.734                    24422607.117
 117689378.342 7  91706086.78745  22395548.328                    22395558.539
 115346932.047 8  89880854.59945  21949778.266                    21949786.020
 11  7 28  0 14 30.0000000  0  9G10G17G12G28G09G04G20G27G02
 121208231.420 6  94448089.17444  23065154.039                    23065165.984
 113235909.967 8                  21548068.641
 129216218.300 6                  24588998.336
 116203128.106 7  90547967.91445  22112717.430                    22112726.477
 116013603.113 7  90400288.32645  22076659.273                    22076669.668
 104458956.309 8  81396740.76346  19877862.734                    19877871.539
 128389166.300 6 100043691.14443  24431676.078                    24431686.082
 117692168.931 7  91708261.25345  22396079.078                    22396089.602
 115275356.089 8  89825081.18445  21936157.633                    21936165.805
 11  7 28  0 15  0.0000000  0  9G10G17G12G28G09G04G20G27G02
 121116793.105 6  94376838.68044  23047753.633                    23047765.059
 113269493.454 7                  21554459.391
 129119282.109 6                  24570551.875
 116264146.534 7  90595514.67745  22124329.227                    22124338.527
 116003920.046 7  90392743.07845  22074816.547                    22074827.258
 104460080.305 8  81397616.61646  19878076.547                    19878085.660
 128437345.574 6 100081233.37543  24440844.391                    24440854.102
 117695442.831 7  91710812.32945  22396702.336                    22396712.559
 115204102.851 8  89769559.25246  21922598.844                    21922606.691
 11  7 28  0 15 30.0000000  0  9G10G17G12G28G09G04G20G27G02
 121025488.855 6  94305692.60644  23030378.992                    23030390.223
 113303164.666 7                  21560866.680
 129022329.207 6                  24552102.234
 116325532.382 7  90643347.74845  22136010.367                    22136019.617
 115994877.969 7  90385697.31445  22073096.000                    22073106.703
 104461760.223 8  81398925.65546  19878396.273                    19878405.531
 128485994.030 7 100119141.28543  24450101.477                    24450111.813
 117699199.391 7  91713739.50545  22397417.422                    22397427.395
 115133173.538 8  89714289.72145  21909100.648                    21909108.965
 11  7 28  0 16  0.0000000  0  9G10G17G12G28G09G04G20G27G02
 120934322.076 6  94234653.66644  23013030.148                    23013041.684
 113336923.891 7                  21567291.133
 128925361.817 6                  24533649.211
 116387285.326 7  90691466.86945  22147762.063                    22147771.078
 115986477.171 7  90379151.24445  22071497.289                    22071507.945
 104463995.339 8  81400667.31946  19878821.492                    19878830.672
 128535110.387 6 100157413.76243  24459448.578                    24459458.465
 117703438.194 7  91717042.44645  22398224.117                    22398234.141
 115062569.288 8  89659273.48845  21895665.398                    21895673.379
 11  7 28  0 16 30.0000000  0  9G10G17G12G28G09G04G20G27G02
 120843295.750 7  94163724.16844  22995709.047                    22995720.313
 113370770.960 7                  21573731.875
 128828381.458 6                  24515195.359
 116449404.707 7  90739871.52645  22159582.750                    22159591.613
 115978716.931 7  90373104.31445  22070020.992                    22070031.215
 104466784.383 8  81402840.61146  19879352.336                    19879361.344
 128584693.562 6 100196049.97243  24468883.445                    24468894.109
 117708158.449 7  91720720.54745  22399122.422                    22399132.129
 114992291.286 8  89604511.47846  21882292.172                    21882299.797
 11  7 28  0 17  0.0000000  0  9G10G17G12G28G09G04G20G27G02
 120752413.465 7  94092906.89944  22978414.773                    22978425.699
 113404705.759 7                  21580189.211
 128731389.767 6                  24496738.586
 116511890.700 7  90788561.85645  22171473.664                    22171482.504
 115971597.070 7  90367556.37545  22068665.695                    22068676.320
 104470126.991 8  81405445.25346  19879988.266                    19879997.328
 128634742.319 6 100235049.01143  24478408.328                    24478418.141
 117713359.414 7  91724773.22945  22400112.367                    22400121.859
 114922340.449 8  89550004.38845  21868980.578                    21868988.621
 11  7 28  0 17 30.0000000  0  9G10G17G12G28G09G04G20G27G02
 120661678.246 7  94022204.23844  22961148.008                    22961159.527
 113438728.036 8                  21586663.844
 128634388.742 6                  24478279.352
 116574742.438 7  90837537.18445  22183433.875                    22183443.336
 115965117.209 7  90362507.13545  22067433.227                    22067443.285
 104474021.622 8  81408480.03846  19880729.461                    19880738.582
 128685255.091 6 100274409.58143  24488020.086                    24488029.840
 117719040.469 7  91729200.00445  22401193.078                    22401202.844
 114852718.144 8  89495753.30846  21855731.734                    21855739.977
 11  7 28  0 18  0.0000000  0  9G10G17G12G28G09G04G20G27G02
 120571093.515 7  93951618.84744  22943909.555                    22943921.293
 113472837.773 7                  21593154.859
 128537379.716 7                  24459819.195
 116637959.624 7  90886797.27245  22195463.742                    22195472.785
 115959277.100 7  90357956.40745  22066321.695                    22066331.703
 104478467.480 8  81411944.35146  19881575.742                    19881584.355
 128736231.110 6 100314131.12843  24497719.773                    24497730.387
 117725200.852 7  91734000.28545  22402365.445                    22402375.543
 114783424.822 8  89441758.56946  21842545.703                    21842553.734
 11  7 28  0 18 30.0000000  0  9G10G17G12G28G09G04G20G27G02
 120480662.429 7  93881153.16444  22926701.656                    22926712.484
 113507035.106 7                  21599662.305
 128440364.574 6                  24441358.180
 116701542.094 7  90936341.99645  22207563.148                    22207572.418
 115954076.407 7  90353903.92145  22065331.891                    22065342.070
 104483463.484 8  81415837.34446  19882526.172                    19882535.105
 128787668.846 6 100354212.48443  24507508.898                    24507519.027
 117731839.941 7  91739173.59145  22403628.727                    22403638.984
 114714461.753 8  89388021.17546  21829422.500                    21829430.574
 11  7 28  0 19  0.0000000  0  9G10G17G12G28G09G04G20G27G02
 120390388.718 7  93810810.12344  22909523.102                    22909534.172
 113541319.688 7                  21606186.008
 128343345.223 6                  24422895.383
 116765488.863 7  90986170.60145  22219731.773                    22219740.934
 115949514.901 7  90350349.50245  22064464.375                    22064474.125
 104489008.841 8  81420158.41246  19883581.609                    19883590.766
 128839567.201 6 100394652.75443  24517384.641                    24517395.086
 117738957.034 7  91744719.35645  22404982.773                    22404993.188
 114645830.007 8  89334541.94846  21816362.242                    21816370.242
 11  7 28  0 19 30.0000000  0  9G10G17G12G28G09G04G20G27G02
 120300275.531 7  93740592.14844  22892375.172                    22892386.066
 113575691.492 8                  21612727.320
 128246323.079 6                  24404433.656
 116829799.718 7  91036282.90445  22231969.500                    22231979.059
 115945592.197 7  90347292.84345  22063717.430                    22063727.645
 104495102.335 8  81424906.59646  19884741.148                    19884749.797
 128891924.644 6 100435450.73543  24527347.469                    24527357.641
 117746551.315 7  91750636.96545  22406428.250                    22406438.875
 114577530.434 8  89281321.56346  21803364.781                    21803373.426
 11  7 28  0 20  0.0000000  0  9G10G17G12G28G09G04G20G27G02
 120210326.049 7  93670501.76344  22875257.906                    22875269.711
 113610150.083 7                  21619284.367
 128149299.933 6                  24385969.930
 116894473.998 7  91086678.39545  22244276.969                    22244286.539
 115942307.623 7  90344733.43845  22063092.344                    22063102.473
 104501742.416 8  81430080.69646  19886004.523                    19886013.766
 128944739.725 6 100476605.28543  24537398.875                    24537408.309
 117754621.778 7  91756925.61345  22407963.711                    22407974.684
 114509563.913 8  89228360.69246  21790431.422                    21790439.547
 11  7 28  0 20 30.0000000  0  9G10G17G12G28G09G04G20G27G02
 120120543.750 7  93600541.62144  22858172.883                    22858184.137
 113644696.138 8                  21625858.336
 128052277.806 6                  24367507.266
 116959511.480 7  91137356.89545  22256653.602                    22256662.570
 115939660.843 7  90342671.00845  22062588.875                    22062599.113
 104508928.625 8  81435680.35446  19887371.734                    19887380.992
 128998011.225 6 100518115.50643  24547535.297                    24547545.508
 117763167.786 7  91763584.82245  22409590.133                    22409600.594
 114441931.763 8  89175660.38246  21777561.336                    21777569.563
 11  7 28  0 21  0.0000000  0  9G10G17G12G28G09G04G20G27G02
 120030932.032 7  93530714.41744  22841120.148                    22841130.781
 113679329.498 7                  21632448.406
 127955258.329 6                  24349044.875
 117024911.594 7  91188317.96745  22269098.875                    22269108.000
 115937651.130 7  90341104.98845  22062206.617                    22062215.918
 104516659.758 8  81441704.61946  19888842.984                    19888852.137
 129051738.172 6 100559980.59943  24557758.922                    24557769.766
 117772188.573 7  91770613.99645  22411307.156                    22411317.270
 114374634.869 8  89123221.30346  21764755.352                    21764763.211
 11  7 28  0 21 30.0000000  0  9G10G17G12G28G09G04G20G27G02
 119941493.747 7  93461022.34544  22824100.695                    22824111.840
 113714049.322 8                  21639055.688
 127858243.258 7                  24330583.531
 117090673.471 7  91239560.93645  22281612.273                    22281622.020
 115936277.938 7  90340034.97045  22061945.297                    22061954.688
 104524934.272 8  81448152.31046  19890417.773                    19890426.789
 129105918.823 6 100602199.22243  24568070.641                    24568080.016
 117781682.941 7  91778012.18645  22413114.102                    22413124.172
 114307674.165 8  89071044.19746  21752012.969                    21752020.660
 11  7 28  0 22  0.0000000  0  8G10G17G12G28G09G04G27G02
 119852233.047 7  93391468.65444  22807114.523                    22807125.688
 113748856.495 7                  21645679.508
 127761234.846 6                  24312123.477
 117156797.088 7  91291085.76545  22294195.906                    22294204.840
 115935541.260 7  90339460.92345  22061805.008                    22061814.387
 104533751.461 8  81455022.85446  19892095.664                    19892104.398
 117791650.596 7  91785779.18645  22415010.523                    22415020.609
 114241050.515 8  89019129.71946  21739334.711                    21739342.855
 11  7 28  0 22 30.0000000  0  8G10G17G12G28G09G04G27G02
 119763153.526 7  93322056.15644  22790163.352                    22790174.391
 113783751.173 8                  21652319.547
 127664235.161 6                  24293664.195
 117223282.554 7  91342892.56345  22306847.578                    22306857.004
 115935440.753 7  90339382.60245  22061785.719                    22061795.586
 104543110.440 8  81462315.57646  19893876.742                    19893885.262
 117802090.751 7  91793914.37645  22416997.008                    22417007.766
 114174765.319 8  88967478.97946  21726721.367                    21726729.141
 11  7 28  0 23  0.0000000  0  8G10G17G12G28G09G04G27G02
 119674257.726 7  93252786.79944  22773247.484                    22773258.047
 113818732.734 8                  21658976.469
 127567245.333 6                  24275207.539
 117290127.954 7  91394979.83045  22319567.836                    22319577.020
 115935974.885 7  90339798.80945  22061887.656                    22061897.535
 104553009.431 8  81470029.08046  19895760.547                    19895768.953
 117813001.889 7  91802416.55845  22419073.391                    22419083.473
 114108818.806 8  88916092.15146  21714172.000                    21714179.758
 11  7 28  0 23 30.0000000  0  8G10G17G12G28G09G04G27G02
 119585548.823 7  93183663.09544  22756366.242                    22756376.688
 113853801.039 8                  21665649.484
 127470266.827 6                  24256753.453
 117357332.846 7  91447347.21345  22332356.727                    22332365.543
 115937143.206 7  90340709.19545  22062109.844                    22062119.625
 104563446.848 8  81478162.13846  19897746.523                    19897755.512
 117824382.905 7  91811284.87245  22421238.961                    22421249.121
 114043211.912 8  88864969.96046  21701687.141                    21701695.406
 11  7 28  0 24  0.0000000  0  8G10G17G12G28G09G04G27G02
 119497030.418 7  93114687.80044  22739521.773                    22739532.496
 113888956.042 8                  21672339.398
 127373301.656 6                  24238302.109
 117424896.800 7  91499994.37745  22345213.727                    22345223.027
 115938944.753 7  90342113.00545  22062452.805                    22062462.250
 104574421.834 8  81486714.08646  19899834.836                    19899843.828
 117836232.952 7  91820518.66845  22423494.242                    22423504.477
 113977945.595 8  88814113.14946  21689267.500                    21689275.137
 11  7 28  0 24 30.0000000  0  8G10G17G12G28G09G04G27G02
 119408705.622 7  93045863.37644  22722713.383                    22722724.320
 113924197.746 7                  21679045.820
 127276351.816 6                  24219852.680
 117492818.839 7  91552920.57945  22358138.828                    22358147.527
 115941378.801 7  90344009.67345  22062915.680                    22062925.594
 104585932.977 8  81495683.80646  19902025.477                    19902034.109
 117848551.016 7  91830117.16645  22425837.859                    22425848.305
 113913020.452 8  88763522.18446  21676912.633                    21676920.902
 11  7 28  0 25  0.0000000  0  8G10G17G12G28G09G04G27G02
 119320577.517 7  92977192.23644  22705943.867                    22705954.645
 113959525.897 8                  21685768.633
 127179419.049 7                  24201407.195
 117561098.216 7  91606125.22344  22371131.695                    22371140.859
 115944444.422 7  90346398.47345  22063499.102                    22063508.363
 104597978.614 8  81505070.02146  19904317.734                    19904326.641
 117861335.815 7  91840079.34045  22428271.328                    22428281.000
 113848437.058 8  88713197.53346  21664622.680                    21664630.484
 11  7 28  0 25 30.0000000  0  8G10G17G12G28G09G04G27G02
 119232649.747 7  92908677.19044  22689211.813                    22689222.004
 113994940.705 7                  21692507.898
 127082505.119 6                  24182965.273
 117629734.662 7  91659608.10944  22384192.961                    22384202.641
 115948141.191 7  90349279.08545  22064202.664                    22064212.289
 104610557.713 8  81514871.92246  19906711.445                    19906720.250
 117874586.514 7  91850404.54245  22430792.352                    22430802.184
 113784196.578 8  88663140.07446  21652398.328                    21652405.871
 11  7 28  0 26  0.0000000  0  8G10G17G12G28G09G04G27G02
 119144925.645 7  92840320.84044  22672518.273                    22672529.238
 114030442.310 8                  21699263.563
 126985611.865 6                  24164526.992
 117698727.418 7  91713368.62945  22397321.711                    22397331.113
 115952468.222 7  90352650.79445  22065025.953                    22065035.633
 104623669.002 8  81525088.51646  19909206.422                    19909215.391
 117888302.109 7  91861092.02645  22433402.141                    22433412.371
 113720299.917 8  88613350.53046  21640238.961                    21640246.637
 11  7 28  0 26 30.0000000  0  8G10G17G12G28G09G04G27G02
 119057408.476 7  92772125.73144  22655864.195                    22655874.934
 114066030.525 8                  21706035.617
 126888741.129 6                  24146093.008
 117768075.541 7  91767406.05645  22410518.742                    22410528.082
 115957424.423 7  90356512.78445  22065969.500                    22065978.730
 104637310.784 8  81535718.48646  19911802.516                    19911811.238
 117902481.217 7  91872140.66345  22436100.617                    22436110.668
 113656747.253 8  88563829.03146  21628145.141                    21628153.039
 11  7 28  0 27  0.0000000  0  8G10G17G12G28G09G04G27G02
 118970101.589 7  92704094.47444  22639249.844                    22639260.586
 114101705.397 8                  21712824.102
 126791894.984 7                  24127663.891
 117837778.561 7  91821720.03644  22423783.016                    22423791.832
 115963009.029 7  90360864.43645  22067032.094                    22067041.664
 104651481.898 8  81546760.92946  19914499.109                    19914507.816
 117917122.967 7  91883549.80245  22438886.742                    22438897.043
 113593540.050 8  88514576.73046  21616117.219                    21616125.156
 11  7 28  0 27 30.0000000  0  8G10G17G12G28G09G04G27G02
 118883008.515 7  92636229.83544  22622676.328                    22622687.344
 114137466.888 8                  21719629.516
 126695075.110 7                  24109239.516
 117907835.808 7  91876310.04145  22437113.641                    22437123.500
 115969221.128 7  90365705.04445  22068214.047                    22068223.648
 104666180.968 8  81558214.75746  19917296.188                    19917304.949
 117932226.397 7  91895318.69845  22441761.195                    22441771.047
 113530679.071 8  88465594.20746  21604155.469                    21604163.340
 11  7 28  0 28  0.0000000  0  8G10G17G12G28G09G04G27G02
 118796132.411 7  92568534.23845  22606144.813                    22606155.656
 114173315.856 8                  21726451.688
 126598283.669 7                  24090820.922
 117978246.670 7  91931175.60245  22450512.891                    22450522.793
 115976060.205 7  90371034.20945  22069515.266                    22069524.836
 104681406.932 8  81570079.16046  19920193.766                    19920202.434
 117947790.434 8  91907446.51345  22444722.906                    22444733.172
 113468165.186 8  88416882.14846  21592259.430                    21592267.262
 11  7 28  0 28 30.0000000  0  8G10G17G12G28G09G04G27G02
 118709476.771 7  92501010.45244  22589654.578                    22589665.156
 114209251.700 8                  21733290.031
 126501522.716 7                  24072407.688
 118049010.230 7  91986315.96845  22463978.984                    22463988.031
 115983525.096 7  90376851.02245  22070935.758                    22070945.547
 104697158.336 8  81582352.99546  19923190.906                    19923199.871
 117963813.988 7  91919932.38745  22447772.531                    22447781.984
 113405999.025 8  88368441.04546  21580429.359                    21580436.711
 11  7 28  0 29  0.0000000  0  8G10G17G12G28G09G04G27G02
 118623044.932 7  92433661.05144  22573207.047                    22573217.840
 114245274.330 8                  21740144.961
 126404794.053 7                  24054000.563
 118120125.771 7  92041730.60444  22477511.570                    22477521.309
 115991614.557 7  90383154.51345  22072475.313                    22072484.938
 104713433.471 8  81595034.93146  19926287.906                    19926297.230
 117980295.682 7  91932775.25945  22450908.750                    22450918.844
 113344181.276 8  88320271.43746  21568666.211                    21568673.637
 11  7 28  0 29 30.0000000  0  8G10G17G12G28G09G04G27G02
 118536840.317 7  92366488.69444  22556802.938                    22556813.770
 114281384.259 8                  21747016.305
 126308099.636 7                  24035600.820
 118191592.598 7  92097418.97644  22491110.984                    22491121.066
 116000327.678 7  90389943.96745  22074133.094                    22074142.773
 104730231.079 8  81608123.99046  19929484.328                    19929493.414
 117997234.442 7  91945974.27345  22454131.852                    22454142.457
 113282712.796 8  88272373.97046  21556968.961                    21556976.270
 11  7 28  0 30  0.0000000  0  8G10G17G12G28G09G04G27G02
 118450865.828 7  92299495.66544  22540442.672                    22540452.785
 114317581.526 8                  21753904.414
 126211441.275 7                  24017206.500
 118263409.686 7  92153380.29144  22504777.680                    22504787.074
 116009663.376 7  90397218.54145  22075909.852                    22075919.355
 104747549.477 8  81621618.85546  19932780.023                    19932788.957
 118014628.961 7  91959528.43345  22457441.766                    22457452.266
 113221594.282 8  88224749.20946  21545338.156                    21545346.090
 11  7 28  0 30 30.0000000  0  8G10G17G12G28G09G04G27G02
 118365125.173 7  92232684.83644  22524126.188                    22524136.742
 114353865.704 8                  21760809.016
 126114821.221 7                  23998820.813
 118335576.455 7  92209614.06844  22518510.438                    22518519.676
 116019620.518 7  90404977.35945  22077804.531                    22077814.289
 104765387.452 8  81635518.58146  19936174.297                    19936183.016
 118032478.356 7  91973437.02245  22460838.547                    22460849.273
 113160826.450 8  88177397.70746  21533774.484                    21533781.996
 11  7 28  0 31  0.0000000  0  8G10G17G12G28G09G04G27G02
 118279621.375 7  92166058.59844  22507855.023                    22507866.023
 114390236.914 8                  21767730.281
 126018241.122 7                  23980441.789
 118408091.889 7  92266119.55444  22532309.414                    22532319.285
 116030197.702 7  90413219.32645  22079817.469                    22079826.852
 104783742.770 8  81649821.43446  19939667.148                    19939676.164
 118050781.046 7  91987698.85545  22464321.633                    22464331.969
 113100409.677 8  88130319.75746  21522277.406                    21522285.262
 11  7 28  0 31 30.0000000  0  8G10G17G12G28G09G04G27G02
 118194358.121 7  92099619.76944  22491630.813                    22491640.969
 114426695.575 8                  21774667.984
 125921703.051 7                  23962071.023
 118480955.250 7  92322896.11744  22546175.945                    22546184.859
 116041394.028 7  90421943.73445  22081948.016                    22081957.523
 104802614.460 8  81664526.65946  19943258.422                    19943267.609
 118069535.841 7  92002312.97945  22467889.961                    22467900.680
 113040345.074 8  88083516.22046  21510847.273                    21510855.133
 11  7 28  0 32  0.0000000  0  8G10G17G12G28G09G04G27G02
 118109338.463 7  92033370.76344  22475451.906                    22475462.281
 114463241.532 8                  21781622.320
 125825208.727 7                  23943708.766
 118554165.518 7  92379943.02744  22560106.844                    22560115.918
 116053208.214 7  90431149.59545  22084196.141                    22084205.660
 104822000.538 8  81679632.69646  19946947.336                    19946956.531
 118088741.115 7  92017278.12045  22471544.461                    22471555.211
 112980632.878 8  88036987.28946  21499484.469                    21499492.129
 11  7 28  0 32 30.0000000  0  8G10G17G12G28G09G04G27G02
 118024565.782 7  91967314.20145  22459319.820                    22459330.895
 114499875.004 8                  21788593.797
 125728760.498 6                  23925355.266
 118627721.752 7  92437259.49744  22574104.492                    22574113.375
 116065639.443 7  90440836.27045  22086561.688                    22086571.223
 104841899.865 8  81695138.67146  19950734.242                    19950743.570
 118108395.795 7  92032593.45645  22475285.148                    22475295.262
 112921273.968 8  87990733.64246  21488189.125                    21488196.750
 11  7 28  0 33  0.0000000  0  8G10G17G12G28G09G04G27G02
 117940043.642 7  91901452.86845  22443236.008                    22443245.914
 114536596.190 8                  21795581.250
 125632360.244 6                  23907010.773
 118701623.459 7  92494845.18044  22588166.633                    22588176.477
 116078686.551 7  90451002.84045  22089044.859                    22089054.059
 104862310.986 8  81711043.44046  19954618.188                    19954627.656
 118128498.698 7  92048258.03945  22479110.219                    22479120.773
 112862268.991 8  87944755.79046  21476960.758                    21476968.000
 11  7 28  0 33 30.0000000  0  8G10G17G12G28G09G04G27G02
 117855775.257 7  91835789.27245  22427200.031                    22427211.043
 114573405.213 8                  21802586.078
 125536010.175 6                  23888675.703
 118775869.358 7  92552699.04544  22602296.070                    22602305.887
 116092347.830 8  90461647.98645  22091644.477                    22091653.770
 104883231.935 8  81727345.47947  19958599.430                    19958608.934
 118149048.103 7  92064270.55645  22483021.297                    22483031.090
 112803618.451 8  87899054.12646  21465800.031                    21465807.477
 11  7 28  0 34  0.0000000  0  8G10G17G12G28G09G04G27G02
 117771764.018 7  91770326.01845  22411212.969                    22411223.773
 114610302.095 8                  21809607.203
 125439712.072 7                  23870351.547
 118850458.757 7  92610820.58844  22616489.719                    22616498.727
 116106621.970 8  90472770.68445  22094360.406                    22094370.039
 104904661.196 8  81744043.59946  19962677.063                    19962686.199
 118170042.902 7  92080630.13545  22487016.750                    22487026.199
 112745323.243 8  87853629.34146  21454706.367                    21454713.711
 11  7 28  0 34 30.0000000  0  8G10G17G12G28G09G04G27G02
 117688013.157 7  91705065.67845  22395275.555                    22395286.383
 114647287.289 8                  21816644.977
 125343467.933 7                  23852036.672
 118925390.585 7  92669208.95444  22630748.953                    22630758.609
 116121507.982 8  90484370.15445  22097193.391                    22097202.441
 104926597.217 8  81761136.59746  19966851.766                    19966860.309
 118191481.819 7  92097335.78945  22491096.258                    22491106.043
 112687383.885 8  87808481.83846  21443681.086                    21443688.633
 11  7 28  0 35  0.0000000  0  8G10G17G12G28G09G04G27G02
 117604526.001 7  91640010.82145  22379388.813                    22379398.934
 114684360.239 8                  21823700.063
 125247279.759 6                  23833731.773
 119000663.949 7  92727863.44944  22645072.523                    22645082.828
 116137004.063 8  90496445.02645  22100142.703                    22100151.629
 104949038.175 8  81778623.05546  19971121.898                    19971130.824
 118213363.339 7  92114386.31845  22495260.031                    22495270.309
 112629800.810 8  87763611.96946  21432723.031                    21432730.781
 11  7 28  0 35 30.0000000  0  8G10G17G12G28G09G04G27G02
 117521305.960 7  91575164.08645  22363552.539                    22363562.750
 114721521.506 8                  21830771.656
 125151149.729 7                  23815439.250
 119076278.275 7  92786783.61544  22659462.094                    22659471.887
 116153108.976 8  90508994.29945  22103206.758                    22103216.133
 104971982.597 8  81796501.83546  19975487.891                    19975497.172
 118235685.998 7  92131780.59445  22499507.484                    22499517.594
 112572574.691 8  87719020.24046  21421833.641                    21421840.895
 11  7 28  0 36  0.0000000  0  8G10G17G12G28G09G04G27G02
 117438356.414 7  91510528.14945  22347767.711                    22347778.523
 114758771.138 8                  21837860.125
 125055080.108 7                  23797157.617
 119152232.186 7  92845968.41644  22673915.180                    22673925.516
 116169821.739 7  90522017.22245  22106387.000                    22106396.645
 104995428.845 8  81814771.64246  19979949.664                    19979958.988
 118258448.440 7  92149517.54345  22503839.492                    22503849.840
 112515706.148 8  87674707.14746  21411012.164                    21411019.387
 11  7 28  0 36 30.0000000  0  8G10G17G12G28G09G04G27G02
 117355680.124 7  91446105.12745  22332034.891                    22332045.027
 114796108.974 7                  21844964.883
 124959072.811 7                  23778888.859
 119228524.476 7  92905416.88044  22688433.320                    22688443.629
 116187140.321 8  90535512.21145  22109682.820                    22109692.496
 105019374.721 8  81833430.76546  19984506.367                    19984515.551
 118281648.900 7  92167595.80545  22508254.055                    22508264.625
 112459195.314 8  87630672.78246  21400258.055                    21400265.703
 11  7 28  0 37  0.0000000  0  8G10G17G12G28G09G04G27G02
 117273280.910 7  91381898.01245  22316354.445                    22316365.012
 114833535.788 8                  21852087.508
 124863129.583 7                  23760630.828
 119305154.396 7  92965128.44044  22703015.727                    22703025.906
 116205063.296 7  90549478.14345  22113093.453                    22113103.301
 105043818.769 8  81852478.07346  19989157.727                    19989167.188
 118305286.165 7  92186014.42745  22512751.938                    22512762.809
 112403043.152 8  87586917.90146  21389572.508                    21389580.027
 11  7 28  0 37 30.0000000  0  8G10G17G12G28G09G04G27G02
 117191162.267 7  91317909.51545  22300727.898                    22300738.324
 114871051.700 7                  21859226.383
 124767252.668 6                  23742385.633
 119382121.022 7  93025102.34744  22717662.672                    22717671.668
 116223589.639 7  90563914.25045  22116619.031                    22116628.680
 105068759.545 8  81871912.43846  19993904.383                    19993913.078
 118329358.872 7  92204772.35245  22517332.992                    22517343.516
 112347250.216 8  87543442.93546  21378955.109                    21378962.656
 11  7 28  0 38  0.0000000  0  8G10G17G12G28G09G04G27G02
 117109327.184 7  91254141.97845  22285155.031                    22285165.422
 114908656.368 7                  21866382.750
 124671444.330 6                  23724154.125
 119459423.510 7  93085338.00544  22732371.992                    22732382.422
 116242717.574 7  90578819.13245  22120258.633                    22120268.770
 105094195.047 8  81891732.30246  19998744.438                    19998753.328
 118353865.482 7  92223868.38745  22521996.305                    22522007.281
 112291817.027 8  87500248.28646  21368406.828                    21368414.438
 11  7 28  0 38 30.0000000  0  8G10G17G12G28G09G04G27G02
 117027779.029 7  91190598.01745  22269637.016                    22269647.172
 114946350.449 7                  21873555.375
 124575706.590 7                  23705936.000
 119537060.713 7  93145834.44344  22747146.141                    22747156.516
 116262445.827 7  90594191.79945  22124012.789                    22124022.844
 105120123.808 8  81911936.52146  20003678.531                    20003687.410
 118378804.461 7  92243301.32445  22526742.289                    22526752.699
 112236743.850 8  87457334.17246  21357926.727                    21357933.984
 11  7 28  0 39  0.0000000  0  8G10G17G12G28G09G04G27G02
 116946521.259 7  91127280.32944  22254174.219                    22254184.422
 114984133.930 7                  21880745.516
 124480041.542 7                  23687731.227
 119615031.164 7  93206590.55744  22761984.328                    22761993.145
 116282772.499 7  90610030.75945  22127880.516                    22127890.902
 105146543.741 8  81932523.48146  20008705.750                    20008715.219
 118404174.086 7  92263069.84345  22531570.219                    22531580.453
 112182031.328 8  87414701.08046  21347515.383                    21347522.945
 11  7 28  0 39 30.0000000  0  8G10G17G12G28G09G04G27G02
 116865556.928 7  91064191.30445  22238766.789                    22238777.258
 115022007.083 7                  21887952.438
 124384451.476 6                  23669540.875
 119693333.912 7  93267605.62644  22776884.320                    22776894.363
 116303695.971 7  90626334.75345  22131862.320                    22131872.422
 105173453.025 8  81953491.75346  20013826.375                    20013835.762
 118429972.713 7  92283172.64345  22536479.570                    22536489.363
 112127680.027 8  87372349.46946  21337172.555                    21337180.145
 11  7 28  0 40  0.0000000  0  8G10G17G12G28G09G04G27G02
 116784889.806 7  91001333.87145  22223416.500                    22223426.883
 115059970.263 7                  21895176.609
 124288938.473 6                  23651364.641
 119771968.211 7  93328879.02644  22791847.625                    22791857.906
 116325214.747 7  90643102.62145  22135956.938                    22135967.645
 105200850.269 8  81974840.25646  20019040.016                    20019049.000
 118456198.969 7  92303608.66345  22541470.602                    22541480.340
 112073690.475 7  87330279.74046  21326898.484                    21326906.000
 11  7 28  0 40 30.0000000  0  8G10G17G12G28G09G04G27G02
 116704522.685 7  90938710.21845  22208123.375                    22208133.109
 115098023.579 7                  21902418.180
 124193504.616 7                  23633205.391
 119850933.029 7  93390409.98144  22806874.438                    22806884.488
 116347327.299 7  90660333.16945  22140164.922                    22140175.293
 105228733.497 8  81996567.45246  20024346.352                    20024355.156
 118482851.307 7  92324376.69245  22546541.859                    22546552.344
 112020063.061 8  87288492.18746  21316693.750                    21316701.199
 11  7 28  0 41  0.0000000  0  8G10G17G12G28G09G04G27G02
 116624458.631 7  90876322.69445  22192887.891                    22192897.910
 115136167.019 7                  21909676.617
 124098152.190 7                  23615060.609
 119930226.983 7  93452197.39944  22821963.078                    22821973.980
 116370031.851 7  90678025.02945  22144485.273                    22144495.785
 105257100.666 8  82018671.74246  20029744.258                    20029754.035
 118509927.879 7  92345475.29045  22551694.438                    22551704.449
 111966798.111 8  87246987.07346  21306557.383                    21306565.508
 11  7 28  0 41 30.0000000  0  8G10G17G12G28G09G04G27G02
 116544701.217 7  90814174.11945  22177710.313                    22177720.871
 115174400.727 7                  21916952.297
 124002882.896 7                  23596930.875
 120009848.917 7  93514240.38044  22837114.719                    22837124.879
 116393326.498 7  90696176.69745  22148918.102                    22148928.848
 105285949.911 8  82041151.68146  20035234.383                    20035243.402
 118537426.929 7  92366903.08445  22556927.180                    22556937.559
 111913895.761 8  87205764.50746  21296490.789                    21296497.723
 11  7 28  0 42  0.0000000  0  8G10G17G12G28G09G04G27G02
 116465253.956 7  90752267.22545  22162591.477                    22162601.539
 115212724.967 7                  21924244.906
 123907698.849 7                  23578817.797
 120089798.053 7  93576538.31744  22852329.680                    22852338.523
 116417209.567 7  90714786.88045  22153463.063                    22153473.305
 105315279.337 8  82064005.78646  20040815.453                    20040824.699
 118565347.246 7  92388659.14145  22562240.414                    22562250.836
 111861356.770 8  87164825.07846  21286493.016                    21286499.879
 11  7 28  0 42 30.0000000  0  8G10G17G12G28G09G04G27G02
 116386119.828 7  90690604.33545  22147533.086                    22147543.332
 115251140.239 7                  21931554.805
 123812602.891 7                  23560722.125
 120170072.640 7  93639089.90044  22867604.195                    22867614.883
 116441679.466 7  90733854.32045  22158119.500                    22158129.914
 105345087.272 8  82087232.74946  20046487.453                    20046496.680
 118593687.110 7  92410742.11445  22567633.578                    22567643.703
 111809181.555 8  87124169.11346  21276563.977                    21276571.301
 11  7 28  0 43  0.0000000  0  8G10G17G12G28G09G04G27G02
 116307301.868 7  90629187.79645  22132534.477                    22132544.574
 115289646.515 8                  21938882.828
 123717596.889 7                  23542642.945
 120250671.964 7  93701894.47844  22882942.164                    22882952.668
 116466734.153 7  90753377.45045  22162887.258                    22162898.070
 105375371.806 8  82110831.08946  20052250.273                    20052259.730
 118622444.545 7  92433150.46245  22573105.680                    22573116.590
 111757370.264 8  87083796.72146  21266704.742                    21266712.113
 11  7 28  0 43 30.0000000  0  8G10G17G12G28G09G04G27G02
 116228803.640 7  90568020.41545  22117596.695                    22117607.336
 115328244.490 7                  21946227.492
 123622683.022 7                  23524581.336
 120331594.551 7  93764950.95044  22898341.258                    22898351.727
 116492371.879 7  90773354.88645  22167765.906                    22167776.844
 105406131.000 8  82134799.30046  20058103.734                    20058112.820
 118651617.883 7  92455882.89645  22578657.172                    22578667.711
 111705923.583 8  87043708.43946  21256914.492                    21256921.773
 11  7 28  0 44  0.0000000  0  8G10G17G12G28G09G04G27G02
 116150628.265 7  90507104.60045  22102720.031                    22102731.051
 115366933.805 8                  21953590.008
 123527863.157 7                  23506536.977
 120412839.653 7  93828258.74644  22913801.930                    22913812.555
 116518590.849 7  90793785.23945  22172755.625                    22172765.871
 105437362.733 8  82159135.71746  20064047.109                    20064056.059
 118681205.411 7  92478938.06645  22584287.945                    22584298.344
 111654841.737 8  87003904.44746  21247194.039                    21247201.457
 11  7 28  0 44 30.0000000  0  8G10G17G12G28G09G04G27G02
 116072779.348 7  90446443.15545  22087906.078                    22087916.172
 115405714.960 8                  21960969.672
 123433140.050 7                  23488512.508
 120494405.655 7  93891816.61644  22929323.664                    22929333.445
 116545389.386 7  90814667.21145  22177854.703                    22177865.461
 105469065.387 8  82183839.09146  20070079.820                    20070088.859
 118711205.455 7  92502314.68145  22589996.398                    22590006.973
 111604125.072 8  86964385.00846  21237543.125                    21237550.492
 11  7 28  0 45  0.0000000  0  8G10G17G12G28G09G04G27G02
 115995260.326 7  90386038.78045  22073154.563                    22073165.422
 115444588.328 7                  21968367.141
 123338515.592 7                  23470506.258
 120576291.497 7  93955623.68744  22944906.523                    22944916.184
 116572765.593 7  90835999.30545  22183064.438                    22183074.848
 105501237.131 8  82208907.98746  20076201.836                    20076211.012
 118741616.363 7  92526011.45845  22595783.188                    22595794.043
 111553773.944 8  86925150.41246  21227961.344                    21227968.574
 11  7 28  0 45 30.0000000  0  8G10G17G12G28G09G04G27G02
 115918074.030 7  90325893.67445  22058466.594                    22058476.723
 115483553.801 7                  21975781.969
 123243992.194 7                  23452518.852
 120658495.871 7  94019678.97644  22960549.773                    22960559.242
 116600716.970 7  90857779.57445  22188383.594                    22188393.883
 105533875.671 8  82234340.62846  20082412.945                    20082421.926
 118772436.206 7  92550026.87445  22601648.422                    22601658.945
 111503788.655 8  86886200.87546  21218449.969                    21218457.047
 11  7 28  0 46  0.0000000  0  8G10G17G12G28G09G04G27G02
 115841224.151 7  90266010.69745  22043842.469                    22043852.695
 115522612.242 7                  21983214.719
 123149571.855 7                  23434549.891
 120741017.906 7  94083981.79844  22976252.953                    22976263.117
 116629242.269 7  90880007.06945  22193811.836                    22193822.031
 105566979.581 8  82260135.88146  20088712.203                    20088721.449
 118803663.608 7  92574359.88345  22607590.484                    22607601.238
 111454169.794 8  86847536.86346  21209007.195                    21209014.293
 11  7 28  0 46 30.0000000  0  8G10G17G12G28G09G04G27G02
 115764713.301 7  90206391.90445  22029282.984                    22029293.094
 115561763.500 7                  21990665.188
 123055256.788 7                  23416602.742
 120823855.826 7  94148530.73844  22992016.313                    22992026.270
 116658339.319 7  90902680.06945  22199349.125                    22199358.465
 105600546.173 8  82286291.67646  20095099.781                    20095108.941
 118835296.380 7  92599008.75945  22613610.078                    22613620.402
 111404917.132 8  86809158.20646  21199634.758                    21199642.188
 11  7 28  0 47  0.0000000  0  8G10G17G12G28G09G04G27G02
 115688544.621 7  90147039.73745  22014788.422                    22014798.820
 115601007.737 7                  21998132.742
 122961049.478 7                  23398676.336
 120907008.678 7  94213325.11444  23007840.453                    23007849.898
 116688005.857 7  90925796.83745  22204994.266                    22205004.016
 105634573.811 8  82312806.72446  20101575.000                    20101583.953
 118867332.487 7  92623971.91645  22619706.852                    22619716.926
 111356031.134 8  86771065.25246  21190332.055                    21190339.418
 11  7 28  0 47 30.0000000  0  8G10G17G12G28G09G04G27G02
 115612721.767 7  90087957.04545  22000359.750                    22000370.313
 115640345.462 7                  22005618.836
 122866951.842 7                  23380769.266
 120990475.016 7  94278363.74944  23023723.242                    23023733.059
 116718240.022 7  90949355.90445  22210748.063                    22210757.641
 105669060.427 8  82339679.42446  20108137.430                    20108146.418
 118899770.461 7  92649248.21344  22625879.258                    22625889.480
 111307511.955 8  86733258.13146  21181099.492                    21181106.746
 11  7 28  0 48  0.0000000  0  8G10G17G12G28G09G04G27G02
 115537247.699 7  90029146.13745  21985997.844                    21986007.582
 115679777.000 7                  22013121.836
 122772966.320 7                  23362883.930
 121074253.658 7  94343645.73644  23039665.789                    23039675.664
 116749039.823 7  90973355.73345  22216608.867                    22216618.527
 105704004.008 8  82366908.19546  20114786.883                    20114795.949
 118932608.217 7  92674836.03445  22632127.805                    22632138.797
 111259360.092 8  86695737.23546  21171935.977                    21171943.254
 11  7 28  0 48 30.0000000  0  9G10G17G12G28G05G09G04G27G02
 115462125.530 7  89970609.43545  21971701.914                    21971712.363
 115719302.423 7                  22020643.891
 122679095.355 7                  23345021.828
 121158342.983 7  94409169.78944  23055667.266                    23055677.922
 129647310.60916                  24671064.313
 116780403.323 7  90997794.80445  22222577.125                    22222586.461
 105739402.611 8  82394491.52746  20121523.516                    20121532.207
 118965843.869 7  92700733.91945  22638452.953                    22638462.781
 111211575.722 8  86658502.69846  21162843.063                    21162850.156
 11  7 28  0 49  0.0000000  0  9G10G17G12G28G05G09G04G27G02
 115387358.567 7  89912349.51645  21957474.680                    21957484.602
 115758921.618 7                  22028182.508
 122585340.737 7                  23327181.508
 121242741.627 7  94474934.86644  23071728.227                    23071738.484
 129542428.887 6                  24651106.813
 116812327.914 7  91022671.09945  22228652.430                    22228661.594
 105775253.812 8  82422427.53746  20128345.656                    20128354.496
 118999475.186 7  92726940.11845  22644852.648                    22644863.012
 111164158.471 8  86621554.23346  21153819.930                    21153826.973
 11  7 28  0 49 30.0000000  0  9G10G17G12G28G05G09G04G27G02
 115312950.064 7  89854368.91845  21943314.836                    21943325.066
 115798635.689 7                  22035739.961
 122491704.864 7                  23309362.141
 121327448.683 7  94540940.30744  23087847.711                    23087857.309
 129437462.359 7                  24631131.734
 116844811.954 7  91047983.30745  22234833.852                    22234842.836
 105811555.980 8  82450714.94646  20135253.359                    20135262.473
 119033500.865 7  92753453.59845  22651328.008                    22651338.117
 111117109.234 8  86584892.52546  21144866.828                    21144873.742
 11  7 28  0 50  0.0000000  0  9G10G17G12G28G05G09G04G27G02
 115238903.102 7  89796670.04845  21929224.281                    21929234.414
 115838444.969 7                  22043315.492
 122398190.222 7                  23291566.781
 121412462.950 7  94607185.12544  23104025.336                    23104034.523
 129332413.373 6                  24611141.875
 116877853.430 7  91073729.90144  22241121.563                    22241130.895
 105848307.115 8  82479352.20446  20142246.961                    20142256.184
 119067919.076 7  92780272.96545  22657876.836                    22657888.230
 111070428.364 8  86548517.85046  21135983.844                    21135990.750
 11  7 28  0 50 30.0000000  0  9G10G17G12G28G05G09G04G27G02
 115165221.066 7  89739255.53345  21915202.914                    21915212.984
 115878349.357 7                  22050909.070
 122304799.291 7                  23273795.820
 121497782.688 7  94673667.95044  23120260.250                    23120270.973
 129227284.419 7                  24591136.438
 116911449.902 7  91099908.94845  22247514.633                    22247524.453
 105885505.041 8  82508337.60346  20149325.641                    20149334.480
 119102727.657 7  92807396.52145  22664500.852                    22664511.637
 111024115.792 8  86512430.17046  21127170.578                    21127177.859
 11  7 28  0 51  0.0000000  0  9G10G17G12G28G05G09G04G27G02
 115091907.091 7  89682127.81745  21901252.125                    21901262.074
 115918349.368 7                  22058521.375
 122211534.148 7                  23256047.875
 121583406.733 7  94740387.89644  23136554.086                    23136564.652
 129122078.075 6                  24571115.516
 116945599.555 7  91126519.04645  22254012.820                    22254022.641
 105923147.964 8  82537669.74746  20156488.773                    20156497.789
 119137925.063 7  92834823.05745  22671198.773                    22671209.617
 110978171.887 8  86476629.75746  21118427.570                    21118434.910
 11  7 28  0 51 30.0000000  0  9G10G17G12G28G05G09G04G27G02
 115018964.236 7  89625289.27245  21887370.789                    21887381.316
 115958445.356 8                  22066150.961
 122118397.330 7                  23238323.578
 121669333.838 7  94807343.98543  23152906.055                    23152916.313
 129016797.088 6                  24551080.617
 116980300.127 7  91153558.42145  22260615.602                    22260626.445
 105961233.651 8  82567346.90646  20163736.156                    20163745.105
 119173509.184 7  92862550.95244  22677970.648                    22677980.633
 110932596.980 8  86441116.87246  21109755.367                    21109762.352
 11  7 28  0 52  0.0000000  0  9G10G17G12G28G05G09G04G27G02
 114946395.231 7  89568742.05845  21873561.617                    21873571.680
 115998637.237 7                  22073799.391
 122025390.915 7                  23220625.258
 121755562.260 7  94874534.91943  23169315.070                    23169324.617
 128911443.528 6                  24531031.406
 117015548.949 7  91181025.00545  22267323.664                    22267333.766
 105999759.549 8  82597367.08446  20171067.297                    20171076.773
 119209477.541 7  92890578.24045  22684815.180                    22684825.102
 110887390.408 8  86405891.00046  21101152.484                    21101159.617
 11  7 28  0 52 30.0000000  0  9G10G17G12G28G05G09G04G27G02
 114874203.940 7  89512489.15645  21859824.109                    21859833.668
 116038926.046 7                  22081465.523
 121932517.496 7                  23202952.305
 121842090.878 7  94941959.75443  23185780.656                    23185790.750
 128806020.507 6                  24510970.102
 117051344.242 7  91208917.41745  22274134.750                    22274146.125
 106038724.329 8  82627729.25046  20178482.313                    20178491.082
 119245828.695 7  92918903.83044  22691732.766                    22691742.941
 110842553.123 8  86370952.88446  21092620.141                    21092627.578
 11  7 28  0 53  0.0000000  0  9G10G17G12G28G05G09G04G27G02
 114802392.851 7  89456532.52145  21846158.805                    21846168.551
 116079311.681 7                  22089151.203
 121839779.164 7                  23185304.633
 121928917.992 6  95009617.17243  23202302.859                    23202313.266
 128700530.372 6                  24490896.953
 117087683.304 7  91237233.53545  22281050.688                    22281060.953
 106078125.222 8  82658431.24046  20185979.953                    20185989.008
 119282560.189 7  92947525.78444  22698722.547                    22698732.352
 110798084.777 8  86336302.24646  21084158.367                    21084165.184
 11  7 28  0 53 30.0000000  0  9G10G17G12G28G05G09G04G27G02
 114730965.568 7  89400874.95445  21832566.680                    21832576.824
 116119794.666 7                  22096854.688
 121747178.136 7                  23167682.922
 122016042.385 7  95077506.18644  23218883.023                    23218893.172
 128594976.089 6                  24470810.398
 117124564.100 7  91265971.79545  22288068.797                    22288078.934
 106117960.438 8  82689471.66546  20193560.258                    20193569.398
 119319670.217 7  92976442.70445  22705783.742                    22705793.980
 110753985.848 8  86301939.46846  21075766.227                    21075773.641
 11  7 28  0 54  0.0000000  0  9G10G17G12G28G05G09G04G27G02
 114659925.013 7  89345518.71845  21819047.906                    21819057.828
 116160375.110 7                  22104577.063
 121654716.920 7                  23150087.984
 122103462.578 7  95145625.75644  23235518.406                    23235528.629
 128489359.961 6                  24450712.320
 117161984.171 7  91295130.26945  22295189.734                    22295199.762
 106158227.744 8  82720848.78246  20201223.102                    20201232.105
 119357156.857 7  93005653.08445  22712917.266                    22712927.945
 110710256.148 8  86267864.40546  21067444.852                    21067452.473
 11  7 28  0 54 30.0000000  0  9G10G17G12G28G05G09G04G27G02
 114589274.413 7  89290466.36145  21805603.211                    21805613.906
 116201053.299 8                  22112317.914
 121562398.073 7                  23132520.586
 122191177.147 7  95213974.70444  23252209.898                    23252219.652
 128383684.567 6                  24430602.688
 117199941.218 7  91324707.15345  22302412.547                    22302422.602
 106198925.081 8  82752560.98846  20208967.445                    20208976.461
 119395017.857 7  93035155.15145  22720121.797                    22720133.227
 110666895.868 8  86234077.19946  21059193.828                    21059200.820
 11  7 28  0 55  0.0000000  0  9G10G17G12G28G05G09G04G27G02
 114519016.749 7  89235720.17545  21792234.328                    21792244.082
 116241829.911 7                  22120077.438
 121470223.597 7                  23114980.781
 122279184.687 7  95282551.94443  23268957.180                    23268967.547
 128277952.676 6                  24410481.766
 117238433.271 7  91354700.94945  22309737.602                    22309747.621
 106240050.229 8  82784606.56046  20216793.375                    20216802.258
 119433251.286 7  93064947.43044  22727397.320                    22727408.324
 110623905.384 8  86200578.15046  21051013.016                    21051019.758
 11  7 28  0 55 30.0000000  0  9G10G17G12G28G05G09G04G27G02
 114449154.685 7  89181282.24845  21778939.422                    21778949.559
 116282704.717 7                  22127856.328
 121378195.455 7                  23097467.742
 122367483.207 7  95351355.91844  23285760.039                    23285769.512
 128172166.743 6                  24390351.953
 117277456.936 7  91385108.99645  22317163.102                    22317173.492
 106281600.581 8  82816983.45146  20224699.953                    20224709.199
 119471854.495 7  93095027.84545  22734742.945                    22734754.109
 110581283.070 8  86167365.98146  21042902.227                    21042909.352
 11  7 28  0 56  0.0000000  0  9G10G17G12G28G05G09G04G27G02
 114379692.288 7  89127155.74445  21765721.289                    21765731.133
 116323678.745 7                  22135652.297
 121286316.989 7                  23079984.117
 122456071.804 7  95420385.93644  23302618.336                    23302628.398
 128066329.767 6                  24370211.641
 117317010.733 7  91415930.13545  22324690.516                    22324700.246
 106323574.802 8  82849690.63646  20232687.398                    20232696.230
 119510826.154 7  93125395.37244  22742159.922                    22742170.055
 110539031.070 8  86134442.38146  21034861.703                    21034868.859
 11  7 28  0 56 30.0000000  0  9G10G17G12G28G05G09G04G27G02
 114310631.871 7  89073342.48245  21752579.750                    21752589.621
 116364752.256 7                  22143468.758
 121194590.218 7                  23062529.414
 122544948.619 7  95489640.52444  23319530.703                    23319541.703
 127960443.957 7                  24350062.555
 117357091.937 7  91447162.24245  22332317.461                    22332327.703
 106365970.241 8  82882726.04346  20240755.070                    20240763.957
 119550163.891 7  93156048.15244  22749645.477                    22749656.000
 110497148.829 8  86101806.90546  21026891.938                    21026899.188
 11  7 28  0 57  0.0000000  0  9G10G17G12G28G05G09G04G27G02
 114241976.571 7  89019844.87745  21739515.039                    21739524.750
 116405925.378 7                  22151304.102
 121103017.695 7                  23045103.320
 122634112.363 6  95559118.66643  23336497.563                    23336508.492
 127854512.053 6                  24329903.742
 117397697.953 7  91478803.31945  22340044.711                    22340054.090
 106408784.787 8  82916088.02146  20248902.695                    20248911.477
 119589865.613 7  93186984.56544  22757200.086                    22757210.160
 110455636.485 8  86069459.65446  21018992.391                    21018999.602
 11  7 28  0 57 30.0000000  0  9G10G17G12G28G05G09G04G27G02
 114173729.716 7  88966665.56745  21726528.211                    21726537.930
 116447199.040 8                  22159158.141
 121011601.362 7                  23027707.555
 122723561.628 6  95628819.29443  23353518.852                    23353529.625
 127748537.084 6                  24309736.961
 117438826.645 7  91510851.67345  22347870.734                    22347880.996
 106452016.531 8  82949775.09146  20257129.109                    20257138.266
 119629929.442 7  93218203.13544  22764824.578                    22764834.168
 110414493.968 8  86037400.58946  21011162.938                    21011170.102
 11  7 28  0 58  0.0000000  0  9G10G17G12G28G05G09G04G27G02
 114105894.273 7  88913806.82545  21713619.211                    21713628.961
 116488573.330 7                  22167031.352
 120920344.076 7                  23010342.266
 122813294.794 7  95698741.18143  23370595.344                    23370605.457
 127642521.870 6                  24289562.664
 117480475.445 7  91543305.31145  22355796.000                    22355806.281
 106495663.465 8  82983785.69346  20265434.945                    20265443.727
 119670353.123 7  93249702.10544  22772516.727                    22772526.965
 110373721.388 8  86005629.78146  21003403.969                    21003411.488
 11  7 28  0 58 30.0000000  0  9G10G17G12G28G05G09G04G27G02
 114038472.534 7  88861270.46245  21700789.297                    21700799.207
 116530048.324 7                  22174923.289
 120829247.605 7                  22993006.727
 122903310.040 7  95768882.88843  23387724.898                    23387734.504
 127536468.654 6                  24269381.117
 117522641.742 7  91576162.19244  22363820.125                    22363830.188
 106539722.537 8  83018117.43546  20273819.008                    20273828.195
 119711134.144 7  93281479.53144  22780276.695                    22780287.395
 110333318.002 8  85974146.66146  20995715.727                    20995722.688
 11  7 28  0 59  0.0000000  0  9G10G17G12G28G05G09G04G27G02
 113971468.401 7  88809059.50845  21688038.797                    21688048.656
 116571624.521 7                  22182835.477
 120738314.786 7                  22975702.805
 122993605.904 6  95839243.19743  23404906.617                    23404918.844
 127430379.900 6                  24249193.320
 117565323.170 7  91609420.47245  22371942.195                    22371952.152
 106584192.046 8  83052768.99946  20282281.234                    20282290.039
 119752270.434 7  93313533.75745  22788104.039                    22788115.648
 110293284.008 8  85942951.39346  20988098.133                    20988104.480
 11  7 28  0 59 30.0000000  0  9G10G17G12G28G05G09G04G27G02
 113904884.512 7  88757176.00445  21675368.109                    21675378.188
 116613302.240 7                  22190766.219
 120647547.901 7                  22958430.477
 123084181.070 6  95909821.15343  23422142.836                    23422154.270
 127324258.719 6                  24228998.109
 117608516.870 7  91643077.92645  22380161.320                    22380171.531
 106629069.491 8  83087738.43646  20290821.086                    20290830.137
 119793759.959 7  93345863.23645  22795999.953                    22796010.551
 110253619.537 8  85912044.05546  20980549.672                    20980556.523
 11  7 28  1  0  0.0000000  0  9G10G17G12G28G05G09G04G27G02
 113838723.408 7  88705621.95145  21662778.117                    21662787.887
 116655081.975 8                  22198716.961
 120556949.507 7                  22941189.578
 123175033.690 6  95980615.26543  23439432.156                    23439443.117
 127218107.541 6                  24208798.477
 117652220.331 7  91677132.59345  22388478.250                    22388488.621
 106674352.785 8  83123024.13146  20299438.336                    20299447.332
 119835600.377 7  93378466.14244  22803962.219                    22803972.727
 110214324.500 8  85881424.59446  20973072.180                    20973079.020
 11  7 28  1  0 30.0000000  0  9G10G17G12G28G05G09G04G27G02
 113772988.892 8  88654400.30845  21650269.289                    21650279.398
 116696964.292 8                  22206687.031
 120466522.596 7                  22923982.445
 123266162.134 7  96051624.38943  23456773.805                    23456783.879
 127111929.345 6                  24188593.430
 117696431.273 7  91711582.70545  22396891.172                    22396901.426
 106720040.173 8  83158624.68846  20308132.211                    20308141.316
 119877789.693 7  93411340.90144  22811990.664                    22812001.387
 110175399.379 8  85851093.36946  20965664.875                    20965671.934
 11  7 28  1  1  0.0000000  0  9G10G17G12G28G05G09G04G27G02
 113707683.889 7  88603513.33145  21637841.867                    21637852.227
 116738949.690 7                  22214676.500
 120376268.884 7                  22906807.094
 123357565.294 7  96122847.60543  23474167.031                    23474175.883
 127005727.130 6                  24168384.000
 117741147.204 7  91746426.31245  22405400.352                    22405410.816
 106766129.199 8  83194538.20646  20316902.750                    20316912.281
 119920325.807 7  93444485.92345  22820085.148                    22820095.461
 110136844.030 8  85821050.28246  20958327.930                    20958335.148
 11  7 28  1  1 30.0000000  0  9G10G17G12G28G05G09G04G27G02
 113642810.781 7  88552962.91645  21625497.266                    21625507.145
 116781038.437 7                  22222685.680
 120286190.757 7                  22889666.063
 123449241.277 6  96194283.37843  23491611.930                    23491622.949
 126899503.102 6                  24148169.719
 117786365.084 7  91781661.05145  22414005.133                    22414015.539
 106812617.569 8  83230762.91146  20325749.359                    20325758.125
 119963206.120 7  93477899.14544  22828245.047                    22828255.199
 110098657.657 8  85791294.70146  20951061.586                    20951068.219
 11  7 28  1  2  0.0000000  0  9G10G17G12G28G05G09G04G27G02
 113578372.599 7  88502751.39245  21613235.313                    21613245.027
 116823230.943 7                  22230714.859
 120196290.747 7                  22872559.031
 123541188.368 6  96265930.35543  23509108.461                    23509119.730
 126793260.013 6                  24127951.266
 117832082.051 7  91817284.66945  22422705.008                    22422714.879
 106859502.583 8  83267296.68046  20334671.078                    20334680.270
 120006428.412 7  93511578.84744  22836469.430                    22836479.918
 110060840.473 8  85761826.79646  20943864.648                    20943871.977
 11  7 28  1  2 30.0000000  0  9G10G17G12G28G05G09G04G27G02
 113514372.491 7  88452881.22745  21601056.289                    21601066.152
 116865527.571 7                  22238763.352
 120106571.630 7                  22855485.789
 123633404.761 6  96337787.16643  23526658.242                    23526668.270
 126687000.662 6                  24107730.969
 117878295.887 7  91853295.46745  22431498.836                    22431509.301
 106906782.332 8  83304138.03746  20343668.289                    20343677.023
 120049990.558 6  93545523.38944  22844758.805                    22844769.570
 110023392.447 8  85732646.54246  20936738.828                    20936745.590
 11  7 28  1  3  0.0000000  0  9G10G17G12G28G05G09G04G27G02
 113450813.002 7  88403354.40445  21588961.055                    21588970.973
 116907928.673 7                  22246831.945
 120017035.365 7                  22838447.242
 123725888.980 7  96409852.67744  23544257.125                    23544268.320
 126580727.812 6                  24087508.242
 117925003.583 7  91889691.08445  22440387.016                    22440397.438
 106954454.320 8  83341285.04546  20352739.664                    20352748.793
 120093890.293 6  93579730.97044  22853112.359                    22853123.234
 109986313.185 8  85703753.64146  20929682.727                    20929689.875
 11  7 28  1  3 30.0000000  0  9G10G17G12G28G05G09G04G27G02
 113387697.457 7  88354173.50545  21576950.805                    21576960.387
 116950434.914 7                  22254920.578
 119927684.789 7                  22821445.016
 123818639.383 6  96482125.67743  23561906.477                    23561916.898
 126474444.321 7                  24067283.125
 117972202.696 7  91926469.60144  22449368.148                    22449379.344
 107002516.758 8  83378736.28146  20361885.875                    20361895.188
 120138125.567 7  93614199.98144  22861530.969                    22861541.219
 109949602.922 8  85675148.27146  20922696.883                    20922703.602
 11  7 28  1  4  0.0000000  0  9G10G17G12G28G05G09G04G27G02
 113325028.329 7  88305340.47345  21565024.945                    21565034.684
 116993046.400 7                  22263029.281
 119838522.084 7                  22804477.547
 123911654.207 6  96554604.72343  23579605.945                    23579617.066
 126368152.829 7                  24047056.070
 118019890.575 7  91963628.97944  22458443.773                    22458453.527
 107050967.183 8  83416489.86546  20371105.453                    20371114.605
 120182693.632 6  93648928.33244  22870011.594                    22870022.617
 109913260.942 8  85646829.87346  20915781.195                    20915788.465
 11  7 28  1  4 30.0000000  0  9G10G17G12G28G05G09G04G27G02
 113262808.828 7  88256857.80345  21553184.680                    21553194.488
 117035763.825 7                  22271158.094
 119749549.848 7                  22787546.539
 124004932.285 6  96627288.85043  23597356.789                    23597367.902
 126261856.127 7                  24026828.328
 118068064.607 7  92001167.18544  22467610.313                    22467620.461
 107099803.355 8  83454544.01246  20380398.695                    20380408.113
 120227592.446 7  93683914.39644  22878556.195                    22878566.422
 109877287.833 8  85618798.90346  20908935.813                    20908942.730
 11  7 28  1  5  0.0000000  0  9G10G17G12G28G05G09G04G27G02
 113201041.591 7  88208727.52945  21541431.078                    21541441.090
 117078587.457 8                  22279307.859
 119660770.712 7                  22770652.391
 124098471.612 6  96700176.52243  23615157.336                    23615167.844
 126155556.851 7                  24006599.742
 118116721.797 7  92039081.87744  22476869.453                    22476879.453
 107149022.788 8  83492896.81246  20389765.000                    20389773.852
 120272819.660 7  93719156.36844  22887162.547                    22887173.031
 109841683.167 8  85591055.02346  20902160.383                    20902167.633
 11  7 28  1  5 30.0000000  0  9G10G17G12G28G05G09G04G27G02
 113139729.825 7  88160952.18345  21529763.945                    21529773.672
 117121518.170 7                  22287476.703
 119572187.282 7                  22753795.602
 124192270.497 6  96773266.49444  23633007.227                    23633017.363
 126049258.121 7                  23986371.523
 118165859.427 7  92077370.93644  22486220.289                    22486230.297
 107198623.621 8  83531546.79846  20399203.578                    20399212.500
 120318373.029 7  93754652.48245  22895830.398                    22895841.473
 109806447.049 8  85563598.33046  20895455.594                    20895462.129
 11  7 28  1  6  0.0000000  0  9G10G17G12G28G05G09G04G27G02
 113078876.303 7  88113533.90045  21518183.648                    21518193.496
 117164556.062 8                  22295666.805
 119483801.727 7                  22736975.875
 124286327.067 6  96846557.24143  23650904.734                    23650915.973
 125942962.490 7                  23966144.219
 118215474.682 7  92116032.16044  22495661.906                    22495671.395
 107248603.352 8  83570492.04446  20408714.367                    20408723.895
 120364250.274 7  93790400.96444  22904561.188                    22904571.066
 109771578.818 8  85536428.30046  20888819.891                    20888826.953
 11  7 28  1  6 30.0000000  0  9G10G17G12G28G05G09G04G27G02
 113018483.444 7  88066474.57745  21506691.094                    21506701.160
 117207701.405 7                  22303877.172
 119395616.669 7                  22720195.297
 124380639.743 6  96920047.54643  23668851.844                    23668863.098
 125836672.616 7                  23945917.875
 118265564.732 7  92155063.35944  22505193.648                    22505203.781
 107298959.370 8  83609730.49846  20418297.375                    20418306.070
 120410448.721 7  93826399.74844  22913351.992                    22913362.266
 109737078.298 8  85509544.78946  20882255.000                    20882261.969
 11  7 28  1  7  0.0000000  0  9G10G17G12G28G05G09G04G27G02
 112958553.951 7  88019776.31545  21495286.813                    21495296.672
 117250954.859 7                  22312107.750
 119307634.325 7                  22703453.180
 124475206.638 6  96993735.95543  23686847.195                    23686858.418
 125730391.465 7                  23925692.984
 118316126.773 7  92194462.32345  22514815.508                    22514825.980
 107349689.613 8  83649260.55846  20427950.820                    20427959.676
 120456966.191 7  93862647.10444  22922203.828                    22922214.109
 109702945.248 8  85482947.63046  20875759.695                    20875766.711
 11  7 28  1  7 30.0000000  0  9G10G17G12G28G05G09G04G27G02
 112899090.827 7  87973441.46745  21483971.383                    21483981.383
 117294316.895 7                  22320359.445
 119219857.410 7                  22686749.344
 124570026.480 6  97067621.50843  23704891.102                    23704901.727
 125624121.825 7                  23905469.742
 118367158.089 7  92234226.95545  22524526.703                    22524536.461
 107400791.975 8  83689080.57546  20437675.148                    20437684.109
 120503800.537 7  93899141.38544  22931116.938                    22931126.953
 109669179.683 8  85456636.81846  20869333.953                    20869340.895
 11  7 28  1  8  0.0000000  0  9G10G17G12G28G05G09G04G27G02
 112840097.005 7  87927472.30745  21472745.258                    21472755.336
 117337787.978 7                  22328631.406
 119132288.414 7                  22670085.094
 124665097.254 6  97141702.56743  23722983.008                    23722993.414
 125517866.431 7                  23885250.039
 118418655.950 7  92274355.14245  22534325.914                    22534336.199
 107452263.920 8  83729188.58046  20447469.742                    20447479.004
 120550949.183 7  93935880.56044  22940088.820                    22940099.344
 109635781.272 8  85430612.10746  20862978.578                    20862985.621
 11  7 28  1  8 30.0000000  0  9G10G17G12G28G05G09G04G27G02
 112781574.661 8  87881870.53645  21461609.016                    21461618.359
 117381368.365 7                  22336925.078
 119044929.883 7                  22653461.539
 124760416.767 6  97215977.43343  23741121.375                    23741132.250
 125411628.024 7                  23865033.016
 118470616.971 7  92314844.23645  22544213.969                    22544224.094
 107504102.924 8  83769582.59546  20457334.688                    20457343.496
 120598409.304 7  93972862.43444  22949119.547                    22949130.992
 109602749.266 8  85404872.90246  20856692.688                    20856699.773
 11  7 28  1  9  0.0000000  0  9G10G17G12G28G05G09G04G27G02
 112723526.816 7  87836638.49145  21450563.008                    21450572.734
 117425058.738 7                  22345238.313
 118957784.212 7                  22636878.055
 124855983.845 6  97290445.21043  23759307.438                    23759318.500
 125305409.727 7                  23844820.836
 118523038.501 7  92355692.15345  22554189.227                    22554199.762
 107556306.969 8  83810261.06646  20467269.172                    20467277.660
 120646178.984 7  94010085.52644  22958210.195                    22958220.984
 109570084.089 8  85379419.53746  20850476.781                    20850483.352
 11  7 28  1  9 30.0000000  0  9G10G17G12G28G05G09G04G27G02
 112665956.462 8  87791778.52245  21439607.539                    21439617.008
 117468859.470 7                  22353573.672
 118870854.156 7                  22620335.734
 124951796.606 6  97365104.42443  23777539.891                    23777550.875
 125199214.180 7                  23824612.383
 118575917.935 7  92396896.87045  22564252.477                    22564262.648
 107608873.823 8  83851222.24046  20477272.047                    20477280.773
 120694255.878 7  94047548.02544  22967358.352                    22967369.871
 109537785.432 8  85354251.78346  20844330.352                    20844337.113
 11  7 28  1 10  0.0000000  0  9G10G17G12G28G05G09G04G27G02
 112608866.289 8  87747292.71345  21428743.047                    21428752.930
 117512771.400 7                  22361930.148
 118784142.041 7                  22603835.664
 125047853.211 6  97439953.64743  23795818.648                    23795829.328
 125093044.351 6                  23804408.180
 118629252.233 7  92438456.05244  22574401.156                    22574411.371
 107661801.365 8  83892464.47546  20487343.656                    20487352.797
 120742637.551 7  94085247.98644  22976565.438                    22976576.352
 109505852.874 8  85329369.29246  20838254.031                    20838261.027
 11  7 28  1 10 30.0000000  0  9G10G17G12G28G05G09G04G27G02
 112552258.433 8  87703182.74745  21417971.219                    21417980.723
 117556794.631 7                  22370307.672
 118697650.289 7                  22587376.219
 125144151.833 7  97514991.48943  23814144.055                    23814154.242
 124986902.502 7                  23784210.383
 118683038.359 7  92480367.29744  22584636.148                    22584646.625
 107715086.852 8  83933985.63246  20497483.234                    20497492.367
 120791321.483 7  94123183.48644  22985829.438                    22985840.324
 109474285.898 8  85304771.67746  20832246.789                    20832253.836
 11  7 28  1 11  0.0000000  0  9G10G17G12G28G05G09G04G27G02
 112496136.029 8  87659451.04745  21407291.828                    21407300.766
 117600929.466 7                  22378706.094
 118611381.598 7                  22570959.695
 125240690.589 6  97590216.52543  23832514.195                    23832524.852
 124880791.949 7                  23764018.031
 118737273.515 7  92522628.44944  22594957.313                    22594967.047
 107768728.113 8  83975784.01146  20507691.203                    20507700.047
 120840305.100 7  94161352.53844  22995151.734                    22995161.605
 109443084.062 8  85280458.58646  20826309.438                    20826316.195
 11  7 28  1 11 30.0000000  0  9G10G17G12G28G05G09G04G27G02
 112440501.276 7  87616099.34245  21396704.516                    21396714.137
 117645176.498 7                  22387125.914
 118525338.483 7                  22554586.672
 125337467.609 6  97665627.13043  23850931.758                    23850941.859
 124774715.351 7                  23743832.773
 118791954.413 7  92565236.94244  22605362.570                    22605372.422
 107822722.473 8  84017857.54046  20517965.781                    20517975.117
 120889585.920 7  94199753.16344  23004529.320                    23004540.383
 109412247.232 8  85256429.92046  20820441.344                    20820448.633
 11  7 28  1 12  0.0000000  0  9G10G17G12G28G05G09G04G27G02
 112385357.140 8  87573129.93745  21386210.648                    21386220.398
 117689536.327 7                  22395566.797
 118439523.447 7                  22538256.188
 125434481.403 6  97741222.22043  23869392.523                    23869403.109
 124668675.681 7                  23723654.266
 118847078.479 7  92608190.76344  22615852.289                    22615861.703
 107877068.115 8  84060204.79046  20528307.703                    20528316.938
 120939161.747 7  94238383.65844  23013963.539                    23013973.957
 109381775.364 8  85232685.63246  20814642.383                    20814649.398
 11  7 28  1 12 30.0000000  0  9G10G17G12G28G05G09G04G27G02
 112330706.142 7  87530544.78445  21375811.125                    21375820.816
 117734009.424 8                  22404029.969
 118353939.232 7                  22521970.023
 125531729.914 6  97817000.21143  23887897.734                    23887909.043
 124562675.803 7                  23703482.352
 118902642.495 7  92651487.39544  22626425.320                    22626435.160
 107931762.507 8  84102823.79646  20538715.648                    20538724.773
 120989029.951 7  94277242.00344  23023452.367                    23023463.438
 109351667.943 8  85209225.33446  20808913.391                    20808920.156
 11  7 28  1 13  0.0000000  0  9G10G17G12G28G05G09G04G27G02
 112276551.155 8  87488346.13545  21365505.875                    21365515.316
 117778596.245 7                  22412514.641
 118268588.114 7                  22505728.219
 125629211.622 6  97892959.94643  23906448.188                    23906458.930
 124456718.553 7                  23683318.258
 118958643.447 7  92695124.49944  22637082.320                    22637091.734
 107986803.246 8  84145712.68946  20549189.375                    20549198.594
 121039188.160 7  94316326.30044  23032997.367                    23033008.746
 109321924.553 8  85186048.69946  20803253.328                    20803260.180
 11  7 28  1 13 30.0000000  0  9G10G17G12G28G05G09G04G27G02
 112222894.558 8  87446535.84045  21355295.313                    21355304.469
 117823297.289 7                  22421021.047
 118183472.721 7                  22489531.250
 125726924.348 6  97969099.64843  23925042.414                    23925053.191
 124350806.725 7                  23663164.711
 119015078.551 7  92739099.89444  22647821.711                    22647831.520
 108042188.080 8  84188869.70546  20559728.602                    20559737.902
 121089633.708 7  94355634.50344  23042596.945                    23042608.359
 109292544.636 8  85163155.27646  20797662.258                    20797669.059
 11  7 28  1 14  0.0000000  0  9G10G17G12G28G05G09G04G27G02
 112169738.869 8  87405115.86645  21345180.109                    21345189.461
 117868113.055 7                  22429549.484
 118098595.626 7                  22473379.836
 125824866.345 6  98045418.06843  23943679.883                    23943690.488
 124244943.229 7                  23643019.594
 119071944.680 7  92783411.15144  22658643.273                    22658653.348
 108097914.662 8  84232293.01246  20570333.047                    20570342.199
 121140364.212 7  94395164.75244  23052250.641                    23052262.078
 109263528.157 8  85140545.06346  20792140.523                    20792147.848
 11  7 28  1 14 30.0000000  0  9G10G17G12G28G05G09G04G27G02
 112117086.251 8  87364087.88845  21335160.141                    21335169.734
 117913043.873 7                  22438099.016
 118013959.176 7                  22457274.297
 125923035.542 6  98121913.45943  23962361.234                    23962371.996
 124139130.668 7                  23622883.070
 119129238.634 7  92828055.77245  22669545.695                    22669555.734
 108153980.402 8  84275980.58946  20581002.102                    20581011.086
 121191376.974 7  94434914.93444  23061958.094                    23061968.797
 109234874.230 8  85118217.36046  20786688.039                    20786695.184
 11  7 28  1 15  0.0000000  0  9G10G17G12G28G05G09G04G27G02
 112064939.697 8  87323454.25645  21325237.484                    21325246.836
 117958090.349 7                  22446671.680
 117929565.984 7                  22441214.555
 126021430.240 6  98198584.59743  23981085.031                    23981096.090
 124033372.240 7                  23602757.477
 119186957.732 7  92873031.66744  22680529.031                    22680539.551
 108210383.146 8  84319930.77346  20591735.281                    20591744.324
 121242669.668 7  94474883.26344  23071719.367                    23071728.758
 109206582.716 8  85096172.06146  20781304.258                    20781310.988
 11  7 28  1 15 30.0000000  0  9G10G17G12G28G05G09G04G27G02
 112013302.029 8  87283217.15745  21315410.945                    21315420.352
 118003253.251 8                  22455265.672
 117845418.919 7                  22425201.547
 126120048.779 6  98275430.18743  23999851.594                    23999862.750
 123927670.887 7                  23582643.336
 119245098.887 7  92918336.44244  22691593.133                    22691602.977
 108267120.891 8  84364141.98946  20602532.016                    20602541.223
 121294240.124 7  94515068.03544  23081532.141                    23081542.949
 109178653.523 8  85074409.09646  20775989.594                    20775996.258
 11  7 28  1 16  0.0000000  0  9G10G17G12G28G05G09G04G27G02
 111962175.330 8  87243378.20845  21305681.734                    21305691.531
 118048533.009 7                  22463882.148
 117761520.394 7                  22409236.469
 126218889.338 6  98352448.72643  24018660.469                    24018670.961
 123822029.487 7                  23562540.875
 119303658.958 7  92963967.65044  22702736.445                    22702746.801
 108324191.269 8  84408612.40346  20613392.492                    20613401.328
 121346085.739 7  94555467.20744  23091398.656                    23091408.957
 109151086.387 8  85052928.24746  20770743.773                    20770750.598
 11  7 28  1 16 30.0000000  0  9G10G17G12G28G05G09G04G27G02
 111911561.926 8  87203939.23945  21296050.195                    21296060.027
 118093929.692 7                  22472521.102
 117677872.669 7                  22393318.969
 126317949.223 6  98429638.17043  24037511.070                    24037522.207
 123716450.484 7                  23542449.805
 119362634.302 7  93009922.47744  22713959.375                    22713969.098
 108381591.066 8  84453339.51446  20624315.164                    20624324.059
 121398203.241 7  94596078.23744  23101315.117                    23101326.809
 109123879.689 8  85031728.25946  20765566.625                    20765573.133
 11  7 28  1 17  0.0000000  0  9G10G17G12G28G05G09G04G27G02
 111861464.467 8  87164902.29545  21286517.016                    21286526.352
 118139444.054 7                  22481181.875
 117594478.614 7                  22377449.094
 126417227.535 6  98506997.80643  24056402.867                    24056414.070
 123610937.256 7                  23522370.508
 119422022.632 7  93056199.07744  22725260.469                    22725270.516
 108439318.943 8  84498322.26846  20635300.523                    20635309.578
 121450590.773 7  94636899.66144  23111284.773                    23111295.926
 109097034.126 8  85010809.66946  20760458.188                    20760464.727
 11  7 28  1 17 30.0000000  0  9G10G17G12G28G05G09G04G27G02
 111811884.980 8  87126268.97745  21277082.570                    21277091.527
 118185076.733 7                  22489865.414
 117511340.544 7                  22361628.758
 126516721.695 6  98584525.68042  24075336.430                    24075347.168
 123505492.561 7                  23502305.555
 119481820.326 7  93102794.66644  22736639.484                    22736649.918
 108497372.203 8  84543558.57246  20646347.359                    20646356.797
 121503245.475 7  94677929.24944  23121304.602                    23121316.305
 109070548.691 8  84990171.69946  20755418.000                    20755424.676
 11  7 28  1 18  0.0000000  0  9G10G17G12G28G05G09G04G27G02
 111762826.447 8  87088041.58546  21267746.656                    21267756.258
 118230828.486 7                  22498572.117
 117428461.306 7                  22345856.914
 126616430.035 6  98662220.47943  24094310.492                    24094321.391
 123400119.279 7                  23482253.695
 119542024.435 7  93149706.94944  22748096.594                    22748105.273
 108555748.503 8  84589046.59546  20657456.117                    20657464.996
 121556165.027 7  94719165.21744  23131375.641                    23131386.539
 109044423.348 8  84969814.32546  20750446.242                    20750453.141
 11  7 28  1 18 30.0000000  0  9G10G17G12G28G05G09G04G27G02
 111714290.723 8  87050221.59446  21258510.719                    21258520.043
 118276699.187 7                  22507300.578
 117345843.306 7                  22330135.336
 126716350.583 6  98740080.60843  24113323.602                    24113335.809
 123294820.324 7                  23462216.047
 119602631.863 7  93196933.52044  22759629.211                    22759639.070
 108614445.621 8  84634784.60346  20668625.844                    20668634.883
 121609346.725 7  94760605.47944  23141495.227                    23141506.281
 109018657.232 8  84949736.86146  20745543.094                    20745549.977
 11  7 28  1 19  0.0000000  0  9G10G17G12G28G05G09G04G27G02
 111666280.380 8  87012810.98446  21249374.648                    21249383.867
 118322689.702 7                  22516052.594
 117263489.108 7                  22314464.125
 126816481.481 6  98818104.60443  24132378.766                    24132389.316
 123189598.450 7                  23442192.820
 119663639.366 7  93244471.81844  22771238.469                    22771248.379
 108673460.685 8  84680770.36646  20679855.938                    20679865.109
 121662787.836 7  94802247.87144  23151664.383                    23151675.066
 108993250.093 8  84929939.12146  20740708.242                    20740715.309
 11  7 28  1 19 30.0000000  0  9G10G17G12G28G05G09G04G27G02
 111618797.754 8  86975811.59545  21240339.031                    21240348.410
 118368800.546 7                  22524827.102
 117181401.460 7                  22298843.203
 126916820.585 6  98896290.90643  24151472.336                    24151483.840
 123084456.781 7                  23422183.828
 119725043.803 7  93292319.40444  22782923.813                    22782934.246
 108732791.962 8  84727002.52846  20691146.469                    20691155.672
 121716485.909 7  94844090.49544  23161883.227                    23161893.289
 108968201.291 8  84910420.60746  20735941.742                    20735948.281
 11  7 28  1 20  0.0000000  0  9G10G17G12G28G05G09G04G27G02
 111571845.155 8  86939225.19346  21231404.383                    21231413.629
 118415031.754 7                  22533624.891
 117099583.048 7                  22283273.469
 127017365.966 6  98974637.88543  24170606.359                    24170616.715
 122979398.044 7                  23402192.492
 119786841.765 7  93340473.64744  22794683.305                    22794694.234
 108792436.482 8  84773478.77946  20702496.156                    20702505.793
 121770438.098 7  94886131.13844  23172150.219                    23172160.207
 108943510.095 8  84891180.74046  20731243.211                    20731249.926
 11  7 28  1 20 30.0000000  0  9G10G17G12G28G05G09G04G27G02
 111525425.076 8  86903053.74246  21222570.656                    21222580.234
 118461384.359 7                  22542444.930
 117018035.873 7                  22267755.898
 127118115.979 6  99053144.28742  24189778.047                    24189789.508
 122874425.327 7                  23382217.313
 119849030.549 7  93388932.42644  22806517.242                    22806528.059
 108852392.305 8  84820197.60446  20713905.672                    20713914.563
 121824642.194 7  94928368.05144  23182464.688                    23182475.043
 108919176.188 8  84872219.27746  20726612.531                    20726619.316
 11  7 28  1 21  0.0000000  0  9G10G17G12G28G05G09G04G27G02
 111479539.915 8  86867299.11645  21213838.961                    21213848.090
 118507858.895 7                  22551288.609
 116936762.744 7                  22252290.125
 127219068.676 6  99131808.69642  24208988.656                    24208999.820
 122769541.601 7                  23362257.969
 119911606.803 7  93437693.13344  22818425.539                    22818436.105
 108912657.398 8  84867157.42046  20725373.664                    20725382.910
 121879095.616 7  94970799.26344  23192826.961                    23192838.020
 108895199.070 8  84853535.83446  20722050.039                    20722056.512
 11  7 28  1 21 30.0000000  0  9G10G17G12G28G05G09G04G27G02
 111434191.544 8  86831962.77746  21205209.648                    21205218.684
 118554455.881 7                  22560155.844
 116855766.114 7                  22236876.922
 127320221.836 6  99210629.36143  24228237.719                    24228248.559
 122664749.577 7                  23342316.844
 119974567.454 7  93486753.37844  22830406.539                    22830416.848
 108973229.088 8  84914356.14146  20736900.508                    20736909.297
 121933795.595 7  95013422.58144  23203236.063                    23203247.363
 108871578.179 8  84835129.97346  20717554.930                    20717561.738
 11  7 28  1 22  0.0000000  0  9G10G17G12G28G05G09G04G27G02
 111389381.971 8  86797046.27746  21196682.695                    21196691.934
 118601175.524 7                  22569046.664
 116775048.679 7                  22221516.672
 127421573.171 6  99289604.41142  24247524.234                    24247535.609
 122560052.192 7                  23322392.500
 120037908.865 7  93536110.31444  22842460.148                    22842470.691
 109034104.732 8  84961791.69446  20748484.438                    20748493.410
 121988739.285 7  95056235.78344  23213691.867                    23213702.770
 108848312.695 8  84817001.04346  20713127.414                    20713134.324
 11  7 28  1 22 30.0000000  0  9G10G17G12G28G05G09G04G27G02
 111345113.988 8  86762551.78346  21188258.273                    21188268.254
 118648018.663 7                  22577960.883
 116694613.384 7                  22206210.359
 127523121.344 6  99368732.81143  24266847.469                    24266859.309
 122455452.737 7                  23302488.852
 120101628.270 7  93585761.80944  22854585.133                    22854595.984
 109095282.549 8  85009462.74246  20760126.438                    20760135.527
 122043924.598 7  95099237.29544  23224192.750                    23224204.051
 108825402.769 8  84799149.18246  20708768.188                    20708774.949
 11  7 28  1 23  0.0000000  0  9G10G17G12G28G05G09G04G27G02
 111301389.473 8  86728480.77846  21179938.156                    21179947.473
 118694985.568 7                  22586898.164
 116614462.398 7                  22190958.141
 127624864.170 5  99448012.80842  24286208.359                    24286220.633
 122350953.735 7                  23282602.664
 120165722.152 7  93635705.11144  22866781.984                    22866791.523
 109156759.714 8  85057367.02646  20771825.133                    20771834.402
 122099348.560 7  95142424.77544  23234739.391                    23234750.395
 108802847.244 8  84781573.47446  20704475.656                    20704482.453
 11  7 28  1 23 30.0000000  0  9G10G17G12G28G05G09G04G27G02
 111258210.994 8  86694835.25545  21171721.859                    21171730.539
 118742077.086 7                  22595859.195
 116534598.409 7                  22175760.141
 127726799.585 6  99527442.95142  24305606.914                    24305618.492
 122246558.265 7                  23262737.000
 120230187.499 7  93685937.87044  22879048.852                    22879059.074
 109218534.415 8  85105503.15346  20783580.141                    20783589.363
 122155008.742 7  95185796.30443  23245331.039                    23245341.898
 108780645.679 8  84764273.58146  20700250.938                    20700257.844
 11  7 28  1 24  0.0000000  0  9G10G17G12G28G05G09G04G27G02
 111215581.180 8  86661617.25946  21163609.234                    21163618.352
 118789294.020 7                  22604844.063
 116455024.460 7                  22160617.695
 127828926.111 6  99607022.12042  24325040.391                    24325051.703
 122142269.880 7                  23242891.133
 120295021.426 7  93736457.83944  22891386.469                    22891396.699
 109280604.506 8  85153869.46346  20795391.289                    20795400.969
 122210903.141 7  95229350.36444  23255967.891                    23255977.750
 108758798.073 8  84747249.50146  20696093.438                    20696099.879
 11  7 28  1 24 30.0000000  0  8G10G17G12G05G09G04G27G02
 111173502.403 8  86628828.63046  21155601.867                    21155611.340
 118836637.333 7                  22613853.391
 116375743.410 7                  22145530.938
 122038091.864 7                  23223067.078
 120360221.295 7  93787262.94844  22903794.078                    22903803.836
 109342968.114 8  85202464.48146  20807258.969                    20807268.074
 122267029.576 7  95273085.27244  23266648.734                    23266658.281
 108737304.341 8  84730501.16446  20692003.164                    20692009.930
 11  7 28  1 25  0.0000000  0  8G10G17G12G05G09G04G27G02
 111131975.242 8  86596469.83146  21147699.695                    21147708.844
 118884106.472 7                  22622886.281
 116296756.800 7                  22130500.922
 121934025.793 7                  23203263.383
 120425782.417 7  93838349.52844  22916270.086                    22916280.000
 109405621.582 8  85251285.36746  20819181.406                    20819190.793
 122323383.703 7  95316997.57544  23277372.594                    23277382.992
 108716162.331 8  84714026.90046  20687980.492                    20687987.281
 11  7 28  1 25 30.0000000  0  8G10G17G12G05G09G04G27G02
 111091002.077 8  86564542.72346  21139902.367                    21139911.551
 118931701.834 7                  22631943.797
 116218067.441 7                  22115526.398
 121830075.042 7                  23183482.156
 120491701.566 7  93889715.08344  22928814.250                    22928823.766
 109468562.739 8  85300330.41546  20831158.719                    20831168.055
 122379963.060 7  95361085.38144  23288138.820                    23288149.773
 108695371.618 8  84697826.36846  20684023.672                    20684030.184
 11  7 28  1 26  0.0000000  0  8G10G17G12G05G09G04G27G02
 111050584.790 8  86533048.76745  21132210.977                    21132220.383
 118979424.298 7                  22641024.984
 116139677.989 7                  22100609.742
 121726242.240 7                  23163723.523
 120557975.594 7  93941357.19445  22941424.969                    22941435.734
 109531789.392 8  85349597.94346  20843190.398                    20843199.605
 122436764.930 7  95405346.55144  23298948.047                    23298959.129
 108674931.757 8  84681899.23346  20680134.289                    20680140.785
 11  7 28  1 26 30.0000000  0  8G10G17G12G05G09G04G27G02
 111010725.593 8  86501989.69846  21124626.305                    21124635.992
 119027274.099 7                  22650130.852
 116061590.775 7                  22085749.555
 121622530.679 7                  23143987.688
 120624601.362 7  93993273.33744  22954103.516                    22954114.770
 109595298.993 8  85399085.94646  20855275.969                    20855285.113
 122493786.794 7  95449779.15244  23309798.852                    23309810.152
 108654841.944 8  84666244.85346  20676311.484                    20676317.910
 11  7 28  1 27  0.0000000  0  8G10G17G12G05G09G04G27G02
 110971426.465 8  86471367.03946  21117147.836                    21117156.789
 119075251.892 7                  22659260.367
 115983808.116 7                  22070948.305
 121518943.262 7                  23124275.734
 120691575.442 7  94045460.88944  22966848.539                    22966859.172
 109659089.301 8  85448792.68146  20867414.922                    20867424.043
 122551026.017 7  95494381.12744  23320690.711                    23320702.641
 108635101.436 8  84650862.67346  20672554.766                    20672561.141
 11  7 28  1 27 30.0000000  0  8G10G17G12G05G09G04G27G02
 110932689.932 8  86441182.76146  21109776.820                    21109785.625
 119123358.453 7                  22668414.992
 115906333.299 7                  22056205.539
 121415482.976 7                  23104587.688
 120758894.799 7  94097917.51144  22979659.414                    22979668.949
 109723158.256 8  85498716.53646  20879606.867                    20879615.957
 122608480.139 6  95539150.55044  23331624.406                    23331635.188
 108615710.118 8  84635752.58346  20668864.805                    20668871.238
 11  7 28  1 28  0.0000000  0  8G10G17G12G05G09G04G27G02
 110894517.844 8  86411438.31645  21102512.500                    21102521.711
 119171594.025 7                  22677593.625
 115829168.731 7                  22041521.203
 121312152.761 7                  23084924.148
 120826556.093 7  94150640.57844  22992534.320                    22992544.590
 109787503.496 8  85548855.68746  20891851.383                    20891860.195
 122666146.435 7  95584085.33644  23342598.133                    23342608.496
 108596666.968 8  84620913.79446  20665241.023                    20665247.270
 11  7 28  1 28 30.0000000  0  8G10G17G12G05G09G04G27G02
 110856911.774 8  86382134.92746  21095356.094                    21095365.523
 119219959.328 7                  22686797.195
 115752316.603 7                  22026896.883
 121208955.469 7                  23065286.703
 120894555.884 7  94203627.40144  23005474.406                    23005484.543
 109852122.534 8  85599208.19746  20904147.852                    20904157.031
 122724022.096 7  95629183.28444  23353611.320                    23353621.668
 108577971.303 8  84606345.77146  20661683.070                    20661689.336
 11  7 28  1 29  0.0000000  0  8G10G17G12G05G09G04G27G02
 110819873.654 8  86353274.09446  21088308.359                    21088317.277
 119268454.751 7                  22696025.375
 115675779.782 7                  22012332.344
 121105894.383 7                  23045675.273
 120962890.950 7  94256875.45644  23018478.109                    23018487.891
 109917013.257 8  85649772.39746  20916496.578                    20916505.492
 122782104.417 7  95674442.24344  23364663.836                    23364674.512
 108559622.553 8  84592048.06146  20658191.461                    20658197.938
 11  7 28  1 29 30.0000000  0  8G10G17G12G05G09G04G27G02
 110783405.452 8  86324857.36346  21081368.461                    21081377.539
 119317081.064 7                  22705278.531
 115599560.768 7                  21997828.633
 121002972.145 7                  23026089.297
 121031557.863 7  94310382.11444  23031545.359                    23031555.047
 109982173.208 8  85700546.38646  20928895.641                    20928904.965
 122840390.930 7  95719860.28044  23375755.258                    23375766.066
 108541620.090 8  84578020.19946  20654765.938                    20654772.211
 11  7 28  1 30  0.0000000  0  8G10G17G12G05G09G04G27G02
 110747508.840 8  86296886.01946  21074538.125                    21074547.020
 119365838.504 7                  22714557.125
 115523661.789 7                  21983385.422
 120900191.677 7                  23006530.531
 121100553.124 7  94364144.63844  23044674.641                    23044684.656
 110047599.901 8  85751528.23846  20941346.055                    20941354.746
 122898878.659 7  95765435.10744  23386885.500                    23386896.676
 108523962.729 8  84564261.23546  20651405.578                    20651412.523
 11  7 28  1 30 30.0000000  0  8G10G17G12G05G09G04G27G02
 110712186.384 8  86269362.06546  21067816.328                    21067825.055
 119414728.001 7                  22723860.750
 115448086.016 7                  21969003.953
 120797556.320 7                  22986999.617
 121169873.902 7  94418160.79044  23057866.453                    23057876.434
 110113291.489 8  85802716.49046  20953846.531                    20953855.621
 122957565.382 6  95811164.98344  23398053.125                    23398064.645
 108506650.566 8  84550771.25646  20648111.258                    20648117.633
 11  7 28  1 31  0.0000000  0  8G10G17G12G05G09G04G27G02
 110677439.559 8  86242286.65746  21061203.727                    21061212.906
 119463749.791 7                  22733189.227
 115372835.645 7                  21954683.930
 120695069.339 7                  22967496.461
 121239516.586 7  94472427.79544  23071118.547                    23071128.926
 110179245.315 8  85854109.08746  20966397.219                    20966406.457
 123016447.985 7  95857047.46344  23409258.547                    23409269.359
 108489682.380 8  84537549.31046  20644882.148                    20644888.555
 11  7 28  1 31 30.0000000  0  8G10G17G12G05G09G04G27G02
 110643270.289 8  86215661.29046  21054701.648                    21054710.539
 119512904.522 7                  22742542.734
 115297913.466 7                  21940426.563
 120592733.097 7                  22948022.828
 121309477.932 7  94526943.08344  23084431.078                    23084442.031
 110245459.167 8  85905704.30646  20978997.188                    20979006.277
 123075523.530 7  95903080.34444  23420500.328                    23420510.855
 108473057.356 8  84524594.75646  20641718.711                    20641725.098
 11  7 28  1 32  0.0000000  0  8G10G17G12G05G09G04G27G02
 110609679.917 8  86189487.01346  21048309.313                    21048318.641
 119562192.671 7                  22751921.875
 115223321.970 7                  21926232.664
 120490550.399 7                  22928577.727
 121379754.403 6  94581703.92444  23097804.531                    23097815.781
 110311930.811 8  85957500.40346  20991646.469                    20991655.734
 123134789.542 7  95949261.61044  23431777.922                    23431788.645
 108456774.910 8  84511907.15046  20638619.891                    20638626.484
 11  7 28  1 32 30.0000000  0  8G10G17G12G05G09G04G27G02
 110576670.444 8  86163765.37546  21042027.875                    21042037.227
 119611614.971 7                  22761327.156
 115149063.850 7                  21912101.383
 120388524.555 7                  22909162.969
 121450342.711 7  94636707.77844  23111237.477                    23111247.441
 110378657.934 8  86009495.56546  21004343.820                    21004353.152
 123194243.332 7  95995589.20544  23443091.711                    23443102.520
 108440834.431 8  84499486.00546  20635586.734                    20635593.207
 11  7 28  1 33  0.0000000  0  8G10G17G12G05G09G04G27G02
 110544243.700 8  86138497.82546  21035857.023                    21035866.488
 119661171.819 7                  22770756.867
 115075141.767 7                  21898034.672
 120286658.861 7                  22889778.453
 121521239.639 7  94691952.14144  23124728.695                    23124738.668
 110445638.560 8  86061688.26846  21017090.063                    21017099.340
 123253882.414 6  96042061.20244  23454440.117                    23454450.676
 108425235.477 8  84487330.98946  20632618.344                    20632624.941
 11  7 28  1 33 30.0000000  0  8G10G17G12G05G09G04G27G02
 110512400.880 8  86113685.26846  21029798.008                    21029806.723
 119710863.492 7                  22780213.242
 115001557.642 7                  21884032.227
 120184955.679 7                  22870425.008
 121592441.395 7  94747434.02044  23138277.531                    23138287.398
 110512869.742 8  86114076.20746  21029884.047                    21029893.156
 123313703.660 6  96088675.10243  23465824.125                    23465834.898
 108409976.216 8  84475440.66746  20629714.781                    20629721.488
 11  7 28  1 34  0.0000000  0  8G10G17G12G05G09G04G27G02
 110481143.580 8  86089328.98346  21023849.766                    21023858.512
 119760690.621 7                  22789695.375
 114928314.117 7                  21870094.367
 120083418.000 7                  22851103.156
 121663944.824 7  94803150.97044  23151884.164                    23151894.520
 110580349.266 8  86166657.66046  21042724.891                    21042734.063
 123373704.337 7  96135428.82344  23477242.219                    23477253.258
 108395056.248 8  84463814.73846  20626875.453                    20626881.969
 11  7 28  1 34 30.0000000  0  8G10G17G12G05G09G04G27G02
 110450474.290 8  86065430.86846  21018013.555                    21018022.410
 119810653.873 7                  22799202.906
 114855414.201 7                  21856222.023
 119982049.161 7                  22831813.117
 121735746.710 7  94859100.51044  23165548.758                    23165557.340
 110648075.100 8  86219431.04846  21055612.547                    21055621.813
 123433881.884 7  96182320.35944  23488693.891                    23488704.508
 108380475.008 8  84452452.75546  20624100.766                    20624107.273
 11  7 28  1 35  0.0000000  0  8G10G17G12G05G09G04G27G02
 110420394.856 8  86041992.38046  21012289.367                    21012298.484
 119860754.015 7                  22808736.422
 114782860.413 7                  21842415.219
 119880852.500 7                  22812555.664
 121807843.925 7  94915280.17644  23179268.258                    23179277.305
 110716045.480 8  86272394.97146  21068546.586                    21068555.953
 123494233.777 7  96229347.76144  23500178.289                    23500189.566
 108366232.115 8  84441354.41946  20621390.391                    20621396.750
 11  7 28  1 35 30.0000000  0  8G10G17G12G05G09G04G27G02
 110390906.176 8  86019014.21046  21006678.117                    21006687.168
 119910991.567 7                  22818296.516
 114710654.955 7                  21828675.242
 119779830.616 7                  22793331.594
 121880232.603 7  94971686.94244  23193042.430                    23193053.645
 110784257.517 8  86325547.20746  21081526.906                    21081536.441
 123554756.955 7  96276508.63944  23511695.453                    23511706.078
 108352326.404 8  84430518.82046  20618744.102                    20618750.461
 11  7 28  1 36  0.0000000  0  8G10G17G12G05G09G04G27G02
 110362009.959 8  85996497.71646  21001179.297                    21001188.445
 119961366.780 7                  22827882.617
 114638800.658 7                  21815001.516
 119678986.647 7                  22774141.703
 121952909.836 7  95028318.51744  23206873.344                    23206883.789
 110852709.193 8  86378886.17946  21094553.133                    21094562.160
 123615448.987 6  96323801.07843  23523244.422                    23523255.492
 108338757.198 8  84419945.42946  20616162.219                    20616168.813
 11  7 28  1 36 30.0000000  0  8G10G17G12G05G09G04G27G02
 110333707.489 8  85974443.87446  20995793.383                    20995802.410
 120011880.258 7                  22837494.961
 114567299.760 8                  21801395.555
 119578323.141 7                  22754985.844
 122025871.803 7  95085171.98644  23220757.625                    23220767.570
 110921397.832 8  86432409.79046  21107623.938                    21107633.063
 123676306.764 6  96371222.70543  23534825.336                    23534835.988
 108325523.398 8  84409633.39246  20613643.891                    20613650.238
 11  7 28  1 37  0.0000000  0  8G10G17G12G05G09G04G27G02
 110306000.563 8  85952854.09145  20990520.781                    20990530.184
 120062532.567 7                  22847134.086
 114496154.994 7                  21787856.930
 119477843.399 7                  22735865.227
 122099115.253 7  95142244.78744  23234694.695                    23234705.668
 110990321.844 8  86486116.80446  21120740.172                    21120748.805
 123737327.688 6  96418771.47343  23546437.453                    23546447.449
 108312624.371 8  84399582.22046  20611188.992                    20611195.609
 11  7 28  1 37 30.0000000  0  8G10G17G12G05G09G04G27G02
 110278890.641 8  85931729.51446  20985361.977                    20985371.363
 120113324.306 7                  22856798.930
 114425368.793 7                  21774386.820
 119377550.392 7                  22716779.750
 122172636.711 7  95199534.20644  23248685.227                    23248695.977
 111059478.504 8  86540005.09746  21133900.094                    21133909.219
 123798508.994 6  96466445.22443  23558079.734                    23558089.957
 108300059.126 8  84389791.14246  20608798.055                    20608804.305
 11  7 28  1 38  0.0000000  0  8G10G17G12G05G09G04G27G02
 110252379.222 8  85911071.30046  20980317.086                    20980326.293
 120164255.976 7                  22866490.711
 114354943.818 8                  21760985.305
 119277447.100 7                  22697730.328
 122246432.667 6  95257037.54344  23262728.797                    23262739.320
 111128865.802 8  86594073.11346  21147103.977                    21147112.836
 123859848.214 6  96514241.98343  23569752.234                    23569763.520
 108287827.189 8  84380259.78146  20606470.648                    20606476.887
 11  7 28  1 38 30.0000000  0  8G10G17G12G05G09G04G27G02
 110226467.440 8  85890880.33246  20975386.055                    20975395.180
 120215327.992 7                  22876209.359
 114284882.223 7                  21747652.844
 119177536.423 7                  22678718.359
 122320499.756 7  95314752.13444  23276822.922                    23276833.559
 111198481.161 8  86648318.83246  21160351.297                    21160360.379
 123921342.142 6  96562159.28844  23581454.531                    23581465.598
 108275927.159 8  84370987.03846  20604205.844                    20604212.043
 11  7 28  1 39  0.0000000  0  8G10G17G12G05G09G04G27G02
 110201156.739 8  85871157.73746  20970569.781                    20970578.711
 120266540.909 7                  22885955.336
 114215186.739 8                  21734390.430
 119077821.228 7                  22659743.250
 122394834.764 7  95372675.49344  23290968.547                    23290978.363
 111268322.510 8  86702740.65946  21173642.023                    21173651.000
 123982988.073 6  96610195.08944  23593184.703                    23593196.152
 108264358.514 8  84361972.53046  20602004.352                    20602011.016
 11  7 28  1 39 30.0000000  0  9G10G17G12G25G05G09G04G27G02
 110176448.707 8  85851904.75646  20965867.883                    20965876.590
 120317895.203 7                  22895727.953
 114145860.104 7                  21721198.250
 129576401.08416                  24657573.492
 118978304.707 7                  22640805.602
 122469434.323 7  95430805.01944  23305164.656                    23305173.973
 111338387.786 8  86757336.96846  21186974.867                    21186983.844
 124044783.430 6  96658347.28044  23604943.813                    23604955.617
 108253120.384 8  84353215.58746  20599865.859                    20599872.313
 11  7 28  1 40  0.0000000  0  9G10G17G12G25G05G09G04G27G02
 110152344.624 8  85833122.38946  20961280.922                    20961289.852
 120369391.466 7                  22905526.844
 114076904.721 7                  21708075.820
 129473080.654 6                  24637912.852
 118878989.901 7                  22621906.633
 122544294.824 7  95489137.85544  23319410.070                    23319420.188
 111408674.683 8  86812105.97246  21200350.250                    21200358.973
 124106725.555 6  96706613.83544  23616731.078                    23616743.027
 108242211.940 8  84344715.52946  20597789.922                    20597796.492
 11  7 28  1 40 30.0000000  0  9G10G17G12G25G05G09G04G27G02
 110128845.950 8  85814811.76646  20956809.461                    20956818.504
 120421030.443 7                  22915353.438
 114008322.744 7                  21695025.586
 129369868.260 6                  24618271.781
 118779879.703 7                  22603046.781
 122619412.700 7  95547671.21944  23333704.297                    23333715.066
 111479180.974 8  86867045.93145  21213766.766                    21213776.023
 124168811.589 6  96754992.53243  23628546.219                    23628557.336
 108231632.263 8  84336471.64746  20595776.844                    20595782.965
 11  7 28  1 41  0.0000000  0  9G10G17G12G25G05G09G04G27G02
 110105953.950 8  85796973.87746  20952452.984                    20952462.172
 120472812.236 7                  22925207.297
 113940116.749 7                  21682046.250
 129266766.253 6                  24598652.117
 118680976.888 7                  22584226.242
 122694784.531 7  95606402.46344  23348046.688                    23348057.254
 111549904.102 8  86922154.85346  21227224.930                    21227234.051
 124231038.462 7  96803480.99843  23640387.320                    23640397.523
 108221379.910 8  84328482.83246  20593825.953                    20593832.223
 11  7 28  1 41 30.0000000  0  9G10G17G12G25G05G09G04G27G02
 110083669.847 8  85779609.67946  20948212.516                    20948221.586
 120524737.781 7                  22935088.563
 113872289.606 8                  21669139.219
 129163777.529 6                  24579054.055
 118582284.536 7                  22565445.500
 122770407.460 7  95665329.38744  23362438.016                    23362448.063
 111620842.542 8  86977431.55046  21240724.242                    21240732.996
 124293403.899 7  96852077.42443  23652255.531                    23652265.762
 108211455.020 8  84320749.20646  20591936.953                    20591943.738
 11  7 28  1 42  0.0000000  0  9G10G17G12G25G05G09G04G27G02
 110061994.826 8  85762720.09146  20944087.891                    20944097.063
 120576807.316 7                  22944997.117
 113804843.444 7                  21656304.609
 129060904.273 6                  24559478.102
 118483805.490 7                  22546705.266
 122846277.724 7  95724449.02444  23376875.125                    23376886.102
 111691993.603 8  87032873.92645  21254264.031                    21254272.789
 124355905.072 7  96900779.61044  23664148.641                    23664159.824
 108201856.150 8  84313269.59046  20590110.625                    20590116.941
 11  7 28  1 42 30.0000000  0  9G10G17G12G25G05G09G04G27G02
 110040929.882 8  85746305.88746  20940079.711                    20940088.234
 120629021.507 7                  22954932.828
 113737780.654 8                  21643542.484
 128958148.827 6                  24539924.039
 118385543.064 7                  22528006.680
 122922391.612 7  95783758.51544  23391359.383                    23391370.238
 111763355.172 8  87088480.33146  21267843.703                    21267852.285
 124418538.816 6  96949585.08844  23676067.813                    23676079.246
 108192582.254 8  84306043.22846  20588345.656                    20588352.055
 11  7 28  1 43  0.0000000  0  9G10G17G12G25G05G09G04G27G02
 110020476.407 8  85730368.15146  20936187.234                    20936196.266
 120681380.692 7                  22964896.664
 113671103.862 7                  21630854.273
 128855513.864 6                  24520393.375
 118287500.146 7                  22509350.031
 122998746.052 7  95843255.43144  23405889.430                    23405899.699
 111834924.993 8  87144249.01546  21281462.789                    21281471.820
 124481302.552 7  96998491.84844  23688011.531                    23688022.730
 108183632.628 8  84299069.53246  20586642.602                    20586648.652
 11  7 28  1 43 30.0000000  0  9G10G17G12G25G05G09G04G27G02
 110000635.633 8  85714907.83546  20932411.727                    20932420.602
 120733885.537 7                  22974887.641
 113604815.310 7                  21618240.258
 128753001.962 6                  24500884.969
 118189679.677 7                  22490734.797
 123075337.761 7  95902937.26244  23420463.984                    23420474.266
 111906701.071 8  87200178.42646  21295121.250                    21295130.406
 124544193.584 6  97047497.79344  23699979.133                    23699990.469
 108175006.503 8  84292347.89346  20585000.883                    20585007.391
 11  7 28  1 44  0.0000000  0  9G10G17G12G25G05G09G04G27G02
 109981408.812 8  85699925.92446  20928752.836                    20928762.137
 120786536.592 7                  22984907.305
 113538918.049 8                  21605700.039
 128650615.470 6                  24481402.883
 118092084.760 7                  22472162.922
 123152163.125 7  95962801.18344  23435083.352                    23435093.172
 111978681.231 8  87256266.84846  21308818.758                    21308827.520
 124607209.115 6  97096600.70944  23711970.297                    23711981.906
 108166702.752 8  84285877.46846  20583420.680                    20583427.152
 11  7 28  1 44 30.0000000  0  9G10G17G12G25G05G09G04G27G02
 109962796.964 8  85685423.21646  20925211.164                    20925220.254
 120839334.156 7                  22994954.609
 113473413.982 7                  21593235.117
 128548356.895 7                  24461943.141
 117994718.222 7                  22453635.172
 123229218.670 6  96022844.42644  23449746.992                    23449756.887
 112050863.082 8  87312512.43246  21322554.109                    21322563.473
 124670346.223 6  97145798.37944  23723984.734                    23723996.645
 108158720.361 8  84279657.44646  20581901.859                    20581908.125
 11  7 28  1 45  0.0000000  0  9G10G17G12G25G05G09G04G27G02
 109944801.071 8  85671400.46746  20921786.969                    20921795.543
 120892278.924 7                  23005028.891
 113408305.956 7                  21580845.484
 128446228.660 7                  24442508.930
 117897582.925 7                  22435150.797
 123306500.868 7  96083064.29444  23464452.844                    23464463.359
 112123244.427 8  87368913.46946  21336328.141                    21336337.492
 124733602.130 6  97195088.64143  23736022.266                    23736033.723
 108151058.413 8  84273687.11346  20580444.102                    20580449.945
 11  7 28  1 45 30.0000000  0  9G10G17G12G25G05G09G04G27G02
 109927422.156 8  85657858.48546  20918479.469                    20918488.809
 120945371.472 7                  23015132.578
 113343595.931 7                  21568531.531
 128344233.294 7                  24423099.609
 117800681.878 7                  22416710.930
 123384006.299 6  96143458.11443  23479201.891                    23479212.246
 112195823.120 8  87425468.28345  21350139.367                    21350148.438
 124796974.132 6  97244469.38243  23748081.859                    23748092.609
 108143715.905 8  84267965.70446  20579046.422                    20579052.688
 11  7 28  1 46  0.0000000  0  9G10G17G12G25G05G09G04G27G02
 109910661.042 8  85644797.90946  20915289.828                    20915299.188
 120998612.170 7                  23025263.531
 113279286.485 7                  21556293.641
 128242373.385 7                  24403716.594
 117704018.128 7                  22398316.664
 123461731.552 6  96204023.20444  23493992.219                    23494002.625
 112268597.174 8  87482175.33146  21363987.695                    21363997.063
 124860459.621 6  97293938.51944  23760162.555                    23760174.273
 108136692.139 8  84262492.66646  20577709.867                    20577716.316
 11  7 28  1 46 30.0000000  0  9G10G17G12G25G05G09G04G27G02
 109894518.878 7  85632219.62646  20912218.383                    20912227.113
 121052001.607 7                  23035423.469
 113215380.025 7                  21544132.891
 128140651.423 7                  24384358.719
 117607594.476 7                  22379967.555
 123539673.276 7  96264757.00944  23508824.516                    23508834.586
 112341564.495 8  87539032.97146  21377873.133                    21377882.371
 124924055.752 7  97343493.89144  23772265.023                    23772275.688
 108129986.087 8  84257267.19246  20576434.031                    20576440.359
 11  7 28  1 47  0.0000000  0  9G10G17G12G25G05G09G04G27G02
 109878996.717 8  85620124.46646  20909264.500                    20909273.301
 121105540.233 7                  23045610.875
 113151878.889 7                  21532048.945
 128039070.054 6                  24365028.617
 117511413.933 7                  22361664.984
 123617827.942 7  96325656.72244  23523696.609                    23523707.340
 112414722.808 8  87596039.44146  21391794.703                    21391803.984
 124987759.718 6  97393133.29343  23784387.273                    23784398.406
 108123596.666 8  84252288.45146  20575217.938                    20575224.582
 11  7 28  1 47 30.0000000  0  9G10G17G12G25G05G09G04G27G02
 109864095.434 8  85608513.10746  20906428.617                    20906437.863
 121159228.475 7                  23055827.867
 113088785.574 7                  21520042.570
 127937631.720 7                  24345725.984
 117415479.657 7                  22343408.758
 123696192.369 7  96386719.87444  23538608.828                    23538619.664
 112488069.978 8  87653193.07945  21405752.250                    21405761.277
 125051568.851 6  97442854.60043  23796529.266                    23796541.367
 108117522.888 8  84247555.66346  20574061.945                    20574068.645
 11  7 28  1 48  0.0000000  0  9G10G17G12G25G05G09G04G27G02
 109849815.910 8  85597386.24146  20903711.430                    20903720.281
 121213066.885 7                  23066072.672
 113026102.696 7                  21508115.094
 127836338.936 7                  24326450.305
 117319794.255 7                  22325201.180
 123774762.702 7  96447943.53944  23553560.570                    23553569.992
 112561604.016 8  87710492.32845  21419745.367                    21419754.520
 125115480.220 6  97492655.60943  23808691.195                    23808703.266
 108111763.742 8  84243068.04846  20572966.055                    20572972.496
 11  7 28  1 48 30.0000000  0  9G10G17G12G25G05G09G04G27G02
 109836159.447 8  85586744.87046  20901112.742                    20901121.547
 121267056.172 7                  23076346.789
 112963832.463 8                  21496264.813
 127735194.630 7                  24307202.961
 117224361.347 7                  22307041.383
 123853535.807 7  96509325.19744  23568550.484                    23568560.324
 112635322.782 8  87767935.52545  21433773.422                    21433782.785
 125179491.453 6  97542534.41943  23820872.609                    23820884.555
 108106318.949 8  84238825.38046  20571930.203                    20571936.152
 11  7 28  1 49  0.0000000  0  9G10G17G12G25G05G09G04G27G02
 109823126.288 8  85576589.18446  20898632.852                    20898641.605
 121321196.817 7                  23086649.398
 112901977.119 7                  21484494.133
 127634200.800 6                  24287983.867
 117129183.163 7                  22288928.555
 123932508.171 6  96570862.07343  23583578.266                    23583588.543
 112709224.085 8  87825520.96345  21447836.484                    21447845.695
 125243599.340 6  97592488.57143  23833072.563                    23833083.156
 108101186.772 8  84234826.30546  20570953.656                    20570959.840
 11  7 28  1 49 30.0000000  0  9G10G17G12G25G05G09G04G27G02
 109810717.574 8  85566920.08846  20896271.391                    20896280.156
 121375489.245 7                  23096981.367
 112840538.898 7                  21472802.906
 127533360.214 6                  24268794.609
 117034262.979 7                  22270865.641
 124011676.376 7  96632551.58143  23598643.602                    23598653.547
 112783305.664 8  87883246.88245  21461933.539                    21461942.809
 125307801.177 7  97642515.95743  23845289.023                    23845300.016
 108096366.345 8  84231070.14946  20570036.195                    20570042.422
 11  7 28  1 50  0.0000000  0  9G10G17G12G25G05G09G04G27G02
 109798934.220 8  85557738.28646  20894029.063                    20894037.590
 121429933.745 7                  23107341.430
 112779520.543 8                  21461191.242
 127432675.609 6                  24249635.102
 116939603.699 7                  22252852.492
 124091037.257 7  96694391.19243  23613745.875                    23613755.836
 112857565.756 8  87941111.89345  21476064.992                    21476074.141
 125372094.481 6  97692614.60743  23857524.047                    23857534.863
 108091856.857 8  84227556.28146  20569177.891                    20569184.539
 11  7 28  1 50 30.0000000  0  9G10G17G12G25G05G09G04G27G02
 109787776.335 8  85549043.86746  20891905.719                    20891914.844
 121484530.592 7                  23117730.727
 112718924.079 7                  21449660.148
 127332149.142 7                  24230505.578
 116845208.139 7                  22234890.070
 124170586.947 7  96756377.97944  23628883.563                    23628893.363
 112932001.889 8  87999114.08645  21490229.586                    21490238.629
 125436475.926 6  97742781.93443  23869775.328                    23869786.328
 108087656.590 8  84224283.36346  20568379.031                    20568384.914
 11  7 28  1 51  0.0000000  0  9G10G17G12G25G05G09G04G27G02
 109777245.149 8  85540837.77646  20889901.375                    20889910.754
 121539280.876 7                  23128149.297
 112658752.463 8                  21438210.359
 127231783.728 7                  24211407.047
 116751079.408 7                  22216977.656
 124250322.448 7  96818509.52344  23644057.188                    23644067.559
 113006612.138 8  88057251.95045  21504427.445                    21504436.426
 125500943.136 6  97793016.07843  23882042.391                    23882054.184
 108083765.502 8  84221251.37546  20567638.273                    20567644.570
 11  7 28  1 51 30.0000000  0  9G10G17G12G25G05G09G04G27G02
 109767341.218 8  85533120.46346  20888016.930                    20888025.531
 121594184.959 6                  23138597.422
 112599007.569 8                  21426841.211
 127131581.842 6                  24192339.242
 116657220.352 7                  22199117.273
 124330240.125 7  96880783.01844  23659264.273                    23659275.512
 113081394.426 8  88115523.88445  21518658.078                    21518667.156
 125565493.385 6  97843314.94043  23894326.656                    23894338.266
 108080182.367 8  84218459.33946  20566956.023                    20566962.801
 11  7 28  1 52  0.0000000  0  9G10G17G12G25G05G09G04G27G02
 109758065.393 8  85525892.57846  20886251.852                    20886260.633
 121649243.347 7                  23149074.406
 112539691.757 8                  21415553.695
 127031546.078 6                  24173303.570
 116563633.842 7                  22181308.125
 124410336.290 7  96943195.59344  23674506.344                    23674516.824
 113156346.781 8  88173928.32045  21532920.563                    21532930.125
 125630123.660 6  97893676.14543  23906625.148                    23906636.766
 108076906.060 8  84215906.39846  20566332.758                    20566339.152
 11  7 28  1 52 30.0000000  0  9G10G17G12G25G05G09G04G27G02
 109749417.657 8  85519154.11446  20884606.055                    20884614.773
 121704455.978 7                  23159581.289
 112480807.240 8                  21404348.133
 126931678.954 7                  24154299.664
 116470322.494 7                  22163551.055
 124490607.736 7  97005744.75844  23689780.313                    23689791.559
 113231466.816 8  88232463.43145  21547215.398                    21547224.965
 125694831.311 6  97944097.63943  23918939.063                    23918950.309
 108073935.092 8  84213591.37646  20565767.352                    20565773.664
 11  7 28  1 53  0.0000000  0  9G10G17G12G25G05G09G04G27G02
 109741399.015 8  85512905.84846  20883080.531                    20883088.863
 121759823.623 7                  23170117.750
 112422356.239 8                  21393225.031
 126831983.197 7                  24135327.797
 116377289.630 7                  22145847.547
 124571051.055 6  97068427.83944  23705088.422                    23705099.746
 113306752.860 8  88291127.88545  21561542.289                    21561551.160
 125759613.569 6  97994577.26243  23931266.766                    23931278.348
 108071268.872 8  84211513.81646  20565260.188                    20565266.773
 11  7 28  1 53 30.0000000  0  9G10G17G12G25G05G09G04G27G02
 109734010.290 7  85507148.43346  20881674.281                    20881683.215
 121815346.859 7                  23180683.320
 112364341.025 8                  21382185.344
 126732461.355 7                  24116388.945
 116284538.120 7                  22128197.453
 124651662.768 6  97131242.13144  23720429.086                    23720439.375
 113382202.684 8  88349919.96045  21575899.594                    21575909.109
 125824467.633 6  98045112.85243  23943607.484                    23943619.270
 108068906.382 8  84209672.94446  20564810.375                    20564816.660
 11  7 28  1 54  0.0000000  0  9G10G17G12G25G05G09G04G27G02
 109727251.911 7  85501882.18946  20880387.859                    20880396.445
 121871026.109 6                  23191278.336
 112306763.998 8                  21371228.813
 126633115.948 7                  24097483.852
 116192070.530 7                  22110601.195
 124732439.438 6  97194184.94743  23735800.594                    23735811.023
 113457814.155 8  88408837.99545  21590288.500                    21590297.207
 125889390.498 6  98095702.07443  23955962.492                    23955973.094
 108066846.175 8  84208067.60546  20564418.406                    20564424.828
 11  7 28  1 54 30.0000000  0  9G10G17G12G25G05G09G04G27G02
 109721124.315 7  85497107.47046  20879222.117                    20879230.570
 121926861.781 6                  23201903.844
 112249627.520 8                  21360356.141
 126533949.663 6                  24078613.406
 116099890.306 7                  22093060.094
 124813377.860 6  97257253.83244  23751202.445                    23751213.227
 113533585.354 8  88467880.49645  21604707.344                    21604715.805
 125954379.629 6  98146342.92943  23968328.906                    23968340.539
 108065087.667 8  84206697.35946  20564083.898                    20564090.051
 11  7 28  1 55  0.0000000  0  9G10G17G12G25G05G09G04G27G02
 109715627.902 7  85492824.58146  20878176.211                    20878184.688
 121982854.402 7                  23212558.570
 112192933.658 8                  21349567.688
 126434965.230 6                  24059777.000
 116008000.132 7                  22075573.914
 124894474.307 6  97320445.83843  23766634.680                    23766644.906
 113609514.451 8  88527046.03445  21619155.727                    21619164.605
 126019432.448 6  98197033.35643  23980708.391                    23980719.535
 108063629.757 8  84205561.33846  20563806.461                    20563812.629
 11  7 28  1 55 30.0000000  0  9G10G17G12G25G05G09G04G27G02
 109710763.403 7  85489034.09446  20877249.992                    20877258.941
 122039004.514 7                  23223243.156
 112136684.769 8                  21338863.977
 126336165.090 7                  24040976.359
 115916402.841 7                  22058143.391
 124975725.690 7  97383758.58344  23782096.336                    23782106.496
 113685599.229 8  88586332.87845  21633634.547                    21633643.465
 126084546.172 6  98247771.25043  23993098.852                    23993111.070
 108062471.453 8  84204658.78246  20563586.008                    20563592.375
 11  7 28  1 56  0.0000000  0  9G10G17G12G25G05G09G04G27G02
 109706531.487 8  85485736.52446  20876444.820                    20876453.582
 122095312.548 7                  23233958.234
 112080883.456 8                  21328245.344
 126237552.037 6                  24022210.500
 115825101.615 7                  22040769.445
 125057128.390 6  97447189.19144  23797586.398                    23797597.652
 113761837.787 8  88645739.55145  21648142.414                    21648151.371
 126149718.097 6  98298554.46443  24005501.727                    24005513.027
 108061611.707 8  84203988.85746  20563422.242                    20563428.602
 11  7 28  1 56 30.0000000  0  9G10G17G12G25G05G09G04G27G02
 109702931.824 8  85482931.61646  20875760.180                    20875768.414
 122151778.879 7                  23244703.648
 112025531.353 8                  21317711.516
 126139128.397 6                  24003480.656
 115734098.990 7                  22023451.938
 125138678.971 6  97510735.00744  23813104.742                    23813116.156
 113838227.923 8  88705264.33945  21662678.797                    21662687.813
 126214945.127 6  98349380.63543  24017913.719                    24017925.723
 108061049.043 8  84203550.43646  20563315.250                    20563321.344
 11  7 28  1 57  0.0000000  0  9G10G17G12G25G05G09G04G27G02
 109699964.928 8  85480619.78346  20875195.500                    20875203.754
 122208403.946 6                  23255479.906
 111970631.114 8                  21307264.539
 126040897.002 6                  23984788.180
 115643397.660 7                  22006191.836
 125220374.292 6  97574393.65243  23828651.352                    23828662.410
 113914767.784 8  88764905.79945  21677243.633                    21677253.121
 126280224.575 6  98400247.67344  24030336.281                    24030347.941
 108060782.579 8  84203342.82346  20563264.727                    20563270.770
 11  7 28  1 57 30.0000000  0  9G10G17G12G25G05G09G04G27G02
 109697631.295 7  85478801.39546  20874751.648                    20874759.977
 122265188.273 6                  23266285.016
 111916184.865 8                  21296904.234
 125942860.411 6                  23966132.063
 115553000.960 7                  21988990.164
 125302211.010 6  97638162.48143  23844223.445                    23844234.613
 113991455.405 8  88824662.39945  21691836.688                    21691845.688
 126345553.929 6  98451153.54943  24042767.758                    24042779.699
 108060811.474 7  84203365.35946  20563269.914                    20563276.043
 11  7 28  1 58  0.0000000  0  9G10G17G12G25G05G09G04G27G02
 109695931.445 8  85477476.86746  20874427.938                    20874436.324
 122322132.466 6                  23277120.625
 111862194.405 8                  21286629.828
 125845021.292 7                  23947514.117
 115462911.794 7                  21971846.688
 125384185.376 6  97702038.51643  23859823.742                    23859834.570
 114068288.815 8  88884532.59445  21706457.797                    21706466.461
 126410930.346 6  98502096.12543  24055208.820                    24055220.355
 108061134.742 8  84203617.26746  20563331.141                    20563337.816
 11  7 28  1 58 30.0000000  0  9G10G17G12G25G05G09G04G27G02
 109694865.816 7  85476646.53446  20874224.953                    20874233.582
 122379236.897 6                  23287987.633
 111808662.252 8                  21276443.016
 125747382.132 6                  23928933.789
 115373132.775 7                  21954762.039
 125466294.343 6  97766019.49244  23875448.742                    23875459.074
 114145266.002 8  88944514.82645  21721105.945                    21721114.926
 126476350.988 6  98553073.14143  24067657.750                    24067669.441
 108061751.127 8  84204097.58546  20563448.891                    20563454.797
 11  7 28  1 59  0.0000000  0  9G10G17G12G25G05G09G04G27G02
 109694434.425 8  85476310.41046  20874142.914                    20874151.344
 122436501.759 6                  23298885.422
 111755590.781 8                  21266343.664
 125649945.830 6                  23910391.898
 115283666.789 7                  21937737.430
 125548534.717 6  97830102.86843  23891098.820                    23891108.762
 114222385.127 8  89004607.65145  21735781.344                    21735790.582
 126541813.376 6  98604082.69543  24080115.125                    24080125.879
 108062659.716 8  84204805.60046  20563621.563                    20563628.063
 11  7 28  1 59 30.0000000  0  9G10G17G12G25G05G09G04G27G02
 109694637.392 8  85476468.59546  20874181.602                    20874190.309
 122493927.686 6                  23309812.688
 111702981.883 8                  21256332.555
 125552714.778 6                  23891889.430
 115194516.635 7                  21920772.883
 125630902.646 6  97894285.62043  23906772.180                    23906782.980
 114299644.178 8  89064809.50945  21750483.305                    21750492.172
 126607314.743 6  98655122.68443  24092579.820                    24092590.402
 108063859.044 8  84205740.17146  20563849.875                    20563856.254
 11  7 28  2  0  0.0000000  0  9G10G17G12G25G05G09G04G27G02
 109695474.804 7  85477121.14246  20874340.742                    20874349.332
 122551515.114 6                  23320771.438
 111650838.040 8                  21246410.156
 125455691.696 7                  23873427.047
 115105685.067 7                  21903868.602
 125713394.705 6  97958565.10743  23922469.875                    23922480.805
 114377041.055 8  89125118.77445  21765211.219                    21765220.121
 126672852.350 6  98706190.92843  24105051.016                    24105062.102
 108065348.272 8  84206900.63646  20564133.133                    20564139.277
 11  7 28  2  0 30.0000000  0  9G10G17G12G25G05G09G04G27G02
 109696946.774 8  85478268.16146  20874620.820                    20874629.516
 122609264.242 6                  23331760.531
 111599160.879 8                  21236576.406
 125358879.291 7                  23855004.063
 115017175.156 7                  21887025.570
 125796007.799 6  98022938.88544  23938190.992                    23938201.953
 114454574.010 8  89185534.06345  21779965.289                    21779974.098
 126738423.243 6  98757285.05343  24117528.633                    24117540.379
 108067126.389 8  84208286.20646  20564471.656                    20564478.184
 11  7 28  2  1  0.0000000  0  9G10G17G12G25G05G09G04G27G02
 109699053.322 8  85479909.64446  20875021.914                    20875030.375
 122667175.619 6                  23342780.328
 111547952.090 8                  21226831.539
 125262279.777 7                  23836621.969
 114928989.271 7                  21870244.281
 125878738.092 6  98087404.00943  23953934.578                    23953944.910
 114532240.792 8  89246053.63045  21794744.797                    21794754.008
 126804024.400 6  98808402.73443  24130012.133                    24130024.020
 108069191.625 8  84209895.50746  20564864.758                    20564870.723
 11  7 28  2  1 30.0000000  0  9G10G17G12G25G05G09G04G27G02
 109701795.085 8  85482046.11346  20875543.383                    20875552.410
 122725249.658 7                  23353832.070
 111497214.797 8                  21217176.250
 125165896.340 6                  23818279.789
 114841130.508 7                  21853525.133
 125961582.980 6  98151958.40643  23969699.211                    23969709.652
 114610039.976 7  89306676.36145  21809549.227                    21809558.473
 126869653.610 6  98859542.32043  24142501.781                    24142513.137
 108071543.756 8  84211728.36546  20565312.211                    20565318.551
 11  7 28  2  2  0.0000000  0  9G10G17G12G25G05G09G04G27G02
 109705171.817 7  85484677.36446  20876186.172                    20876194.816
 122783486.807 6                  23364913.539
 111446950.461 8                  21207611.852
 125069731.433 6                  23799980.914
 114753601.846 7                  21836869.078
 126044538.563 6  98216599.07443  23985484.500                    23985495.520
 114687969.198 8  89367400.42845  21824379.422                    21824388.090
 126935307.986 6  98910701.51843  24154994.883                    24155006.676
 108074181.111 8  84213783.47746  20565813.766                    20565820.020
 11  7 28  2  2 30.0000000  0  9G10G17G12G25G05G09G04G27G02
 109709183.764 8  85487803.58346  20876949.242                    20876958.203
 122841887.495 6                  23376027.383
 111397161.397 8                  21198137.164
 124973787.771 7                  23781723.828
 114666406.219 7                  21820276.031
 126127601.635 6  98281323.50243  24001291.773                    24001301.902
 114766026.949 8  89428224.64945  21839232.805                    21839241.871
 127000984.954 6  98961878.29643  24167492.898                    24167504.660
 108077102.951 8  84216060.27046  20566369.977                    20566376.410
 11  7 28  2  3  0.0000000  0  9G10G17G12G25G05G09G04G27G02
 109713830.567 8  85491424.48846  20877833.695                    20877842.277
 122900452.082 7                  23387171.813
 111347849.553 8                  21188753.094
 124878068.060 7                  23763509.234
 114579546.015 7                  21803747.117
 126210768.544 7  98346128.87043  24017118.070                    24017128.152
 114844210.975 8  89489147.26445  21854110.570                    21854119.684
 127066681.520 6  99013070.39643  24179994.516                    24180005.746
 108080307.795 8  84218557.57446  20566979.789                    20566986.238
 11  7 28  2  3 30.0000000  0  9G10G17G12G25G05G09G04G27G02
 109719112.364 8  85495540.19546  20878838.852                    20878847.383
 122959181.150 6                  23398347.609
 111299016.790 8                  21179460.969
 124782574.735 7                  23745336.820
 114493023.969 7                  21787282.641
 126294035.918 7  98411012.50043  24032963.852                    24032973.297
 114922519.414 8  89550166.82545  21869012.422                    21869021.359
 127132394.825 6  99064275.52643  24192499.516                    24192510.082
 108083794.683 8  84221274.65146  20567643.461                    20567649.883
 11  7 28  2  4  0.0000000  0  9G10G17G12G25G05G09G04G27G02
 109725029.241 7  85500150.77746  20879964.648                    20879972.988
 123018074.748 7                  23409554.828
 111250665.971 8                  21170259.797
 124687310.737 6                  23727207.664
 114406843.278 7                  21770883.234
 126377401.021 7  98475972.34443  24048827.359                    24048836.984
 115000950.654 8  89611282.07145  21883937.227                    21883946.320
 127198122.707 6  99115492.01443  24205006.945                    24205018.344
 108087562.683 8  84224210.78146  20568360.297                    20568366.168
 11  7 28  2  4 30.0000000  0  9G10G17G12G25G05G09G04G27G02
 109731581.223 8  85505256.24646  20881211.516                    20881220.105
 123077133.532 7                  23420793.211
 111202798.258 8                  21161150.781
 124592278.824 7                  23709124.391
 114321006.639 7                  21754548.719
 126460860.114 6  98541005.37643  24064708.109                    24064719.344
 115079502.932 8  89672491.63245  21898885.375                    21898894.148
 127263862.290 6  99166717.61443  24217517.211                    24217528.266
 108091610.829 8  84227365.20446  20569130.445                    20569136.824
 11  7 28  2  5  0.0000000  0  9G10G17G12G25G05G09G04G27G02
 109738767.792 7  85510856.18746  20882579.188                    20882587.438
 123136357.868 7                  23432063.102
 111155415.955 8                  21152134.555
 124497481.417 7                  23691085.547
 114235516.419 8                  21738280.523
 126544409.887 6  98606109.05343  24080607.281                    24080618.395
 115158174.194 7  89733793.90945  21913856.016                    21913865.066
 127329610.874 6  99217950.19143  24230028.867                    24230039.852
 108095937.839 8  84230736.93046  20569954.070                    20569960.172
 11  7 28  2  5 30.0000000  0  9G10G17G12G25G05G09G04G27G02
 109746589.012 8  85516950.66646  20884067.180                    20884075.777
 123195747.911 7                  23443364.289
 111108521.022 8                  21143210.648
 124402921.264 7                  23673091.609
 114150375.792 7                  21722078.797
 126628047.094 6  98671280.84643  24096523.305                    24096534.273
 115236962.574 8  89795187.44545  21928849.070                    21928858.141
 127395365.638 6  99269187.59643  24242540.719                    24242553.148
 108100542.433 8  84234324.95346  20570830.352                    20570836.543
 11  7 28  2  6  0.0000000  0  9G10G17G12G25G05G09G04G27G02
 109755044.974 7  85523539.76046  20885676.227                    20885685.078
 123255304.232 7                  23454698.047
 111062115.463 8                  21134379.539
 124308600.990 7                  23655142.195
 114065587.196 7                  21705943.914
 126711768.262 6  98736518.04443  24112455.273                    24112465.836
 115315866.299 8  89856670.86245  21943864.023                    21943872.914
 127461123.852 6  99320427.69843  24255054.172                    24255066.641
 108105423.352 8  84238128.28346  20571759.016                    20571765.215
 11  7 28  2  6 30.0000000  0  9G10G17G12G25G05G09G04G27G02
 109764135.362 8  85530623.21146  20887406.328                    20887414.887
 123315027.419 7                  23466063.102
 111016201.384 8                  21125642.570
 124214523.250 6                  23637238.563
 113981153.672 8                  21689876.672
 126795570.189 6  98801818.21243  24128401.930                    24128413.559
 115394883.459 8  89918242.66545  21958900.195                    21958909.801
 127526883.059 6  99371668.52643  24267568.250                    24267579.621
 108110579.838 8  84242146.34346  20572739.945                    20572746.793
 11  7 28  2  7  0.0000000  0  9G10G17G12G25G05G09G04G27G02
 109773859.554 8  85538200.52646  20889256.867                    20889265.258
 123374917.549 7                  23477459.117
 110970780.398 8                  21116999.063
 124120690.732 7                  23619384.172
 113897077.703 8                  21673877.609
 126879449.393 6  98867178.62544  24144363.383                    24144374.180
 115474012.308 8  89979901.49745  21973957.813                    21973967.359
 127592640.338 6  99422907.89043  24280082.430                    24280093.277
 108116010.498 8  84246378.04546  20573773.609                    20573779.723
 11  7 28  2  7 30.0000000  0  9G10G17G12G25G05G09G04G27G02
 109784217.476 8  85546271.66346  20891227.875                    20891236.051
 123434975.151 7                  23488888.477
 110925854.568 8                  21108449.789
 124027106.088 7                  23601575.734
 113813361.954 8                  21657946.961
 126963402.508 6  98932596.57143  24160339.227                    24160349.988
 115553251.051 7  90041645.96145  21989036.781                    21989045.547
 127658392.865 6  99474143.52843  24292593.773                    24292605.750
 108121714.153 8  84250822.47146  20574858.953                    20574865.098
 11  7 28  2  8  0.0000000  0  9G10G17G12G25G05G09G04G27G02
 109795209.012 8  85554836.53346  20893319.398                    20893327.918
 123495200.424 7                  23500348.391
 110881425.972 8                  21099995.672
 123933772.071 7                  23583815.086
 113730009.347 8                  21642085.445
 127047426.623 6  98998069.83443  24176329.031                    24176339.367
 115632597.776 7  90103474.58345  22004135.766                    22004144.828
 127724138.105 6  99525373.45443  24305104.531                    24305117.063
 108127689.891 8  84255478.91046  20575996.047                    20576002.164
 11  7 28  2  8 30.0000000  0  9G10G17G12G25G05G09G04G27G02
 109806833.932 8  85563894.94146  20895531.320                    20895539.801
 123555594.001 7                  23511841.188
 110837496.433 8                  21091636.086
 123840691.261 7                  23566101.219
 113647022.537 8                  21626293.383
 127131518.509 6  99063595.93443  24192331.086                    24192341.840
 115712050.693 7  90165385.95245  22019255.195                    22019264.273
 127789873.365 6  99576595.65043  24317613.680                    24317625.816
 108133936.721 8  84260346.59346  20577184.891                    20577190.871
 11  7 28  2  9  0.0000000  0  9G10G17G12G25G05G09G04G27G02
 109819091.604 8  85573446.41046  20897863.789                    20897872.180
 123616156.324 7                  23523365.688
 110794067.659 8                  21083371.781
 123747866.224 7                  23548437.422
 113564404.209 8                  21610571.836
 127215674.529 6  99129171.96843  24208344.672                    24208356.039
 115791608.205 7  90227378.82645  22034394.492                    22034403.477
 127855595.996 6  99627808.01043  24330120.438                    24330132.289
 108140453.289 8  84265424.46846  20578425.000                    20578431.520
 11  7 28  2  9 30.0000000  0  9G10G17G12G25G05G09G04G27G02
 109831981.631 8  85583490.61246  20900316.898                    20900325.148
 123676887.187 7                  23534922.492
 110751141.712 8                  21075203.109
 123655299.710 7                  23530823.141
 113482157.147 8                  21594920.484
 127299891.430 6  99194795.52243  24224371.367                    24224381.855
 115871268.242 7  90289451.58345  22049553.148                    22049562.781
 127921303.334 6  99679008.46543  24342624.992                    24342636.164
 108147237.916 8  84270711.21646  20579715.984                    20579722.109
 11  7 28  2 10  0.0000000  0  9G10G17G12G25G05G09G04G27G02
 109845503.906 8  85594027.48746  20902890.508                    20902898.645
 123737787.011 6                  23546510.969
 110708720.371 8                  21067130.695
 123562994.561 7                  23513258.328
 113400283.542 8                  21579340.266
 127384166.079 6  99260464.01243  24240407.938                    24240418.070
 115951029.405 7  90351603.15045  22064732.000                    22064740.332
 127986992.901 6  99730195.06043  24355125.461                    24355135.980
 108154290.174 8  84276206.51046  20581058.117                    20581064.176
 11  7 28  2 10 30.0000000  0  9G10G17G12G25G05G09G04G27G02
 109859657.875 8  85605056.58246  20905583.672                    20905591.938
 123798856.381 7                  23558132.492
 110666805.444 8                  21059154.383
 123470953.370 7                  23495742.867
 113318786.793 8                  21563832.211
 127468495.223 6  99326175.00143  24256455.305                    24256466.133
 116030889.790 7  90413832.01245  22079928.336                    22079937.238
 128052661.883 6  99781365.57643  24367621.094                    24367632.496
 108161608.893 8  84281909.42846  20582450.617                    20582456.605
 11  7 28  2 11  0.0000000  0  9G10G17G12G25G05G09G04G27G02
 109874443.103 8  85616577.56846  20908396.742                    20908405.340
 123860095.575 6                  23569786.266
 110625398.849 8                  21051275.055
 123379178.845 7                  23478277.789
 113237669.289 8                  21548396.016
 127552875.640 6  99391925.90844  24272512.414                    24272523.672
 116110847.812 7  90476136.96645  22095143.930                    22095152.727
 128118307.695 5  99832518.04043  24380113.977                    24380125.461
 108169193.047 8  84287819.17646  20583893.688                    20583900.137
 11  7 28  2 11 30.0000000  0  9G10G17G12G25G05G09G04G27G02
 109889859.207 8  85628590.15046  20911330.383                    20911338.738
 123921505.050 6                  23581471.016
 110584502.207 8                  21043492.813
 123287673.553 7                  23460865.648
 113156933.492 8                  21533032.055
 127637303.859 6  99457714.06844  24288578.797                    24288589.902
 116190901.473 7  90538516.43845  22110377.414                    22110386.453
 128183927.443 6  99883650.23043  24392600.695                    24392612.160
 108177040.951 8  84293934.45046  20585387.148                    20585393.156
 11  7 28  2 12  0.0000000  0  9G10G17G12G25G05G09G04G27G02
 109905905.411 8  85641093.71346  20914383.617                    20914392.547
 123983084.853 6                  23593189.984
 110544117.277 8                  21035807.781
 123196440.161 7                  23443504.391
 113076581.994 8                  21517741.617
 127721776.657 6  99523536.97143  24304653.422                    24304664.715
 116271049.193 7  90600969.20245  22125629.086                    22125638.160
 128249518.627 6  99934760.16143  24405082.078                    24405093.652
 108185151.626 8  84300254.47546  20586930.461                    20586936.723
 11  7 28  2 12 30.0000000  0  9G10G17G12G25G05G09G04G27G02
 109922581.597 8  85654088.16846  20917557.109                    20917565.816
 124044835.733 6                  23604940.367
 110504246.345 8                  21028220.508
 123105481.593 7                  23426196.297
 112996617.811 8                  21502524.992
 127806290.912 6  99589392.16143  24320736.016                    24320746.715
 116351289.316 7  90663493.98945  22140898.266                    22140907.211
 128315078.756 6  99985845.87743  24417558.281                    24417570.063
 108193524.343 8  84306778.69346  20588523.750                    20588529.664
 11  7 28  2 13  0.0000000  0  9G10G17G12G25G05G09G04G27G02
 109939886.729 8  85667572.71146  20920850.219                    20920858.711
 124106757.786 6                  23616724.070
 110464890.672 8                  21020731.289
 123014800.216 7                  23408939.461
 112917043.138 8                  21487382.281
 127890843.412 6  99655277.17443  24336825.828                    24336836.906
 116431619.845 7  90726089.21445  22156184.844                    22156193.465
 128380604.995 6 100036905.19943  24430026.523                    24430038.793
 108202157.452 8  84313505.80446  20590166.383                    20590172.477
 11  7 28  2 13 30.0000000  0  9G10G17G12G25G05G09G04G27G02
 109957820.259 8  85681546.91246  20924262.719                    20924271.457
 124168851.197 6                  23628540.273
 110426052.005 8                  21013340.445
 122924398.750 7                  23391735.422
 112837860.768 8                  21472314.805
 127975430.831 6  99721189.41043  24352921.859                    24352933.746
 116512039.403 7  90788753.80845  22171487.984                    22171496.496
 128446094.748 6 100087936.14543  24442489.875                    24442501.180
 108211050.169 8  84320435.21146  20591859.070                    20591865.160
 11  7 28  2 14  0.0000000  0  9G10G17G12G25G05G09G04G27G02
 109976381.859 7  85696010.51246  20927794.828                    20927803.797
 124231116.427 6                  23640388.258
 110387732.421 8                  21006048.539
 122834280.221 7                  23374587.680
 112759073.357 8                  21457321.594
 128060049.840 6  99787126.23943  24369024.961                    24369035.816
 116592546.379 7  90851486.51745  22186808.047                    22186817.047
 128511545.786 6 100138936.85143  24454943.914                    24454956.207
 108220201.332 8  84327566.00846  20593600.313                    20593606.359
 11  7 28  2 14 30.0000000  0  9G10G17G12G25G05G09G04G27G02
 109995570.378 8  85710962.62146  20931446.320                    20931455.313
 124293553.683 6                  23652269.383
 110349933.056 8                  20998855.336
 122744446.960 7                  23357493.477
 112680683.230 8                  21442404.594
 128144697.157 6  99853085.16043  24385132.336                    24385143.152
 116673138.774 7  90914285.79445  22202143.852                    22202153.363
 128576955.125 6 100189905.02542  24467391.156                    24467402.918
 108229609.665 8  84334897.19446  20595390.797                    20595396.840
 11  7 28  2 15  0.0000000  0  9G10G17G12G25G05G09G04G27G02
 110015385.350 8  85726402.88646  20935216.906                    20935225.527
 124356163.319 6                  23664184.156
 110312656.016 8                  20991761.781
 122654901.780 7                  23340452.820
 112602693.260 8                  21427563.281
 128229369.855 6  99919063.86843  24401245.992                    24401255.867
 116753814.963 7  90977150.36145  22217496.453                    22217505.516
 128642320.207 6 100240838.82242  24479830.258                    24479841.906
 108239274.084 8  84342427.94246  20597229.672                    20597236.277
 11  7 28  2 15 30.0000000  0  9G10G17G12G25G05G09G04G27G02
 110035826.177 8  85742330.82746  20939106.875                    20939115.434
 124418945.518 6                  23676131.727
 110275902.654 8                  20984768.094
 122565647.309 7                  23323467.281
 112525105.801 8                  21412799.383
 128314064.589 6  99985059.73743  24417362.102                    24417373.066
 116834573.522 7  91040079.11745  22232864.508                    22232873.020
 128707638.339 6 100291736.04542  24492260.133                    24492271.035
 108249193.087 8  84350157.05746  20599117.094                    20599123.211
 11  7 28  2 16  0.0000000  0  8G10G17G12G25G05G09G04G02
 110056892.490 8  85758746.16246  20943115.656                    20943124.031
 124481901.314 6                  23688112.367
 110239675.315 8                  20977874.000
 122476686.425 7                  23306539.750
 112447923.248 8                  21398111.906
 128398778.383 6 100051070.44843  24433482.594                    24433493.895
 116915412.786 7  91103070.75045  22248247.461                    22248256.699
 108259366.114 8  84358084.10946  20601053.133                    20601058.969
 11  7 28  2 16 30.0000000  0  8G10G17G12G25G05G09G04G02
 110078582.953 8  85775647.83746  20947243.242                    20947251.695
 124545029.932 6                  23700124.391
 110203974.917 8                  20971080.641
 122388021.620 7                  23289667.906
 112371148.969 8                  21383502.125
 128483507.800 6 100117093.29343  24449606.383                    24449617.629
 116996331.288 7  91166124.12945  22263645.852                    22263654.816
 108269791.373 8  84366207.71146  20603036.867                    20603042.777
 11  7 28  2 17  0.0000000  0  8G10G17G12G25G05G09G04G02
 110100896.682 7  85793035.17846  20951489.242                    20951497.699
 124608332.081 6                  23712170.492
 110168803.097 8                  20964387.617
 122299655.475 7                  23272852.164
 112294784.606 8                  21368970.391
 128568249.556 6 100183125.78143  24465732.680                    24465743.367
 117077327.075 7  91229237.73945  22279058.711                    22279067.945
 108280468.190 8  84374527.32546  20605068.672                    20605074.813
 11  7 28  2 17 30.0000000  0  8G10G17G12G25G05G09G04G02
 110123833.103 8  85810907.73146  20955853.883                    20955862.117
 124671807.914 6                  23724249.438
 110134161.791 8                  20957795.531
 122211590.693 7                  23256092.813
 112218832.835 8                  21354517.344
 128653000.691 6 100249165.52643  24481860.406                    24481871.379
 117158398.462 7  91292410.25045  22294486.078                    22294495.199
 108291395.400 8  84383042.06146  20607147.758                    20607154.207
 11  7 28  2 18  0.0000000  0  8G10G17G12G25G05G09G04G02
 110147391.472 7  85829264.92546  20960337.133                    20960345.355
 124735457.758 6                  23736361.563
 110100052.452 8                  20951304.625
 122123829.979 7                  23239392.766
 112143296.276 8                  21340143.078
 128737757.985 6 100315210.10043  24497988.734                    24497999.965
 117239544.088 7  91355640.60845  22309927.625                    22309936.211
 108302571.680 8  84391750.86746  20609274.688                    20609280.820
 11  7 28  2 18 30.0000000  0  8G10G17G12G25G05G09G04G02
 110171570.274 7  85848105.57246  20964938.000                    20964946.363
 124799281.671 6                  23748506.664
 110066475.945 8                  20944915.688
 122036375.683 7                  23222751.141
 112068177.179 8                  21325848.508
 128822518.136 6 100381256.87743  24514118.391                    24514129.004
 117320762.042 7  91418927.33045  22325382.883                    22325392.168
 108313995.618 8  84400652.66446  20611448.656                    20611454.465
 11  7 28  2 19  0.0000000  0  8G10G17G12G25G05G09G04G02
 110196369.216 7  85867429.44246  20969657.180                    20969665.664
 124863279.938 6                  23760685.672
 110033434.409 7                  20938627.797
 121949230.777 7                  23206168.117
 111993477.999 8                  21311633.367
 128907278.223 6 100447303.62843  24530246.531                    24530258.336
 117402050.901 7  91482269.29645  22340851.578                    22340860.496
 108325666.385 8  84409746.78546  20613669.320                    20613675.723
 11  7 28  2 19 30.0000000  0  8G10G17G12G25G05G09G04G02
 110221786.869 8  85887235.42846  20974493.672                    20974502.391
 124927452.989 6                  23772897.164
 110000929.109 8                  20932442.188
 121862397.705 7                  23189644.008
 111919201.140 8                  21297499.102
 128992034.969 6 100513347.78543  24546375.586                    24546387.887
 117483409.006 7  91545665.22545  22356333.328                    22356342.379
 108337582.673 8  84419032.22046  20615936.883                    20615943.082
 11  7 28  2 20  0.0000000  0  8G10G17G12G25G05G09G04G02
 110247822.419 7  85907522.89146  20979448.328                    20979456.688
 124991800.872 6                  23785142.727
 109968961.916 7                  20926358.914
 121775879.109 7                  23173179.766
 111845349.396 8                  21283445.656
 129076785.211 6 100579386.87043  24562503.758                    24562515.055
 117564834.880 7  91609113.96545  22371828.195                    22371837.262
 108349743.092 8  84428507.88746  20618251.023                    20618257.320
 11  7 28  2 20 30.0000000  0  8G10G17G12G25G05G09G04G02
 110274475.171 7  85928291.28246  20984520.078                    20984528.449
 125056324.177 7                  23797420.945
 109937534.137 8                  20920378.688
 121689677.988 7                  23156776.031
 111771925.296 8                  21269473.484
 129161525.853 6 100645418.43743  24578629.563                    24578640.922
 117646326.991 7  91672614.30445  22387335.586                    22387344.586
 108362147.215 8  84438173.45746  20620611.141                    20620617.477
 11  7 28  2 21  0.0000000  0  8G10G17G12G25G05G09G04G02
 110301743.991 7  85949539.73246  20989709.133                    20989717.395
 125121022.971 6                  23809732.398
 109906646.921 7                  20914500.844
 121603796.827 7                  23140433.531
 111698931.098 8                  21255583.047
 129246253.525 6 100711439.95943  24594752.102                    24594763.980
 117727883.874 7  91736165.12245  22402855.367                    22402864.211
 108374793.493 8  84448027.71646  20623018.156                    20623024.184
 11  7 28  2 21 30.0000000  0  8G10G17G12G25G05G09G04G02
 110329627.922 7  85971267.48846  20995015.531                    20995023.613
 125185897.410 6                  23822078.039
 109876302.112 8                  20908726.133
 121518238.287 7                  23124152.711
 111626368.988 8                  21241774.828
 129330965.329 6 100777449.04843  24610872.844                    24610884.074
 117809503.979 7  91799765.21045  22418387.500                    22418396.090
 108387680.704 8  84458069.70846  20625470.469                    20625476.492
 11  7 28  2 22  0.0000000  0  8G10G17G12G25G05G09G04G02
 110358125.641 7  85993473.52546  21000438.242                    21000446.621
 125250947.557 6                  23834456.375
 109846500.918 8                  20903054.984
 121433004.950 7                  23107932.898
 111554241.616 8                  21228049.469
 129415658.215 6 100843443.43943  24626989.391                    24626999.891
 117891185.708 7  91863413.31145  22433930.797                    22433939.906
 108400807.613 8  84468298.48846  20627968.242                    20627974.582
 11  7 28  2 22 30.0000000  0  8G10G17G12G25G05G09G04G02
 110387236.179 8  86016157.08845  21005977.805                    21005986.273
 125316173.855 7                  23846868.570
 109817244.929 8                  20897488.156
 121348099.438 7                  23091776.016
 111482551.089 8                  21214407.148
 129500329.254 6 100909420.79043  24643101.883                    24643112.766
 117972927.587 7  91927108.26144  22449486.094                    22449494.887
 108414173.450 8  84478713.43946  20630511.609                    20630517.949
 11  7 28  2 23  0.0000000  0  8G10G17G12G25G05G09G04G02
 110416958.397 8  86039317.27746  21011633.516                    21011641.980
 125381576.372 6                  23859313.461
 109788535.054 8                  20892024.602
 121263524.316 7                  23075681.906
 111411299.640 8                  21200848.125
 129584975.204 6 100975378.57043  24659210.055                    24659220.543
 118054727.885 7  91990848.75045  22465051.703                    22465060.523
 108427776.707 8  84489313.40046  20633100.406                    20633106.371
 11  7 28  2 23 30.0000000  0  8G10G17G12G25G05G09G04G02
 110447290.893 8  86062953.01446  21017405.320                    21017413.895
 125447155.374 6                  23871792.984
 109760372.881 8                  20886665.523
 121179282.236 7                  23059651.047
 111340489.969 8                  21187373.594
 129669592.809 6 101041314.30843  24675312.250                    24675323.137
 118136585.268 7  92054633.72945  22480628.883                    22480637.742
 108441616.128 8  84500097.37746  20635733.938                    20635739.906
 11  7 28  2 24  0.0000000  0  8G10G17G12G25G05G09G04G02
 110478232.825 7  86087063.63245  21023293.773                    21023302.105
 125512910.937 6                  23884305.484
 109732759.773 7                  20881411.070
 121095375.976 7                  23043684.289
 111270124.348 8                  21173983.359
 129754179.213 6 101107225.73543  24691408.164                    24691419.504
 118218498.246 7  92118462.01844  22496216.289                    22496225.262
 108455690.825 8  84511064.68546  20638412.125                    20638418.344
 11  7 28  2 24 30.0000000  0  8G10G17G12G25G05G09G04G02
 110509783.093 7  86111648.27946  21029297.766                    21029305.887
 125578843.297 6                  23896853.031
 109705697.051 8                  20876261.070
 121011808.109 7                  23027781.992
 111200204.841 8                  21160678.086
 129838731.423 6 101173110.53043  24707497.797                    24707509.707
 118300465.529 7  92182332.63144  22511813.648                    22511823.109
 108469999.674 8  84522214.45146  20641135.281                    20641141.645
 11  7 28  2 25  0.0000000  0  8G10G17G12G25G05G09G04G02
 110541940.328 7  86136705.89646  21035416.617                    21035425.207
 125644952.561 6                  23909432.789
 109679186.043 8                  20871215.867
 120928581.249 7                  23011943.547
 111130734.120 8                  21147458.438
 129923246.247 6 101238966.19943  24723580.109                    24723592.020
 118382485.577 7  92246244.34344  22527422.070                    22527431.215
 108484541.510 8  84533545.76046  20643902.102                    20643908.324
 11  7 28  2 25 30.0000000  0  8G10G17G12G25G05G09G04G02
 110574702.996 8  86162235.27046  21041651.383                    21041659.504
 125711239.071 6                  23922046.547
 109653227.860 8                  20866276.344
 120845697.793 7                  22996171.484
 111061714.091 8                  21134324.133
 130007720.533 6 101304790.25843  24739655.234                    24739667.105
 118464556.713 7  92310195.88544  22543039.750                    22543048.613
 108499314.812 8  84545057.43346  20646713.633                    20646719.422
 11  7 28  2 26  0.0000000  0  8G10G17G12G25G05G09G04G02
 110608069.682 7  86188235.30746  21048001.063                    21048009.070
 125777702.999 6                  23934694.938
 109627823.462 8                  20861442.055
 120763160.456 7                  22980465.805
 110993147.146 8                  21121276.172
 130092151.292 6 101370580.42643  24755721.953                    24755733.398
 118546677.454 7  92374186.08044  22558667.133                    22558675.582
 108514318.746 8  84556748.82546  20649568.758                    20649574.566
 11  7 28  2 26 30.0000000  0  8G10G17G12G25G05G09G04G02
 110642039.479 8  86214705.30346  21054465.211                    21054473.715
 125844344.402 6                  23947376.164
 109602974.555 8                  20856713.477
 120680972.072 7                  22964825.641
 110925035.728 8                  21108315.078
 130176535.412 6 101436334.19943  24771780.297                    24771791.223
 118628846.834 7  92438214.16344  22574303.008                    22574311.906
 108529552.289 8  84568619.13446  20652467.578                    20652473.391
 11  7 28  2 27  0.0000000  0  8G10G17G12G25G05G09G04G02
 110676611.246 8  86241644.36046  21061043.945                    21061052.699
 125911163.441 6                  23960090.336
 109578682.169 8                  20852090.984
 120599135.207 7                  22949252.055
 110857381.970 8                  21095441.000
 130260870.253 6 101502049.58643  24787827.727                    24787839.559
 118711063.165 7  92502278.83544  22589948.242                    22589957.406
 108545014.350 8  84580667.51446  20655409.813                    20655416.020
 11  7 28  2 27 30.0000000  0  8G10G17G12G25G05G09G04G02
 110711783.244 8  86269051.13446  21067736.836                    21067745.258
 125978160.215 6                  23972839.945
 109554947.882 8                  20847574.875
 120517652.415 7                  22933746.922
 110790188.148 8                  21082654.563
 130345152.517 6 101567724.01942  24803866.156                    24803878.273
 118793325.078 7  92566379.03144  22605602.594                    22605611.414
 108560703.590 8  84592892.90746  20658395.703                    20658401.199
 11  7 28  2 28  0.0000000  0  8G10G17G12G25G05G09G04G02
 110747554.032 8  86296924.49546  21074543.656                    21074551.953
 126045334.884 6                  23985622.898
 109531771.994 8                  20843164.070
 120436526.147 7                  22918309.258
 110723456.347 8                  21069955.891
 130429379.294 6 101633355.24642  24819894.523                    24819905.074
 118875631.041 7  92630513.53844  22621264.641                    22621273.285
 108576618.906 8  84605294.47746  20661423.953                    20661429.738
 11  7 28  2 28 30.0000000  0  8G10G17G12G25G05G09G04G02
 110783922.341 8  86325263.46346  21081464.695                    21081472.406
 126112687.690 6                  23998440.453
 109509156.346 8                  20838860.750
 120355759.056 7                  22902939.133
 110657188.792 8                  21057345.406
 130513547.446 6 101698940.73043  24835911.422                    24835921.961
 118957979.692 7  92694681.32244  22636935.031                    22636943.602
 108592759.183 8  84617871.32746  20664495.391                    20664501.453
 11  7 28  2 29  0.0000000  0  8G10G17G12G25G05G09G04G02
 110820887.089 8  86354067.17846  21088498.680                    21088506.773
 126180219.025 6                  24011290.750
 109487102.261 8                  20834663.641
 120275354.088 7                  22887638.828
 110591387.962 8                  21044824.172
 130597654.354 6 101764478.55543  24851915.930                    24851927.504
 119040370.216 7  92758881.72744  22652613.813                    22652622.707
 108609123.662 8  84630622.88146  20667609.672                    20667615.492
 11  7 28  2 29 30.0000000  0  7G10G17G12G25G05G04G02
 110858447.366 8  86383334.94645  21095646.148                    21095654.211
 126247929.935 6                  24024175.445
 109465611.349 8                  20830574.086
 120195314.362 7                  22872407.609
 110526056.793 8                  21032391.891
 119122801.704 7  92823114.04344  22668299.492                    22668309.004
 108625711.678 8  84643548.62446  20670766.250                    20670772.031
 11  7 28  2 30  0.0000000  0  7G10G17G12G25G05G04G02
 110896600.638 8  86413064.78546  21102906.414                    21102914.703
 126315818.938 6                  24037094.828
 109444683.125 8                  20826591.633
 120115641.347 7                  22857246.469
 110461196.207 8                  21020049.148
 119205271.532 7  92887376.24344  22683993.719                    22684002.250
 108642520.744 8  84656646.61246  20673964.891                    20673970.664
 11  7 28  2 30 30.0000000  0  7G10G17G12G25G05G04G02
 110935345.603 8  86443255.69546  21110279.055                    21110287.473
 126383886.346 6                  24050047.891
 109424319.137 8                  20822716.703
 120036337.824 7                  22842155.320
 110396808.254 8                  21007796.664
 119287778.579 7  92951667.44344  22699693.602                    22699702.918
 108659550.389 8  84669916.48446  20677205.398                    20677211.387
 11  7 28  2 31  0.0000000  0  7G10G17G12G25G05G04G02
 110974680.627 8  86473906.38245  21117764.523                    21117772.766
 126452132.166 6                  24063034.211
 109404520.281 8                  20818948.742
 119957406.211 7                  22827134.516
 110332894.991 8                  20995634.078
 119370321.586 7  93015986.66144  22715401.250                    22715410.477
 108676799.203 8  84683357.14046  20680487.609                    20680493.574
 11  7 28  2 31 30.0000000  0  7G10G17G12G25G05G04G02
 111014603.953 8  86505015.48046  21125361.703                    21125369.887
 126520556.567 6                  24076055.125
 109385287.665 8                  20815289.063
 119878848.993 7                  22812186.148
 110269458.725 8                  20983562.898
 119452898.941 7  93080332.64644  22731114.883                    22731124.219
 108694266.080 8  84696967.70646  20683811.875                    20683817.152
 11  7 28  2 32  0.0000000  0  7G10G17G12G25G05G04G02
 111055113.885 7  86536581.69046  21133070.555                    21133078.395
 126589159.414 6                  24089109.539
 109366621.941 8                  20811736.828
 119800668.681 7                  22797308.938
 110206501.376 8                  20971582.523
 119535509.435 7  93144704.47144  22746835.289                    22746844.148
 108711949.669 8  84710747.14446  20687176.594                    20687182.484
 11  7 28  2 32 30.0000000  0  7G10G17G12G25G05G04G02
 111096209.010 8  86568603.87445  21140890.281                    21140898.832
 126657940.792 6                  24102198.594
 109348524.379 7                  20808293.375
 119722867.861 7                  22782504.469
 110144025.060 8                  20959693.281
 119618151.718 7  93209101.06244  22762562.000                    22762570.902
 108729849.097 8  84724694.77946  20690582.406                    20690588.590
 11  7 28  2 33  0.0000000  0  7G10G17G12G25G05G04G02
 111137887.663 7  86601080.75746  21148821.898                    21148829.980
 126726901.143 6                  24115320.180
 109330995.684 8                  20804957.680
 119645448.973 7                  22767771.438
 110082031.618 8                  20947896.344
 119700824.574 7  93273521.47444  22778293.789                    22778302.805
 108747963.087 8  84738809.60146  20694029.281                    20694035.855
 11  7 28  2 33 30.0000000  0  7G10G17G12G25G05G04G02
 111180148.529 7  86634011.31145  21156863.438                    21156871.543
 126796040.503 6                  24128477.578
 109314036.699 8                  20801730.359
 119568414.717 7                  22753112.445
 110020523.315 8                  20936191.805
 119783526.690 7  93337964.67144  22794031.563                    22794040.762
 108766290.509 8  84753090.73546  20697517.016                    20697522.938
 11  7 28  2 34  0.0000000  0  7G10G17G12G25G05G04G02
 111222989.744 7  86667394.08145  21165016.023                    21165024.156
 126865358.894 7                  24141668.734
 109297648.476 7                  20798612.031
 119491767.455 7                  22738526.250
 109959502.046 8                  20924579.688
 119866256.762 7  93402429.64544  22809774.531                    22809783.180
 108784830.327 8  84767537.37146  20701044.703                    20701050.801
 11  7 28  2 34 30.0000000  0  7G10G17G12G25G05G04G02
 111266410.246 7  86701228.24745  21173279.023                    21173286.801
 126934856.582 6                  24154893.633
 109281832.320 8                  20795602.188
 119415510.256 7                  22724015.664
 109898970.350 8                  20913061.109
 119949013.938 7  93466915.77644  22825522.305                    22825531.949
 108803582.006 8  84782149.09346  20704613.586                    20704619.582
 11  7 28  2 35  0.0000000  0  7G10G17G12G25G05G04G02
 111310407.426 7  86735511.77545  21181650.883                    21181659.211
 127004533.083 6                  24168152.578
 109266588.648 8                  20792701.086
 119339645.172 7                  22709578.680
 109838929.711 8                  20901635.625
 120031796.791 7  93531421.88544  22841275.734                    22841284.398
 108822543.848 8  84796924.56746  20708221.734                    20708227.363
 11  7 28  2 35 30.0000000  0  7G10G17G12G25G05G04G02
 111354979.383 7  86770243.18146  21190132.656                    21190141.055
 127074388.724 6                  24181445.594
 109251917.937 8                  20789909.742
 119264174.374 7                  22695217.234
 109779381.784 8                  20890303.914
 120114603.488 7  93595946.60444  22857032.922                    22857042.230
 108841714.452 8  84811862.73346  20711869.695                    20711875.820
 11  7 28  2 36  0.0000000  0  7G10G17G12G25G05G04G02
 111400124.874 7  86805421.49345  21198723.500                    21198731.797
 127144423.413 6                  24194771.984
 109237821.526 8                  20787227.227
 119189100.917 7                  22680931.078
 109720328.906 8                  20879066.492
 120197433.473 7  93660489.44044  22872794.633                    22872804.117
 108861093.367 8  84826963.21746  20715557.523                    20715563.430
 11  7 28  2 36 30.0000000  0  7G10G17G12G25G05G04G02
 111445841.842 7  86841045.11845  21207423.172                    21207431.531
 127214637.266 6                  24208133.883
 109224299.805 8                  20784653.945
 119114427.000 7                  22666721.188
 109661772.837 8                  20867923.609
 120280285.237 7  93725049.24844  22888561.336                    22888570.133
 108880679.071 8  84842224.82546  20719284.406                    20719290.234
 11  7 28  2 37  0.0000000  0  7G10G17G12G25G05G04G02
 111492128.687 7  86877112.80045  21216231.180                    21216239.363
 127285030.211 6                  24221529.555
 109211353.588 8                  20782190.664
 119040155.237 7                  22652587.539
 109603715.860 8                  20856875.984
 120363157.696 7  93789625.18944  22904331.633                    22904340.496
 108900470.759 7  84857646.93946  20723050.617                    20723056.547
 11  7 28  2 37 30.0000000  0  7G10G17G12G25G05G04G02
 111538983.862 7  86913623.32745  21225148.039                    21225156.289
 127355602.526 6                  24234958.328
 109198983.946 7                  20779836.250
 118966288.036 7                  22638531.453
 109546159.663 8                  20845923.164
 120446049.706 7  93854216.37644  22920105.055                    22920114.688
 108920467.417 7  84873228.77346  20726855.969                    20726861.508
 11  7 28  2 38  0.0000000  0  7G10G17G12G25G05G04G02
 111586405.204 8  86950575.03846  21234171.570                    21234179.906
 127426354.142 6                  24248421.414
 109187190.995 8                  20777592.289
 118892827.804 7                  22624551.898
 109489105.584 8                  20835065.930
 120528959.905 7  93918821.71244  22935882.617                    22935891.477
 108940667.703 8  84888969.27046  20730699.797                    20730705.688
 11  7 28  2 38 30.0000000  0  8G10G17G12G25G05G29G04G02
 111634390.633 7  86987966.29145  21243302.781                    21243311.102
 127497284.829 6                  24261920.273
 109175975.353 8                  20775458.063
 118819776.920 7                  22610650.930
 109432555.771 8                  20824304.836
 129533611.90416                  24649433.750
 120611887.072 7  93983440.29544  22951663.367                    22951672.059
 108961070.308 8  84904867.42646  20734582.266                    20734588.332
 11  7 28  2 39  0.0000000  0  8G10G17G12G25G05G29G04G02
 111682938.736 7  87025795.99245  21252541.203                    21252549.664
 127568394.600 6                  24275451.242
 109165337.968 8                  20773433.820
 118747137.857 7                  22596828.203
 109376512.123 8                  20813640.141
 129453435.293 6                  24634176.883
 120694830.067 7  94048071.18944  22967446.430                    22967455.879
 108981674.118 8  84920922.36446  20738503.031                    20738509.039
 11  7 28  2 39 30.0000000  0  8G10G17G12G25G05G29G04G02
 111732047.370 8  87064062.47245  21261886.664                    21261895.066
 127639683.692 6                  24289018.297
 109155279.620 8                  20771519.883
 118674913.084 7                  22583084.555
 109320976.240 8                  20803071.953
 129373190.220 6                  24618906.680
 120777787.676 7  94112713.47544  22983232.703                    22983242.559
 109002478.501 8  84937133.58346  20742461.867                    20742467.828
 11  7 28  2 40  0.0000000  0  8G10G17G12G25G05G29G04G02
 111781714.866 7  87102764.43145  21271337.797                    21271346.035
 127711151.790 6                  24302617.750
 109145801.005 7                  20769716.102
 118603105.215 7                  22569420.063
 109265950.635 8                  20792601.102
 129292877.275 6                  24603623.539
 120860758.929 6  94177366.39544  22999021.953                    22999030.996
 109023482.404 8  84953500.27546  20746458.758                    20746465.027
 11  7 28  2 40 30.0000000  0  8G10G17G12G25G05G29G04G02
 111831938.958 7  87141900.08645  21280895.250                    21280903.273
 127782798.998 6                  24316250.766
 109136902.246 7                  20768022.945
 118531716.425 7                  22555835.031
 109211436.314 8                  20782227.258
 129212496.694 6                  24588327.805
 120943742.673 7  94242029.04944  23014813.273                    23014822.109
 109044684.613 7  84970021.49546  20750493.563                    20750499.207
 11  7 28  2 41  0.0000000  0  8G10G17G12G25G05G29G04G02
 111882717.805 7  87181468.02345  21290558.203                    21290566.320
 127854625.340 6                  24329918.336
 109128583.940 8                  20766439.438
 118460749.117 7                  22542330.141
 109157435.150 8                  20771951.172
 129132049.168 6                  24573018.977
 121026737.735 7  94306700.51144  23030607.242                    23030615.586
 109066084.066 8  84986696.41346  20754565.906                    20754571.273
 11  7 28  2 41 30.0000000  0  8G10G17G12G25G05G29G04G02
 111934049.304 7  87221466.58745  21300326.234                    21300334.223
 127926630.641 6                  24343622.406
 109120846.466 7                  20764967.359
 118390205.729 7                  22528906.273
 109103948.941 8                  20761773.172
 129051535.197 6                  24557697.789
 121109742.969 6  94371379.91244  23046402.414                    23046410.789
 109087679.711 8  85003524.19646  20758675.102                    20758681.035
 11  7 28  2 42  0.0000000  0  8G10G17G12G25G05G29G04G02
 111985931.595 7  87261894.34945  21310198.805                    21310206.996
 127998814.929 6                  24357358.867
 109113690.463 8                  20763605.258
 118320088.597 7                  22515563.180
 109050979.177 8                  20751693.266
 128970955.117 6                  24542365.102
 121192757.191 7  94436066.33044  23062198.859                    23062208.074
 109109470.253 8  85020503.84946  20762821.828                    20762827.656
 11  7 28  2 42 30.0000000  0  8G10G17G12G25G05G29G04G02
 112038362.330 7  87302749.47645  21320176.039                    21320184.758
 128071177.874 6                  24371128.602
 109107116.101 7                  20762354.438
 118250399.856 7                  22502301.938
 108998527.522 8                  20741712.047
 128890309.606 6                  24527018.188
 121275779.134 6  94500758.74644  23077997.734                    23078006.699
 109131454.387 7  85037634.35646  20767005.234                    20767010.891
 11  7 28  2 43  0.0000000  0  8G10G17G12G25G05G29G04G02
 112091339.577 7  87344030.45345  21330257.570                    21330265.688
 128143719.475 6                  24384932.320
 109101124.607 8                  20761214.297
 118181142.095 7                  22489122.383
 108946595.852 8                  20731829.672
 128809599.379 7                  24511659.469
 121358807.986 7  94565456.53444  23093797.898                    23093806.621
 109153631.605 7  85054915.30946  20771225.742                    20771231.422
 11  7 28  2 43 30.0000000  0  8G10G17G12G25G05G29G04G02
 112144861.180 7  87385735.59645  21340441.922                    21340450.609
 128216439.689 6                  24398770.852
 109095715.446 8                  20760185.125
 118112317.448 7                  22476025.461
 108895185.585 8                  20722046.383
 128728825.085 7                  24496288.680
 121441842.424 6  94630158.69744  23109597.938                    23109607.324
 109176000.596 7  85072345.69646  20775482.070                    20775487.902
 11  7 28  2 44  0.0000000  0  8G10G17G12G25G05G29G04G02
 112198925.306 7  87427863.48745  21350730.328                    21350738.441
 128289338.580 6                  24412643.445
 109090889.614 8                  20759266.617
 118043928.491 7                  22463011.344
 108844298.456 8                  20712363.023
 128647987.115 6                  24480905.039
 121524881.581 6  94694864.51244  23125400.375                    23125409.328
 109198560.398 7  85089924.77046  20779774.891                    20779780.902
 11  7 28  2 44 30.0000000  0  8G10G17G12G25G05G29G04G02
 112253529.464 7  87470412.17845  21361120.875                    21361129.441
 128362415.865 6                  24426549.227
 109086647.053 8                  20758459.266
 117975977.291 7                  22450081.297
 108793935.841 8                  20702779.273
 128567086.020 6                  24465510.711
 121607924.314 6  94759573.11344  23141202.938                    23141211.758
 109221309.715 8  85107651.51246  20784104.211                    20784109.848
 11  7 28  2 45  0.0000000  0  8G10G17G12G25G05G29G04G02
 112308671.777 7  87513380.21545  21371614.602                    21371622.871
 128435671.573 6                  24440489.008
 109082988.475 8                  20757762.945
 117908466.290 7                  22437233.734
 108744099.386 8                  20693295.742
 128486122.552 6                  24450103.352
 121690969.334 6  94824283.53144  23157005.734                    23157014.895
 109244247.717 7  85125525.28546  20788468.961                    20788474.738
 11  7 28  2 45 30.0000000  0  8G10G17G12G25G05G29G04G02
 112364350.393 7  87556766.15745  21382209.711                    21382218.363
 128509105.658 6                  24454463.563
 109079913.817 8                  20757177.977
 117841397.753 7                  22424470.805
 108694790.891 8                  20683912.648
 128405097.308 6                  24434684.211
 121774016.055 6  94888995.25444  23172808.570                    23172818.176
 109267373.485 8  85143545.38046  20792869.570                    20792875.469
 11  7 28  2 46  0.0000000  0  8G10G17G12G25G05G29G04G02
 112420563.160 7  87600568.31645  21392906.703                    21392915.117
 128582717.990 7                  24468471.680
 109077423.810 7                  20756704.141
 117774774.091 7                  22411792.742
 108646011.891 8                  20674630.438
 128324010.928 6                  24419255.063
 121857063.488 7  94953707.53044  23188612.703                    23188621.973
 109290686.050 8  85161711.02246  20797306.313                    20797311.625
 11  7 28  2 46 30.0000000  0  8G10G17G12G25G05G29G04G02
 112477307.521 7  87644784.70145  21403704.859                    21403712.930
 128656508.253 6                  24482512.727
 109075518.297 8                  20756341.344
 117708597.429 7                  22399199.680
 108597763.533 8                  20665448.891
 128242864.020 6                  24403813.117
 121940110.121 7  95018419.19144  23204415.508                    23204424.684
 109314184.079 7  85180021.17746  20801777.445                    20801783.305
 11  7 28  2 47  0.0000000  0  8G10G17G12G25G05G29G04G02
 112534581.261 7  87689413.60145  21414603.578                    21414611.578
 128730476.380 6                  24496589.023
 109074197.692 7                  20756090.406
 117642869.974 7                  22386692.750
 108550047.458 8                  20656368.742
 128161657.041 6                  24388360.375
 122023155.280 7  95083129.71644  23220218.359                    23220227.586
 109337866.636 7  85198475.12946  20806284.195                    20806289.953
 11  7 28  2 47 30.0000000  0  8G10G17G12G25G05G29G04G02
 112592382.584 7  87734453.60145  21425602.977                    21425611.410
 128804622.355 6                  24510697.445
 109073462.347 8                  20755950.586
 117577594.340 7                  22374271.156
 108502865.348 8                  20647390.617
 128080390.978 6                  24372894.875
 122106198.118 6  95147838.41144  23236020.844                    23236029.598
 109361732.950 8  85217072.27346  20810825.789                    20810831.625
 11  7 28  2 48  0.0000000  0  7G10G12G25G05G29G04G02
 112650709.559 7  87779903.21345  21436702.000                    21436710.473
 109073312.645 8                  20755921.758
 117512773.037 7                  22361935.656
 108456219.135 8                  20638514.016
 127999066.920 6                  24357419.836
 122189237.960 6  95212544.77744  23251823.141                    23251831.387
 109385782.256 7  85235812.00246  20815402.258                    20815407.902
 11  7 28  2 48 30.0000000  0  7G10G12G25G05G29G04G02
 112709559.592 7  87825760.38745  21447900.664                    21447909.043
 109073748.802 8                  20756004.586
 117448407.916 7                  22349687.680
 108410109.659 8                  20629739.609
 127917685.093 6                  24341932.727
 122272273.443 7  95277247.73244  23267624.055                    23267632.879
 109410013.255 8  85254693.32246  20820012.898                    20820018.781
 11  7 28  2 49  0.0000000  0  7G10G12G25G05G29G04G02
 112768930.106 7  87872023.12945  21459198.789                    21459206.883
 109074770.232 8                  20756199.484
 117384500.926 7                  22337526.234
 108364538.316 8                  20621067.375
 127836245.812 6                  24326434.414
 122355303.214 7  95341946.24943  23283423.961                    23283432.914
 109434424.635 7  85273715.19346  20824658.586                    20824664.398
 11  7 28  2 49 30.0000000  0  7G10G12G25G05G29G04G02
 112828818.562 7  87918689.46745  21470594.914                    21470603.039
 109076377.136 7                  20756505.164
 117321054.114 7                  22325452.773
 108319506.009 8                  20612498.227
 127754749.922 6                  24310927.297
 122438326.288 7  95406639.56243  23299223.148                    23299231.402
 109459015.237 8  85292876.71746  20829337.813                    20829343.395
 11  7 28  2 50  0.0000000  0  7G10G12G25G05G29G04G02
 112889223.339 7  87965758.13245  21482089.859                    21482097.945
 109078569.732 7                  20756922.281
 117258069.933 7                  22313467.344
 108275014.527 8                  20604031.813
 127673197.991 7                  24295408.891
 122521341.959 6  95471327.08843  23315020.398                    23315029.293
 109483784.434 8  85312177.40446  20834051.367                    20834057.344
 11  7 28  2 50 30.0000000  0  7G10G12G25G05G29G04G02
 112950142.290 7  88013227.45645  21493682.352                    21493690.566
 109081349.088 8                  20757451.094
 117195550.991 7                  22301570.430
 108231065.431 8                  20595668.297
 127591591.333 6                  24279879.313
 122604349.632 6  95536008.38343  23330816.344                    23330825.414
 109508731.785 8  85331616.91146  20838798.672                    20838804.652
 11  7 28  2 51  0.0000000  0  7G10G12G25G05G29G04G02
 113011571.774 7  88061094.60845  21505371.578                    21505379.617
 109084712.903 8                  20758091.078
 117133498.316 7                  22289762.070
 108187659.032 8                  20587408.391
 127509929.516 6                  24264339.570
 122687347.489 6  95600682.03744  23346610.328                    23346619.301
 109533854.713 8  85351193.23546  20843579.500                    20843585.086
 11  7 28  2 51 30.0000000  0  7G10G12G25G05G29G04G02
 113073510.046 7  88109358.20645  21517158.609                    21517166.281
 109088662.461 8                  20758842.758
 117071914.527 7                  22278043.219
 108144797.124 8                  20579252.234
 127428213.751 6                  24248789.969
 122770335.052 6  95665347.66244  23362401.945                    23362411.352
 109559152.942 8  85370906.15346  20848393.289                    20848399.234
 11  7 28  2 52  0.0000000  0  7G10G12G25G05G29G04G02
 113135954.684 7  88158016.38345  21529040.703                    21529049.285
 109093197.647 8                  20759705.977
 117010801.843 7                  22266413.750
 108102481.207 8                  20571199.625
 127346444.812 6                  24233229.625
 122853311.270 7  95730004.43844  23378192.383                    23378201.074
 109584625.653 8  85390755.02846  20853240.531                    20853246.738
 11  7 28  2 52 30.0000000  0  7G10G12G25G05G29G04G02
 113198904.009 7  88207067.82845  21541019.797                    21541028.207
 109098318.780 8                  20760680.453
 116950162.718 8                  22254874.383
 108060712.443 8                  20563251.258
 127264623.716 6                  24217659.836
 122936275.715 6  95794652.03444  23393980.219                    23393988.574
 109610272.161 8  85410739.33946  20858121.109                    20858127.047
 11  7 28  2 53  0.0000000  0  7G10G12G25G05G29G04G02
 113262355.536 7  88256510.59045  21553094.117                    21553102.426
 109104025.588 8                  20761766.211
 116889998.982 8                  22243425.469
 108019492.093 8                  20555407.375
 127182751.103 6                  24202079.156
 123019227.178 6  95859289.52244  23409764.594                    23409774.309
 109636091.260 8  85430858.13446  20863034.336                    20863040.328
 11  7 28  2 53 30.0000000  0  7G10G12G25G05G29G04G02
 113326306.326 7  88306342.39245  21565263.531                    21565272.121
 109110317.981 8                  20762963.797
 116830312.716 8                  22232067.719
 107978821.276 8                  20547668.086
 127100827.577 6                  24186489.680
 123102164.872 6  95923916.28843  23425547.203                    23425556.766
 109662081.961 8  85451110.63246  20867980.078                    20867986.063
 11  7 28  2 54  0.0000000  0  7G10G12G25G05G29G04G02
 113390753.762 7  88356561.18745  21577527.695                    21577535.438
 109117195.336 8                  20764272.516
 116771105.749 8                  22220801.000
 107938700.889 8                  20540033.414
 127018853.885 7                  24170890.477
 123185087.723 6  95988531.47844  23441326.820                    23441336.102
 109688243.082 8  85471495.93546  20872958.297                    20872964.289
 11  7 28  2 54 30.0000000  0  7G10G12G25G05G29G04G02
 113455696.090 7  88407165.61545  21589886.008                    21589893.855
 109124657.733 8                  20765692.445
 116712380.276 8                  22209625.867
 107899132.298 8                  20532503.555
 126936830.911 6                  24155282.016
 123267994.913 6  96053134.45044  23457103.789                    23457113.285
 109714573.770 8  85492013.36346  20877968.844                    20877974.531
 11  7 28  2 55  0.0000000  0  7G10G12G25G05G29G04G02
 113521130.337 7  88458153.36045  21602337.203                    21602345.430
 109132705.089 8                  20767223.609
 116654138.330 8                  22198542.773
 107860116.406 8                  20525079.313
 126854759.264 6                  24139664.609
 123350885.615 6  96117724.58644  23472877.141                    23472886.535
 109741072.998 8  85512662.11846  20883011.602                    20883017.457
 11  7 28  2 55 30.0000000  0  7G10G12G25G05G29G04G02
 113587053.600 7  88509522.15145  21614882.211                    21614890.293
 109141336.626 8                  20768866.367
 116596381.392 8                  22187552.047
 107821654.075 8                  20517759.898
 126772639.538 6                  24124037.242
 123433758.482 6  96182300.84243  23488647.992                    23488657.430
 109767739.167 8  85533440.97146  20888085.844                    20888091.984
 11  7 28  2 56  0.0000000  0  7G10G12G25G05G29G04G02
 113653464.188 7  88561270.68045  21627520.133                    21627528.238
 109150552.611 8                  20770620.164
 116539112.187 8                  22176654.117
 107783746.949 8                  20510546.281
 126690473.276 6                  24108401.258
 123516613.255 6  96246862.97544  23504413.961                    23504423.633
 109794572.433 8  85554350.01646  20893192.266                    20893198.234
 11  7 28  2 56 30.0000000  0  7G10G12G25G05G29G04G02
 113720360.331 7  88613397.56345  21640249.844                    21640257.945
 109160353.213 8                  20772485.047
 116482333.124 8                  22165849.297
 107746396.597 8                  20503438.641
 126608261.349 6                  24092756.766
 123599449.606 6  96311410.74444  23520177.266                    23520186.914
 109821572.427 8  85575388.98746  20898330.367                    20898335.883
 11  7 28  2 57  0.0000000  0  7G10G12G25G05G29G04G02
 113787739.386 7  88665900.73545  21653071.273                    21653079.324
 109170738.342 8                  20774461.250
 116426046.104 8                  22155138.266
 107709603.557 8                  20496437.523
 126526004.478 6                  24077103.891
 123682266.671 6  96375943.49643  23535936.750                    23535946.738
 109848737.840 8  85596556.85046  20903499.422                    20903505.191
 11  7 28  2 57 30.0000000  0  7G10G12G25G05G29G04G02
 113855597.346 7  88718777.08245  21665984.531                    21665992.695
 109181706.493 8                  20776548.547
 116370251.978 8                  22144520.969
 107673368.363 8                  20489541.766
 126443702.773 6                  24061441.859
 123765062.525 6  96440459.73543  23551692.578                    23551701.910
 109876066.419 8  85617851.85146  20908699.859                    20908705.820
 11  7 28  2 58  0.0000000  0  7G10G12G25G05G29G04G02
 113923932.225 7  88772025.04945  21678987.797                    21678996.266
 109193257.734 8                  20778746.484
 116314953.138 8                  22133997.711
 107637692.090 8                  20482753.023
 126361357.335 6                  24045772.617
 123847836.879 6  96504959.18643  23567444.023                    23567453.234
 109903557.869 8  85639273.77046  20913931.453                    20913936.875
 11  7 28  2 58 30.0000000  0  7G10G12G25G05G29G04G02
 113992741.710 7  88825642.85645  21692081.633                    21692090.164
 109205391.981 8                  20781055.750
 116260151.508 8                  22123569.352
 107602575.488 7                  20476070.891
 126278969.154 6                  24030094.656
 123930588.965 6  96569441.32443  23583191.313                    23583200.898
 109931211.211 8  85660821.83046  20919193.719                    20919199.383
 11  7 28  2 59  0.0000000  0  7G10G12G25G05G29G04G02
 114062023.666 7  88879628.80045  21705266.094                    21705274.000
 109218108.744 8                  20783475.430
 116205849.398 8                  22113236.063
 107568020.304 8                  20469494.727
 126196539.241 6                  24014408.609
 124013318.198 7  96633905.63643  23598934.688                    23598943.746
 109959026.104 8  85682495.78146  20924486.625                    20924492.309
 11  7 28  2 59 30.0000000  0  7G10G12G25G05G29G04G02
 114131775.172 7  88933980.64145  21718539.352                    21718547.301
 109231407.901 8                  20786006.063
 116152048.431 8                  22102998.359
 107534026.957 8                  20463025.930
 126114068.355 6                  23998713.953
 124096023.839 7  96698351.60143  23614672.867                    23614681.410
 109987001.406 8  85704294.71946  20929810.172                    20929816.012
 11  7 28  3  0  0.0000000  0  7G10G12G25G05G29G04G02
 114201993.593 7  88988696.30445  21731901.414                    21731909.453
 109245288.477 8                  20788647.836
 116098750.514 8                  22092855.602
 107500596.418 7                  20456664.492
 126031557.357 6                  23983013.813
 124178705.037 7  96762778.51743  23630407.000                    23630415.316
 110015136.214 8  85726217.95446  20935163.992                    20935170.102
 11  7 28  3  0 30.0000000  0  7G10G12G25G05G29G04G02
 114272676.497 7  89043773.89545  21745351.945                    21745360.375
 109259749.785 8                  20791399.797
 116045957.521 8                  22082809.758
 107467729.380 8                  20450410.234
 125949007.250 6                  23967304.727
 124261360.998 7  96827185.76743  23646134.984                    23646143.691
 110043429.421 8  85748264.61646  20940548.031                    20940553.051
 11  7 28  3  1  0.0000000  0  7G10G12G25G05G29G04G02
 114343821.313 7  89099211.42545  21758890.180                    21758898.254
 109274792.305 8                  20794262.117
 115993671.201 8                  22072859.398
 107435426.908 8                  20444262.617
 125866418.805 7                  23951588.227
 124343990.870 7  96891572.67643  23661859.641                    23661868.191
 110071880.310 8  85770434.15346  20945962.219                    20945968.047
 11  7 28  3  1 30.0000000  0  7G10G12G25G05G29G04G02
 114415425.562 7  89155006.95445  21772516.141                    21772524.156
 109290414.724 8                  20797235.016
 115941893.431 8                  22063006.859
 107403689.369 8                  20438223.500
 125783792.904 6                  23935864.898
 124426594.029 7  96955938.78143  23677578.344                    23677586.523
 110100487.773 8  85792725.68546  20951406.297                    20951411.469
 11  7 28  3  2  0.0000000  0  7G10G12G25G05G29G04G02
 114487486.477 7  89211158.33045  21786228.969                    21786237.039
 109306616.772 8                  20800317.875
 115890626.068 8                  22053251.117
 107372517.936 8                  20432291.914
 125701130.708 6                  23920135.359
 124509169.842 7  97020283.58043  23693291.531                    23693300.016
 110129251.275 8  85815138.81246  20956879.297                    20956885.570
 11  7 28  3  2 30.0000000  0  7G10G12G25G05G29G04G02
 114560001.120 7  89267663.25445  21800028.266                    21800036.324
 109323397.549 8                  20803511.484
 115839870.675 8                  22043592.688
 107341913.416 8                  20426467.766
 125618432.567 6                  23904397.984
 124591717.380 7  97084606.32443  23709000.188                    23709009.113
 110158169.542 8  85837672.53046  20962382.578                    20962388.242
 11  7 28  3  3  0.0000000  0  7G10G12G25G05G29G04G02
 114632967.357 7  89324520.07145  21813912.727                    21813921.000
 109340756.684 8                  20806814.641
 115789629.499 8                  22034031.898
 107311876.481 8                  20420752.203
 125535700.136 6                  23888654.938
 124674236.274 7  97148906.74543  23724702.781                    23724711.867
 110187242.220 8  85860326.56246  20967914.766                    20967920.766
 11  7 28  3  3 30.0000000  0  7G10G12G25G05G29G04G02
 114706382.549 7  89381726.71745  21827883.367                    21827891.469
 109358694.022 8                  20810228.039
 115739904.281 8                  22024569.523
 107282408.138 7                  20415143.938
 125452934.560 7                  23872904.859
 124756726.059 6  97213184.46143  23740399.820                    23740408.906
 110216468.903 8  85883100.61346  20973476.453                    20973481.938
 11  7 28  3  4  0.0000000  0  7G10G12G25G05G29G04G02
 114780243.022 7  89439280.33845  21841938.461                    21841946.438
 109377208.023 8                  20813751.156
 115690695.701 8                  22015205.250
 107253508.047 7                  20409644.875
 125370135.719 7                  23857148.953
 124839184.900 6  97277438.08143  23756091.438                    23756100.625
 110245846.970 8  85905992.62646  20979066.805                    20979072.727
 11  7 28  3  4 30.0000000  0  7G10G12G25G05G29G04G02
 114854546.547 7  89497179.20345  21856077.852                    21856086.066
 109396298.105 8                  20817384.180
 115642006.120 8                  22005940.242
 107225177.280 8                  20404253.516
 125287305.369 7                  23841386.688
 124921612.681 6  97341667.48143  23771777.109                    23771785.793
 110275376.421 8  85929002.59846  20984686.242                    20984691.910
 11  7 28  3  5  0.0000000  0  7G10G12G25G05G29G04G02
 114929291.260 7  89555421.84345  21870301.484                    21870309.484
 109415964.015 8                  20821125.852
 115593837.689 8                  21996773.875
 107197417.060 7                  20398970.906
 125204444.387 7                  23825618.789
 125004009.262 6  97405872.55843  23787456.430                    23787466.020
 110305057.047 8  85952130.36346  20990334.109                    20990339.766
 11  7 28  3  5 30.0000000  0  7G10G12G25G05G29G04G02
 115004473.960 7  89614005.77245  21884608.250                    21884616.332
 109436205.155 8                  20824977.938
 115546191.590 8                  21987707.227
 107170227.553 7                  20393796.891
 125121553.497 7                  23809845.383
 125086373.543 6  97470052.46943  23803130.047                    23803139.023
 110334887.423 8  85975374.81846  20996010.539                    20996016.535
 11  7 28  3  6  0.0000000  0  7G10G12G25G05G29G04G02
 115080091.554 7  89672928.57845  21898997.586                    21899005.773
 109457020.118 8                  20828938.750
 115499069.261 8                  21978739.648
 107143608.937 8                  20388731.742
 125038633.849 7                  23794066.016
 125168704.540 6  97534206.46443  23818797.016                    23818806.129
 110364866.366 8  85998735.04446  21001715.477                    21001721.555
 11  7 28  3  6 30.0000000  0  7G10G12G25G05G29G04G02
 115156141.933 7  89732188.62645  21913469.602                    21913477.730
 109478408.436 8                  20833009.023
 115452472.886 8                  21969873.023
 107117562.290 8                  20383775.313
 124955686.766 6                  23778281.414
 125251002.297 6  97598334.53143  23834458.484                    23834467.055
 110394993.831 8  86022211.00546  21007448.445                    21007454.465
 11  7 28  3  7  0.0000000  0  7G10G12G25G05G29G04G02
 115232622.275 7  89791783.70445  21928023.180                    21928031.746
 109500369.597 8                  20837188.164
 115406404.095 8                  21961106.000
 107092088.487 8                  20378927.781
 124872713.154 6                  23762491.609
 125333266.003 6  97662436.11143  23850111.852                    23850121.988
 110425269.049 8  86045802.09646  21013209.336                    21013215.246
 11  7 28  3  7 30.0000000  0  7G10G12G25G05G29G04G02
 115309529.486 7  89851711.41045  21942658.016                    21942666.285
 109522902.249 8                  20841475.852
 115360863.893 8                  21952440.258
 107067187.291 8                  20374188.805
 124789713.794 6                  23746697.352
 125415494.601 6  97726510.30143  23865760.039                    23865769.383
 110455690.359 8  86069507.02146  21018998.453                    21019004.195
 11  7 28  3  8  0.0000000  0  7G10G12G25G05G29G04G02
 115386861.003 7  89911969.74545  21957374.070                    21957382.402
 109546005.961 8                  20845872.430
 115315854.370 8                  21943875.297
 107042859.534 8                  20369559.664
 124706689.912 6                  23730898.430
 125497688.062 6  97790557.08343  23881400.547                    23881410.297
 110486257.733 8  86093325.76046  21024815.508                    21024821.371
 11  7 28  3  8 30.0000000  0  7G10G12G25G05G29G04G02
 115464614.139 7  89972556.61245  21972170.133                    21972178.047
 109569679.654 8                  20850377.250
 115271376.904 8                  21935411.539
 107019105.783 8                  20365039.336
 124623642.484 7                  23715095.109
 125579845.500 6  97854575.82444  23897035.180                    23897044.258
 110516970.042 8  86117257.44246  21030659.859                    21030665.520
 11  7 28  3  9  0.0000000  0  7G10G12G25G05G29G04G02
 115542786.418 7  90033470.08145  21987045.883                    21987054.172
 109593922.235 8                  20854990.375
 115227432.977 8                  21927049.328
 106995926.350 8                  20360628.367
 124540572.553 7                  23699287.289
 125661966.305 6  97918566.02243  23912662.773                    23912671.055
 110547826.391 8  86141301.36646  21036531.594                    21036537.324
 11  7 28  3  9 30.0000000  0  7G10G12G25G05G29G04G02
 115621374.878 7  90094707.84245  22001999.883                    22002008.477
 109618732.735 8                  20859711.859
 115184024.115 8                  21918788.477
 106973321.372 8                  20356326.758
 124457481.098 6                  23683475.352
 125744049.914 6  97982527.25243  23928282.367                    23928291.488
 110578825.992 8  86165456.91646  21042430.414                    21042436.496
 11  7 28  3 10  0.0000000  0  7G10G12G25G05G29G04G02
 115700377.019 7  90156267.96545  22017034.086                    22017042.375
 109644110.907 8                  20864540.781
 115141152.203 8                  21910630.492
 106951291.607 8                  20352134.414
 124374369.523 6                  23667659.445
 125826096.094 7  98046459.30743  23943895.109                    23943903.934
 110609968.694 8  86189723.97146  21048356.508                    21048362.668
 11  7 28  3 10 30.0000000  0  7G10G12G25G05G29G04G02
 115779789.817 7  90218148.07245  22032145.531                    22032153.895
 109670055.326 8                  20869477.961
 115098818.172 8                  21902574.492
 106929837.453 8                  20348052.086
 124291238.402 6                  23651840.867
 125908103.802 6  98110361.37244  23959500.016                    23959510.262
 110641252.997 8  86214101.36546  21054310.078                    21054315.715
 11  7 28  3 11  0.0000000  0  7G10G12G25G05G29G04G02
 115859610.546 7  90280346.05645  22047335.359                    22047343.223
 109696564.754 8                  20874522.711
 115057023.843 8                  21894621.242
 106908959.053 8                  20344079.078
 124208089.424 7                  23636018.258
 125990072.711 7  98174233.21343  23975098.844                    23975107.852
 110672678.529 8  86238588.81046  21060290.211                    21060295.977
 11  7 28  3 11 30.0000000  0  7G10G12G25G05G29G04G02
 115939836.215 7  90342859.56345  22062601.820                    22062609.824
 109723638.324 8                  20879674.867
 115015770.499 8                  21886771.172
 106888656.761 8                  20340215.688
 124124923.514 7                  23620191.938
 126072002.261 6  98238074.39143  23990689.102                    23990699.031
 110704244.429 8  86263185.62946  21066296.492                    21066302.684
 11  7 28  3 12  0.0000000  0  7G10G12G25G05G29G04G02
 116020463.463 7  90405685.99245  22077944.563                    22077952.621
 109751274.286 8                  20884933.672
 114975058.910 8                  21879023.750
 106868930.295 8                  20336461.516
 124041741.286 6                  23604362.078
 126153891.253 6  98301883.96243  24006273.188                    24006282.035
 110735948.919 7  86287890.43146  21072330.141                    21072335.586
 11  7 28  3 12 30.0000000  0  7G10G12G25G05G29G04G02
 116101490.764 7  90468824.14445  22093363.578                    22093371.180
 109779472.630 8                  20890299.656
 114934891.502 8                  21871380.750
 106849780.763 8                  20332817.422
 123958544.548 6                  23588530.195
 126235740.008 6  98365662.17243  24021847.883                    24021856.980
 110767792.641 8  86312703.73546  21078389.609                    21078395.340
 11  7 28  3 13  0.0000000  0  7G10G12G25G05G29G04G02
 116182915.009 7  90532271.61745  22108858.266                    22108866.211
 109808231.869 8                  20895772.047
 114895269.359 8                  21863840.461
 106831208.138 8                  20329283.477
 123875334.277 7                  23572696.117
 126317547.992 6  98429408.66243  24037415.734                    24037424.754
 110799774.626 8  86337624.77046  21084475.234                    21084481.410
 11  7 28  3 13 30.0000000  0  7G10G12G25G05G29G04G02
 116264733.237 7  90596026.09345  22124427.141                    22124435.367
 109837551.190 8                  20901351.477
 114856193.886 8                  21856404.703
 106813212.741 8                  20325858.914
 123792111.900 7                  23556860.008
 126399314.446 6  98493122.70343  24052974.539                    24052983.883
 110831894.230 7  86362653.05046  21090587.570                    21090593.078
 11  7 28  3 14  0.0000000  0  7G10G12G25G05G29G04G02
 116346942.580 7  90660085.32145  22140071.805                    22140079.512
 109867428.748 8                  20907036.789
 114817666.088 8                  21849072.734
 106795794.458 8                  20322544.336
 123708878.096 7                  23541020.836
 126481038.960 6  98556804.12643  24068526.656                    24068535.117
 110864150.332 7  86387787.68646  21096725.672                    21096731.371
 11  7 28  3 14 30.0000000  0  7G10G12G25G05G29G04G02
 116429539.744 7  90724446.76545  22155788.992                    22155796.855
 109897863.921 7                  20912828.172
 114779687.177 8                  21841845.625
 106778953.492 8                  20319339.563
 123625633.839 6                  23525179.750
 126562720.547 6  98620452.09742  24084069.469                    24084079.008
 110896541.921 7  86413027.90646  21102889.766                    21102895.305
 11  7 28  3 15  0.0000000  0  7G10G12G25G05G29G04G02
 116512522.229 7  90789108.43545  22171580.375                    22171588.105
 109928855.210 8                  20918725.977
 114742258.448 8                  21834723.406
 106762689.667 8                  20316244.875
 123542380.243 6                  23509336.383
 126644359.032 6  98684066.45843  24099605.539                    24099614.289
 110929068.373 7  86438373.20346  21109079.555                    21109084.914
 11  7 28  3 15 30.0000000  0  7G10G12G25G05G29G04G02
 116595887.331 7  90854068.24944  22187444.109                    22187452.285
 109960401.053 8                  20924728.688
 114705381.374 8                  21827706.070
 106747003.143 8                  20313260.016
 123459119.016 7                  23493493.109
 126725954.114 6  98747647.06142  24115132.297                    24115141.254
 110961729.098 8  86463823.13246  21115294.359                    21115300.004
 11  7 28  3 16  0.0000000  0  7G10G12G25G05G29G04G02
 116679632.053 7  90919323.88045  22203380.211                    22203387.859
 109992500.745 8                  20930837.625
 114669057.278 8                  21820793.797
 106731894.637 8                  20310384.227
 123375851.532 7                  23477647.867
 126807505.167 6  98811193.27643  24130651.195                    24130659.953
 110994523.720 8  86489377.39446  21121535.438                    21121540.574
 11  7 28  3 16 30.0000000  0  7G10G12G25G05G29G04G02
 116763753.658 7  90984873.18445  22219388.078                    22219396.094
 110025153.066 8                  20937050.828
 114633287.256 8                  21813986.836
 106717363.714 8                  20307619.492
 123292578.605 7                  23461801.273
 126889011.559 6  98874704.73643  24146161.180                    24146170.512
 111027451.267 7  86515035.23946  21127800.844                    21127806.914
 11  7 28  3 17  0.0000000  0  7G10G12G25G05G29G04G02
 116848249.639 7  91050714.20445  22235466.930                    22235475.387
 110058356.402 8                  20943369.445
 114598072.774 8                  21807285.758
 106703411.076 8                  20304964.492
 123209301.924 6                  23445953.945
 126970473.489 6  98938181.53643  24161662.813                    24161671.902
 111060511.561 8  86540796.51746  21134092.219                    21134097.637
 11  7 28  3 17 30.0000000  0  7G10G12G25G05G29G04G02
 116933116.583 7  91116844.28444  22251616.828                    22251624.676
 110092109.235 8                  20949791.977
 114563414.426 8                  21800690.492
 106690035.800 8                  20302419.250
 123126022.014 6                  23430105.695
 127051889.862 6  99001622.91643  24177156.328                    24177165.074
 111093703.024 8  86566660.01146  21140407.852                    21140413.879
 11  7 28  3 18  0.0000000  0  7G10G12G25G05G29G04G02
 117018352.316 7  91183261.73044  22267836.289                    22267844.762
 110126410.784 8                  20956319.695
 114529314.116 8                  21794201.469
 106677238.648 8                  20299983.992
 123042740.775 6                  23414258.656
 127133260.604 6  99065028.64543  24192640.781                    24192649.602
 111127025.771 8  86592625.79646  21146749.398                    21146754.707
 11  7 28  3 18 30.0000000  0  7G10G12G25G05G29G04G02
 117103953.281 7  91249963.77244  22284125.625                    22284133.910
 110161259.384 7                  20962951.055
 114495772.349 8                  21787818.375
 106665019.029 8                  20297658.609
 122959459.120 7                  23398410.883
 127214585.086 6  99128398.35543  24208115.516                    24208125.262
 111160478.725 7  86618693.04646  21153115.031                    21153120.531
 11  7 28  3 19  0.0000000  0  7G10G12G25G05G29G04G02
 117189916.567 7  91316948.15344  22300484.203                    22300492.418
 110196653.418 8                  20969686.320
 114462790.171 8                  21781542.219
 106653376.516 8                  20295443.047
 122876178.418 6                  23382562.375
 127295862.663 6  99191731.51543  24223582.141                    24223591.477
 111194061.050 8  86644861.11046  21159505.648                    21159511.164
 11  7 28  3 19 30.0000000  0  7G10G12G25G05G29G04G02
 117276240.413 7  91384213.47544  22316910.883                    22316919.012
 110232592.088 8                  20976525.203
 114430369.377 8                  21775372.703
 106642312.100 8                  20293337.625
 122792900.168 6                  23366715.250
 127377093.477 6  99255028.23643  24239040.453                    24239049.621
 111227772.835 7  86671130.04946  21165920.883                    21165926.367
 11  7 28  3 20  0.0000000  0  7G10G12G25G05G29G04G02
 117362920.896 7  91451756.69945  22333405.609                    22333414.098
 110269073.188 7                  20983467.398
 114398510.141 8                  21769310.141
 106631824.692 8                  20291342.133
 122709625.111 7                  23350868.195
 127458276.645 6  99318287.81643  24254489.078                    24254497.879
 111261612.465 7  86697498.59246  21172360.430                    21172365.828
 11  7 28  3 20 30.0000000  0  7G10G12G25G05G29G04G02
 117449955.515 7  91519575.87944  22349967.969                    22349976.035
 110306095.652 8                  20990512.672
 114367213.883 8                  21763354.492
 106621914.518 8                  20289455.875
 122626354.803 7                  23335023.313
 127539411.879 7  99381510.04843  24269928.547                    24269937.789
 111295579.756 8  86723966.62046  21178823.906                    21178829.629
 11  7 28  3 21  0.0000000  0  7G10G12G25G05G29G04G02
 117537341.174 7  91587668.59044  22366596.633                    22366604.770
 110343658.079 8                  20997660.602
 114336481.594 8                  21757506.758
 106612581.393 8                  20287679.930
 122543090.367 7                  23319178.625
 127620498.716 6  99444694.57843  24285359.117                    24285368.496
 111329673.967 7  86750533.54246  21185311.734                    21185317.594
 11  7 28  3 21 30.0000000  0  7G10G12G25G05G29G04G02
 117625075.026 7  91656032.63344  22383292.242                    22383299.508
 110381758.719 8                  21004910.492
 114306314.134 8                  21751765.789
 106603824.935 8                  20286013.453
 122459833.104 6                  23303334.570
 127701536.885 6  99507841.19343  24300779.617                    24300789.273
 111363894.389 7  86777198.80746  21191823.750                    21191829.453
 11  7 28  3 22  0.0000000  0  7G10G12G25G05G29G04G02
 117713154.144 7  91724665.71344  22400052.867                    22400060.750
 110420396.119 7                  21012263.289
 114276712.356 8                  21746132.773
 106595644.407 8                  20284456.742
 122376584.474 7                  23287492.836
 127782525.674 6  99570949.31343  24316192.094                    24316201.074
 111398240.367 7  86803961.92146  21198359.711                    21198365.215
 11  7 28  3 22 30.0000000  0  7G10G12G25G05G29G04G02
 117801575.749 7  91793565.65944  22416879.344                    22416886.980
 110459568.302 8                  21019717.336
 114247677.416 8                  21740607.680
 106588040.450 8                  20283009.680
 122293345.889 7                  23271653.227
 127863465.099 6  99634019.00843  24331593.742                    24331602.953
 111432711.123 8  86830822.25346  21204918.891                    21204924.945
 11  7 28  3 23  0.0000000  0  8G10G26G12G25G05G29G04G02
 117890337.656 7  91862730.78244  22433769.977                    22433778.281
 130318954.73416 101547288.83852  24798878.273                    24798886.352
 110499274.658 8                  21027273.234
 114219210.889 8                  21735190.281
 106581013.420 8                  20281672.570
 122210119.269 7                  23255815.852
 127944355.484 6  99697050.54443  24346986.547                    24346995.777
 111467307.210 7  86857780.24646  21211502.492                    21211508.242
 11  7 28  3 23 30.0000000  0  8G10G26G12G25G05G29G04G02
 117979436.708 7  91932158.61244  22450724.992                    22450732.867
 130223903.190 6 101473222.80242  24780789.734                    24780799.152
 110539513.352 8                  21034930.359
 114191313.398 8                  21729881.781
 106574562.395 8                  20280445.156
 122126905.706 7                  23239980.531
 128025196.167 6  99760043.35743  24362369.859                    24362379.637
 111502027.604 7  86884835.10446  21218109.523                    21218115.477
 11  7 28  3 24  0.0000000  0  8G10G26G12G25G05G29G04G02
 118068869.520 7  92001846.52644  22467742.695                    22467751.258
 130128733.411 6 101399064.61242  24762680.141                    24762689.039
 110580282.625 8                  21042688.781
 114163985.310 8                  21724681.352
 106568686.743 8                  20279326.984
 122043706.358 7                  23224148.258
 128105986.315 6  99822996.78143  24377743.984                    24377753.699
 111536871.076 8  86911985.86446  21224739.844                    21224745.344
 11  7 28  3 24 30.0000000  0  8G10G26G12G25G05G29G04G02
 118158633.603 7  92071792.55944  22484824.758                    22484832.660
 130033448.518 6 101324816.76243  24744547.297                    24744557.070
 110621580.717 8                  21050547.617
 114137227.749 8                  21719589.578
 106563386.595 8                  20278318.477
 121960522.563 7                  23208319.203
 128186725.741 6  99885910.67743  24393108.039                    24393117.344
 111571837.527 7  86939232.44546  21231393.742                    21231399.375
 11  7 28  3 25  0.0000000  0  8G10G26G12G25G05G29G04G02
 118248725.693 7  92141994.19044  22501968.602                    22501976.895
 129938051.425 6 101250481.42843  24726393.977                    24726404.141
 110663405.823 8                  21058506.336
 114111041.372 8                  21714606.516
 106558661.132 8                  20277419.109
 121877355.338 7                  23192492.797
 128267414.157 6  99948784.80743  24408462.094                    24408471.563
 111606926.119 8  86966574.19746  21238071.094                    21238077.094
 11  7 28  3 25 30.0000000  0  8G10G26G12G25G05G29G04G02
 118339142.844 7  92212449.13244  22519173.922                    22519182.469
 129842544.787 6 101176060.79043  24708219.641                    24708229.672
 110705756.380 8                  21066565.414
 114085426.855 8                  21709732.289
 106554509.860 8                  20276629.070
 121794206.461 6                  23176669.992
 128348050.953 6 100011618.70643  24423807.688                    24423816.215
 111642136.202 8  86994010.62446  21244771.711                    21244776.906
 11  7 28  3 26  0.0000000  0  8G10G26G12G25G05G29G04G02
 118429882.527 7  92283155.38244  22536441.453                    22536449.891
 129746931.892 6 101101557.27043  24690024.938                    24690034.273
 110748630.269 8                  21074723.914
 114060384.984 8                  21704966.875
 106550932.318 8                  20275948.375
 121711077.036 6                  23160850.289
 128428635.656 6 100074411.97442  24439141.945                    24439150.945
 111677467.196 7  87021541.26946  21251494.406                    21251500.055
 11  7 28  3 26 30.0000000  0  8G10G26G12G25G05G29G04G02
 118520941.421 7  92354110.35744  22553769.313                    22553777.863
 129651215.436 6 101026973.09843  24671811.133                    24671820.016
 110792026.320 8                  21082982.227
 114035916.458 8                  21700310.969
 106547928.212 8                  20275376.828
 121627968.733 7                  23145035.531
 128509168.314 6 100137164.62542  24454466.664                    24454476.129
 111712918.297 8  87049165.50346  21258240.953                    21258246.445
 11  7 28  3 27  0.0000000  0  8G10G26G12G25G05G29G04G02
 118612316.895 7  92425312.01144  22571158.180                    22571166.043
 129555398.406 6 100952310.54043  24653577.094                    24653586.547
 110835942.556 8                  21091339.086
 114012022.137 8                  21695763.883
 106545497.049 8                  20274914.063
 121544882.764 7                  23129225.766
 128589648.708 6 100199876.65742  24469781.664                    24469791.063
 111748489.264 8  87076883.14546  21265009.547                    21265015.645
 11  7 28  3 27 30.0000000  0  8G10G26G12G25G05G29G04G02
 118704005.910 7  92496758.00744  22588605.469                    22588614.191
 129459483.914 6 100877572.09343  24635324.664                    24635334.602
 110880377.161 8                  21099794.656
 113988702.805 8                  21691325.906
 106543638.578 8                  20274560.398
 121461820.929 6                  23113419.563
 128670076.523 6 100262547.73142  24485086.234                    24485095.824
 111784179.815 7  87104693.95746  21271801.414                    21271807.418
 11  7 28  3 28  0.0000000  0  8G10G26G12G25G05G29G04G02
 118796005.681 7  92568446.12944  22606112.609                    22606120.797
 129363474.740 6 100802759.86943  24617055.086                    24617064.766
 110925328.263 8                  21108348.867
 113965958.882 8                  21686998.281
 106542351.880 8                  20274315.492
 121378784.472 6                  23097617.492
 128750451.376 6 100325177.55842  24500382.023                    24500390.781
 111819989.137 7  87132597.32246  21278615.656                    21278621.504
 11  7 28  3 28 30.0000000  0  8G10G26G12G25G05G29G04G02
 118888313.570 7  92640374.35644  22623678.094                    22623686.457
 129267374.209 6 100727876.51043  24598767.344                    24598777.117
 110970794.527 8                  21117000.563
 113943791.351 8                  21682779.805
 106541637.080 8                  20274179.258
 121295774.952 7                  23081821.648
 128830773.256 6 100387766.05743  24515666.266                    24515675.359
 111855916.901 7  87160592.98346  21285452.375                    21285458.293
 11  7 28  3 29  0.0000000  0  8G10G26G12G25G05G29G04G02
 118980926.479 7  92712540.26044  22641301.891                    22641310.086
 129171185.154 6 100652924.11343  24580462.406                    24580472.832
 111016773.560 8                  21125749.938
 113922200.434 8                  21678670.922
 106541492.934 8                  20274152.141
 121212793.546 7                  23066030.570
 128911041.522 6 100450312.87242  24530939.828                    24530949.742
 111891962.138 7  87188680.17646  21292311.852                    21292317.426
 11  7 28  3 29 30.0000000  0  8G10G26G12G25G05G29G04G02
 119073841.656 7  92784941.68644  22658982.984                    22658991.535
 129074910.596 6 100577905.04643  24562143.039                    24562151.938
 111063263.739 8                  21134597.148
 113901187.038 8                  21674672.523
 106541919.313 8                  20274233.047
 121129842.194 6                  23050245.125
 128991256.024 6 100512817.72843  24546204.805                    24546213.906
 111928124.510 8  87216858.65346  21299193.500                    21299199.156
 11  7 28  3 30  0.0000000  0  8G10G26G12G25G05G29G04G02
 119167056.028 6  92857576.27444  22676720.477                    22676729.277
 128978553.485 7 100502821.74143  24543806.773                    24543816.617
 111110263.137 8                  21143540.719
 113880751.567 8                  21670783.250
 106542915.309 8                  20274422.703
 121046921.990 6                  23034465.867
 129071416.666 6 100575280.65243  24561458.180                    24561467.203
 111964403.481 7  87245127.96946  21306096.820                    21306102.504
 11  7 28  3 30 30.0000000  0  8G10G26G12G25G05G29G04G02
 119260566.670 7  92930441.70544  22694515.945                    22694523.734
 128882116.955 6 100427676.42943  24525455.672                    24525463.977
 111157769.864 8                  21152580.992
 113860894.473 8                  21667005.063
 106544480.086 8                  20274720.664
 120964034.474 7                  23018693.219
 129151522.927 6 100637701.20743  24576702.797                    24576711.434
 112000798.491 7  87273487.71446  21313022.461                    21313028.480
 11  7 28  3 31  0.0000000  0  8G10G26G12G25G05G29G04G02
 119354370.726 7  93003535.77344  22712365.141                    22712374.023
 128785603.868 6 100352471.47143  24507089.656                    24507098.695
 111205782.026 8                  21161717.172
 113841616.315 8                  21663336.648
 106546613.008 8                  20275126.328
 120881181.088 7                  23002926.938
 129231574.618 6 100700079.20643  24591935.695                    24591945.188
 112037309.180 8  87301937.59846  21319970.172                    21319975.887
 11  7 28  3 31 30.0000000  0  8G10G26G12G25G05G29G04G02
 119448465.321 6  93076856.24044  22730271.492                    22730279.625
 128689017.552 6 100277209.39243  24488709.734                    24488718.816
 111254297.810 8                  21170949.469
 113822917.862 8                  21659778.523
 106549313.809 8                  20275640.406
 120798363.619 7                  22987166.766
 129311571.726 6 100762414.65343  24607158.828                    24607168.098
 112073935.274 7  87330477.40346  21326940.078                    21326945.816
 11  7 28  3 32  0.0000000  0  8G10G26G12G25G05G29G04G02
 119542847.533 7  93150400.82144  22748232.016                    22748239.965
 128592360.829 6 100201892.46642  24470316.883                    24470326.109
 111303315.184 8                  21180277.195
 113804799.376 8                  21656330.633
 106552581.690 8                  20276262.492
 120715583.738 7                  22971413.992
 129391513.922 6 100824707.29443  24622371.219                    24622380.434
 112110675.931 7  87359106.48446  21333931.594                    21333937.313
 11  7 28  3 32 30.0000000  0  8G10G26G12G25G05G29G04G02
 119637514.762 7  93224167.49444  22766246.406                    22766254.680
 128495636.999 6 100126523.30243  24451910.086                    24451920.297
 111352832.324 8                  21189699.820
 113787261.374 8                  21652993.313
 106556415.980 8                  20276991.664
 120632842.640 7                  22955669.406
 129471401.148 6 100886957.11843  24637573.375                    24637582.102
 112147531.024 8  87387824.74646  21340945.438                    21340950.398
 11  7 28  3 33  0.0000000  0  8G10G26G12G25G05G29G04G02
 119732463.955 7  93298153.87644  22784314.961                    22784322.602
 128398849.343 6 100051104.32343  24433491.711                    24433501.797
 111402846.980 8                  21199217.500
 113770304.274 8                  21649766.313
 106560815.813 8                  20277828.961
 120550141.926 7                  22939931.188
 129551233.024 6 100949163.80643  24652764.773                    24652774.086
 112184500.071 8  87416631.79946  21347980.000                    21347985.703
 11  7 28  3 33 30.0000000  0  8G10G26G12G25G05G29G04G02
 119827691.988 7  93372357.53344  22802435.789                    22802444.066
 128302000.714 6  99975637.86343  24415062.547                    24415072.371
 111453357.077 8                  21208829.133
 113753928.322 8                  21646650.156
 106565780.406 8                  20278773.695
 120467483.169 7                  22924202.156
 129631009.435 6 101011327.28243  24667945.578                    24667954.438
 112221582.270 7  87445527.01846  21355036.383                    21355042.086
 11  7 28  3 34  0.0000000  0  8G10G26G12G25G05G29G04G02
 119923196.204 7  93446776.40044  22820609.680                    22820617.516
 128205094.373 6  99900126.41243  24396623.188                    24396631.082
 111504361.172 8                  21218534.664
 113738134.003 8                  21643644.547
 106571309.123 8                  20279825.836
 120384867.863 7                  22908480.797
 129710730.016 6 101073447.24043  24683116.117                    24683124.816
 112258777.283 7  87474510.15346  21362114.570                    21362119.734
 11  7 28  3 34 30.0000000  0  7G10G26G12G25G05G29G02
 120018974.285 7  93521408.65244  22838836.000                    22838843.512
 128108134.100 6  99824572.93243  24378171.813                    24378179.902
 111555856.943 8                  21228334.117
 113722922.276 8                  21640749.898
 106577401.546 8                  20280985.266
 120302298.369 7                  22892768.352
 112296085.293 8  87503581.34346  21369213.852                    21369219.141
 11  7 28  3 35  0.0000000  0  7G10G26G12G25G05G29G02
 120115022.550 7  93596251.45644  22857113.383                    22857121.484
 128011122.094 6  99748979.18443  24359710.969                    24359719.703
 111607842.012 8                  21238226.383
 113708292.543 8                  21637965.633
 106584055.801 8                  20282251.336
 120219775.218 7                  22877064.766
 112333505.143 8  87532739.67046  21376334.938                    21376340.137
 11  7 28  3 35 30.0000000  0  7G10G26G12G25G05G29G02
 120211338.369 7  93671302.72144  22875441.758                    22875449.867
 127914061.382 6  99673347.48643  24341240.211                    24341249.277
 111660314.147 8                  21248211.789
 113694245.094 8                  21635292.750
 106591271.242 8                  20283624.508
 120137300.341 7                  22861369.641
 112371036.215 8  87561984.67046  21383476.477                    21383482.297
 11  7 28  3 36  0.0000000  0  7G10G26G12G25G05G29G02
 120307918.900 7  93746560.27844  22893820.328                    22893828.035
 127816955.615 6  99597680.70343  24322761.922                    24322771.133
 111713271.552 8                  21258289.336
 113680780.431 8                  21632730.031
 106599047.531 7                  20285104.289
 120054875.375 7                  22845685.594
 112408678.412 8  87591316.26246  21390639.633                    21390645.004
 11  7 28  3 36 30.0000000  0  7G10G26G12G25G05G29G02
 120404760.976 7  93822021.62344  22912249.102                    22912257.070
 127719807.986 6  99521981.26843  24304275.344                    24304284.262
 111766712.024 8                  21268458.688
 113667898.841 8                  21630279.195
 106607383.560 8                  20286690.383
 119972501.917 7                  22830009.727
 112446431.430 8  87620734.21046  21397823.750                    21397829.441
 11  7 28  3 37  0.0000000  0  7G10G26G12G25G05G29G02
 120501861.517 7  93897684.36544  22930726.656                    22930734.520
 127622621.291 6  99446251.45343  24285781.664                    24285789.895
 111820633.282 8                  21278719.727
 113655600.224 8                  21627938.453
 106616277.853 8                  20288382.875
 119890181.527 7                  22814344.914
 112484294.464 8  87650237.88946  21405028.898                    21405034.383
 11  7 28  3 37 30.0000000  0  7G10G26G12G25G05G29G02
 120599217.815 6  93973546.39744  22949252.992                    22949260.355
 127525398.809 6  99370493.73943  24267280.078                    24267289.012
 111875033.026 8                  21289071.617
 113643884.856 8                  21625709.172
 106625729.408 7                  20290181.430
 119807915.567 7                  22798690.203
 112522267.233 7  87679827.06846  21412254.797                    21412260.309
 11  7 28  3 38  0.0000000  0  7G10G26G12G25G05G29G02
 120696827.408 7  94049605.78644  22967827.266                    22967835.344
 127428144.046 6  99294710.89943  24248773.141                    24248782.449
 111929909.682 8                  21299514.266
 113632753.144 8                  21623591.086
 106635738.037 8                  20292086.094
 119725706.002 7                  22783046.492
 112560349.505 8  87709501.56646  21419501.648                    21419507.078
 11  7 28  3 38 30.0000000  0  7G10G26G12G25G05G29G02
 120794687.224 7  94125860.17844  22986449.383                    22986457.051
 127330859.874 6  99218905.11843  24230261.125                    24230270.340
 111985260.484 8                  21310047.008
 113622204.784 8                  21621583.492
 106646302.075 8                  20294096.180
 119643554.272 7                  22767413.242
 112598540.344 8  87739260.68146  21426768.984                    21426774.855
 11  7 28  3 39  0.0000000  0  7G10G26G12G25G05G29G02
 120892794.394 6  94202307.31744  23005118.883                    23005126.699
 127233549.664 6  99143079.04843  24211743.273                    24211752.086
 112041083.597 8                  21320669.914
 113612240.283 8                  21619687.570
 106657420.863 8                  20296212.063
 119561462.346 7                  22751791.461
 112636840.199 8  87769104.73546  21434057.313                    21434062.930
 11  7 28  3 39 30.0000000  0  7G10G26G12G25G05G29G02
 120991146.135 6  94278945.00744  23023834.641                    23023842.418
 127136216.632 6  99067235.18343  24193221.148                    24193230.488
 112097376.742 8                  21331381.930
 113602859.609 8                  21617902.234
 106669093.371 8                  20298433.148
 119479432.003 7                  22736181.969
 112675248.472 8  87799033.27046  21441365.984                    21441371.793
 11  7 28  3 40  0.0000000  0  7G10G26G12G25G05G29G02
 121089738.971 6  94355770.57044  23042595.758                    23042604.016
 127038863.644 6  98991375.74843  24174695.289                    24174704.035
 112154136.841 8                  21342183.219
 113594062.349 8                  21616228.242
 106681317.381 8                  20300759.445
 119397464.163 7                  22720584.180
 112713763.896 8  87829045.30346  21448695.258                    21448701.145
 11  7 28  3 40 30.0000000  0  7G10G26G12G25G05G29G02
 121188570.954 6  94432782.48744  23061402.883                    23061411.141
 126941494.714 6  98915503.86543  24156167.055                    24156176.430
 112211362.805 8                  21353072.977
 113585849.283 8                  21614665.453
 106694093.496 8                  20303190.695
 119315561.288 7                  22704998.383
 112752387.343 7  87859141.49846  21456044.938                    21456051.082
 11  7 28  3 41  0.0000000  0  7G10G26G12G25G05G29G02
 121287639.055 6  94509978.34744  23080254.922                    23080262.902
 126844112.933 6  98839622.02343  24137635.867                    24137645.461
 112269052.153 8                  21364050.523
 113578220.229 8                  21613213.500
 106707420.364 8                  20305726.586
 119233724.941 7                  22689425.359
 112791118.021 7  87889321.25246  21463415.633                    21463420.941
 11  7 28  3 41 30.0000000  0  7G10G26G12G25G05G29G02
 121386940.395 6  94587355.97644  23099151.578                    23099159.258
 126746721.378 6  98763732.62643  24119102.234                    24119112.773
 112327202.412 8                  21375116.180
 113571175.204 8                  21611873.430
 106721296.749 7                  20308367.117
 119151957.064 7                  22673865.422
 112829955.758 8  87919584.43046  21470806.188                    21470811.664
 11  7 28  3 42  0.0000000  0  7G10G26G12G25G05G29G02
 121486471.725 6  94664912.82243  23118091.570                    23118099.434
 126649323.120 6  98687837.96343  24100568.055                    24100577.863
 112385810.894 8                  21386269.203
 113564713.515 8                  21610643.445
 106735720.468 8                  20311111.820
 119070258.576 7                  22658318.898
 112868899.414 8  87949930.12746  21478216.953                    21478222.590
 11  7 28  3 42 30.0000000  0  7G10G26G12G25G05G29G02
 121586230.624 7  94742647.00844  23137075.195                    23137083.320
 126551921.885 6  98611940.96044  24082033.781                    24082042.977
 112444875.915 8                  21397508.922
 113558835.784 8                  21609524.922
 106750691.310 8                  20313960.836
 118988631.647 7                  22642785.656
 112907949.385 8  87980358.67646  21485647.578                    21485653.645
 11  7 28  3 43  0.0000000  0  7G10G26G12G25G05G29G02
 121686214.255 6  94820556.28744  23156101.914                    23156109.328
 126454520.726 6  98536043.97943  24063498.695                    24063507.848
 112504394.529 8                  21408834.891
 113553541.543 8                  21608517.828
 106766207.910 8                  20316913.344
 118907078.151 7                  22627266.117
 112947105.250 8  88010869.73846  21493098.859                    21493104.707
 11  7 28  3 43 30.0000000  0  7G10G26G12G25G05G29G02
 121786419.509 6  94898638.27944  23175169.727                    23175177.801
 126357122.864 6  98460149.63243  24044964.539                    24044973.988
 112564364.142 8                  21420246.719
 113548830.566 8                  21607620.938
 106782268.750 8                  20319969.953
 118825599.635 7                  22611761.422
 112986366.298 8  88041462.76146  21500569.961                    21500576.020
 11  7 28  3 44  0.0000000  0  7G10G26G12G25G05G29G02
 121886843.997 7  94976891.09544  23194280.125                    23194288.535
 126259731.767 6  98384260.51543  24026431.445                    24026440.406
 112624783.095 8                  21431744.352
 113544703.118 8                  21606835.664
 106798873.033 8                  20323129.570
 118744198.105 7                  22596270.844
 113025732.928 8  88072138.05946  21508061.125                    21508067.113
 11  7 28  3 44 30.0000000  0  7G10G26G12G25G05G29G02
 121987484.345 7  95055312.11744  23213431.406                    23213439.402
 126162350.796 6  98308379.26943  24007900.195                    24007909.363
 112685648.547 8                  21443326.414
 113541158.572 8                  21606161.133
 106816019.008 8                  20326392.070
 118662874.853 7                  22580795.906
 113065204.168 8  88102894.86346  21515572.102                    21515578.055
 11  7 28  3 45  0.0000000  0  7G10G26G12G25G05G29G02
 122088338.051 6  95133899.40043  23232622.773                    23232631.465
 126064983.223 6  98232508.49043  23989371.336                    23989380.848
 112746958.560 8                  21454993.609
 113538196.946 8                  21605597.461
 106833705.831 8                  20329757.992
 118581632.257 7                  22565335.977
 113104779.915 8  88133733.10746  21523103.203                    21523109.344
 11  7 28  3 45 30.0000000  0  7G10G26G12G25G05G29G02
 122189402.507 7  95212650.87944  23251855.352                    23251863.277
 125967632.641 6  98156650.96844  23970846.664                    23970856.176
 112808711.148 8                  21466744.492
 113535818.170 8                  21605144.891
 106851932.519 8                  20333226.359
 118500471.977 7                  22549891.852
 113144460.308 8  88164652.89246  21530654.445                    21530660.008
 11  7 28  3 46  0.0000000  0  7G10G26G12G25G05G29G02
 122290674.621 6  95291564.19544  23271126.844                    23271134.773
 125870301.890 7  98080808.91144  23952325.023                    23952334.566
 112870902.710 8                  21478579.281
 113534021.573 8                  21604802.781
 106870696.767 8                  20336797.266
 118419395.369 7                  22534462.820
 113184244.473 8  88195653.54346  21538224.680                    21538230.672
 11  7 28  3 46 30.0000000  0  7G10G26G12G25G05G29G02
 122392151.266 6  95370636.83944  23290436.930                    23290445.492
 125772994.382 7  98004984.92644  23933808.508                    23933817.520
 112933530.749 8                  21490496.961
 113532806.693 8                  21604571.867
 106889996.977 8                  20340469.852
 118338404.104 7                  22519050.977
 113224131.998 8  88226734.73146  21545814.969                    21545821.113
 11  7 28  3 47  0.0000000  0  7G10G26G12G25G05G29G02
 122493830.212 6  95449867.14643  23309785.672                    23309793.883
 125675713.655 6  97929181.79743  23915296.141                    23915305.117
 112996593.144 8                  21502497.641
 113532173.575 8                  21604451.008
 106909832.673 8                  20344244.070
 118257500.382 7                  22503655.367
 113264122.891 8  88257896.46846  21553425.219                    21553430.930
 11  7 28  3 47 30.0000000  0  7G10G26G12G25G05G29G02
 122595708.568 6  95529252.83543  23329172.570                    23329181.578
 125578463.330 6  97853402.38843  23896789.445                    23896798.906
 113060087.980 8                  21514580.063
 113532121.850 8                  21604441.648
 106930202.658 8                  20348120.469
 118176686.230 7                  22488276.797
 113304216.798 8  88289138.47946  21561054.891                    21561060.637
 11  7 28  3 48  0.0000000  0  7G10G26G12G25G05G29G02
 122697783.643 6  95608791.83144  23348596.773                    23348605.477
 125481246.667 6  97777649.19243  23878289.766                    23878299.094
 113124012.222 8                  21526744.289
 113532651.275 8                  21604542.227
 106951105.456 8                  20352098.414
 118095963.384 7                  22472915.742
 113344413.954 8  88320460.95046  21568704.477                    21568709.570
 11  7 28  3 48 30.0000000  0  7G10G26G12G25G05G29G02
 122800052.611 6  95688481.88043  23368058.156                    23368066.379
 125384067.071 7  97701924.84143  23859797.461                    23859805.832
 113188363.409 8                  21538990.094
 113533761.352 8                  21604753.281
 106972539.393 8                  20356176.992
 118015333.484 7                  22457572.617
 113384713.880 8  88351863.49246  21576373.055                    21576378.477
 11  7 28  3 49  0.0000000  0  7G10G26G12G25G05G29G02
 122902512.460 6  95768320.67643  23387555.703                    23387563.727
 125286927.972 7  97626232.03944  23841312.164                    23841321.223
 113253138.930 8                  21551316.258
 113535451.510 8                  21605074.945
 106994502.965 8                  20360356.344
 117934798.340 7                  22442247.109
 113425116.029 8  88383345.69646  21584061.094                    21584066.418
 11  7 28  3 49 30.0000000  0  7G10G26G12G25G05G29G02
 123005160.097 6  95848305.79744  23407088.609                    23407097.406
 125189832.698 7  97550573.43244  23822836.055                    23822845.207
 113318336.366 7                  21563723.094
 113537721.358 8                  21605507.086
 107016994.683 8                  20364636.484
 117854359.999 7                  22426940.070
 113465620.289 8  88414907.45746  21591768.586                    21591774.586
 11  7 28  3 50  0.0000000  0  7G10G26G12G25G05G29G02
 123107993.274 6  95928435.49743  23426657.656                    23426665.988
 125092784.695 7  97474951.66444  23804367.578                    23804377.801
 113383953.304 8                  21576209.805
 113540570.516 8                  21606049.188
 107040013.258 8                  20369017.016
 117774020.429 7                  22411652.078
 113506226.653 8  88446548.79046  21599495.930                    21599501.574
 11  7 28  3 50 30.0000000  0  7G10G26G12G25G05G29G02
 123211009.132 6  96008707.55643  23446260.953                    23446268.641
 124995787.205 6  97399369.28243  23785909.227                    23785919.219
 113449986.763 8                  21588775.406
 113543998.171 8                  21606701.477
 107063556.783 8                  20373497.125
 117693781.031 7                  22396382.750
 113546934.300 8  88478269.04046  21607242.289                    21607248.172
 11  7 28  3 51  0.0000000  0  7G10G26G12G25G05G29G02
 123314205.075 6  96089119.94043  23465898.461                    23465906.383
 124898844.295 7  97323829.39143  23767462.266                    23767471.789
 113516434.625 8                  21601419.992
 113548004.357 8                  21607463.758
 107087624.636 8                  20378076.945
 117613644.156 7                  22381133.383
 113587743.848 8  88510068.69446  21615008.023                    21615014.031
 11  7 28  3 51 30.0000000  0  7G10G26G12G25G05G29G02
 123417578.265 7  96169670.42843  23485569.625                    23485578.031
 124801958.906 7  97248334.29343  23749025.828                    23749034.723
 113583294.305 7                  21614142.859
 113552587.955 8                  21608335.711
 107112214.588 8                  20382756.500
 117533611.348 7                  22365903.703
 113628654.434 7  88541947.07146  21622793.109                    21622799.148
 11  7 28  3 52  0.0000000  0  7G10G26G12G25G05G29G02
 123521125.873 6  96250356.86143  23505273.891                    23505282.043
 124705134.591 7  97172886.78543  23730601.000                    23730609.426
 113650562.779 7                  21626943.742
 113557748.651 8                  21609317.727
 107137325.214 8                  20387534.602
 117453684.648 7                  22350694.164
 113669666.311 7  88573904.38645  21630597.469                    21630602.848
 11  7 28  3 52 30.0000000  0  7G10G26G12G25G05G29G02
 123624845.263 6  96331177.14443  23525011.297                    23525019.445
 124608374.856 6  97097489.57243  23712188.023                    23712196.805
 113718237.849 7                  21639822.164
 113563485.787 8                  21610409.750
 107162955.126 8                  20392411.805
 117373866.022 7                  22335504.820
 113710778.892 8  88605940.16446  21638421.039                    21638426.746
 11  7 28  3 53  0.0000000  0  7G10G26G12G25G05G29G02
 123728733.576 6  96412129.04943  23544780.945                    23544788.379
 124511683.018 6  97022145.33543  23693787.867                    23693797.332
 113786316.601 7                  21652776.664
 113569798.609 8                  21611611.203
 107189102.327 8                  20397387.477
 117294157.184 7                  22320336.445
 113751992.200 7  88638054.43445  21646263.289                    21646269.371
 11  7 28  3 53 30.0000000  0  7G10G26G12G25G05G29G02
 123832788.477 6  96493210.75443  23564581.773                    23564589.656
 124415062.852 6  96946856.98343  23675401.141                    23675410.949
 113854796.620 7                  21665808.500
 113576686.707 8                  21612921.570
 107215765.953 8                  20402461.430
 117214560.362 7                  22305189.742
 113793306.057 7  88670247.05546  21654125.281                    21654131.117
 11  7 28  3 54  0.0000000  0  7G10G26G12G25G05G29G02
 123937007.128 6  96574420.08243  23584413.672                    23584421.910
 124318517.482 7  96871626.89444  23657029.805                    23657039.234
 113923675.186 7                  21678915.148
 113584149.193 8                  21614341.891
 107242943.910 8                  20407633.336
 117135077.338 7                  22290065.180
 113834720.263 7  88702517.86245  21662006.094                    21662011.594
 11  7 28  3 54 30.0000000  0  8G10G26G12G25G05G29G15G02
 124041386.518 6  96655754.65943  23604276.422                    23604284.031
 124222050.432 7  96796457.78644  23638672.594                    23638681.410
 113992949.321 7                  21692097.656
 113592185.173 8                  21615871.219
 107270634.195 8                  20412902.234
 117055709.777 7                  22274962.031
 129366250.13616                  24617582.531
 113876234.452 7  88734866.58145  21669906.047                    21669911.523
 11  7 28  3 55  0.0000000  0  8G10G26G12G25G05G29G15G02
 124145923.506 6  96737212.02543  23624169.211                    23624177.555
 124125665.201 7  96721352.41444  23620331.508                    23620339.973
 114062615.943 7                  21705354.805
 113600793.634 8                  21617509.281
 107298834.546 8                  20418268.891
 116976459.368 7                  22259880.914
 129271026.998 6                  24599462.016
 113917848.128 7  88767292.82445  21677824.953                    21677830.570
 11  7 28  3 55 30.0000000  0  8G10G26G12G25G05G29G15G02
 124250616.250 6  96818790.69743  23644090.766                    23644099.859
 124029365.483 7  96646313.66643  23602005.867                    23602013.848
 114132673.233 8                  21718686.266
 113609974.446 8                  21619256.469
 107327544.849 8                  20423732.000
 116897329.091 7                  22244822.977
 129175686.981 6                  24581319.977
 113959561.767 7  88799796.95946  21685762.594                    21685768.438
 11  7 28  3 56  0.0000000  0  8G10G26G12G25G05G29G15G02
 124355462.005 6  96900488.65143  23664043.359                    23664051.184
 123933154.990 6  96571344.47043  23583697.742                    23583706.504
 114203118.664 8                  21732091.438
 113619726.874 8                  21621112.328
 107356763.169 8                  20429292.453
 116818320.445 7                  22229788.211
 129080232.939 6                  24563155.438
 114001375.132 7  88832378.79445  21693719.430                    21693725.191
 11  7 28  3 56 30.0000000  0  8G10G26G12G25G05G29G15G02
 124460457.829 6  96982303.54143  23684022.688                    23684031.449
 123837036.795 7  96496447.24744  23565406.883                    23565415.828
 114273949.023 8                  21745569.992
 113630049.833 8                  21623076.633
 107386487.463 8                  20434948.422
 116739435.391 7                  22214776.930
 128984667.132 7                  24544970.172
 114043288.174 7  88865038.30245  21701695.289                    21701700.895
 11  7 28  3 57  0.0000000  0  8G10G26G12G25G05G29G15G02
 124565601.182 6  97064233.42143  23704030.648                    23704039.891
 123741014.692 7  96421624.86744  23547134.750                    23547144.043
 114345161.410 8                  21759121.664
 113640942.390 8                  21625149.547
 107416715.884 8                  20440700.938
 116660675.571 8                  22199789.234
 128888991.932 7                  24526763.844
 114085300.252 8  88897774.99345  21709690.039                    21709695.383
 11  7 28  3 57 30.0000000  0  8G10G26G12G25G05G29G15G02
 124670889.273 6  97146276.03343  23724066.398                    23724075.668
 123645092.112 7  96346880.01544  23528881.578                    23528890.148
 114416753.321 8                  21772745.055
 113652403.700 8                  21627330.336
 107447446.593 8                  20446548.648
 116582043.222 7                  22184825.891
 128793209.710 7                  24508536.383
 114127411.396 8  88930588.86845  21717703.281                    21717709.098
 11  7 28  3 58  0.0000000  0  8G10G26G12G25G05G29G15G02
 124776319.327 6  97228429.29643  23744129.742                    23744137.949
 123549272.664 7  96272215.53543  23510647.523                    23510656.039
 114488722.242 8                  21786440.180
 113664432.753 8                  21629619.023
 107478677.913 8                  20452491.828
 116503540.507 7                  22169887.508
 128697323.258 6                  24490290.188
 114169621.488 8  88963479.85045  21725736.031                    21725741.750
 11  7 28  3 58 30.0000000  0  8G10G26G12G25G05G29G15G02
 124881888.848 6  97310691.24444  23764219.039                    23764227.523
 123453559.893 7  96197634.16543  23492433.820                    23492442.449
 114561064.928 8                  21800206.602
 113677028.834 8                  21632016.414
 107510408.104 8                  20458529.945
 116425169.091 7                  22154973.844
 128601335.371 6                  24472023.094
 114211930.659 8  88996448.02845  21733787.055                    21733792.703
 11  7 28  3 59  0.0000000  0  8G10G26G12G25G05G29G15G02
 124987595.418 6  97393059.96343  23784333.594                    23784342.848
 123357957.599 7  96123138.88643  23474241.000                    23474249.578
 114633778.962 8                  21814044.008
 113690191.168 8                  21634520.977
 107542635.825 8                  20464662.758
 116346931.188 7                  22140085.242
 128505248.648 6                  24453739.250
 114254338.902 8  89029493.40746  21741857.031                    21741862.766
 11  7 28  3 59 30.0000000  0  8G10G26G12G25G05G29G15G02
 125093436.259 6  97475533.34244  23804475.352                    23804483.426
 123262468.922 7  96048732.18143  23456069.711                    23456078.934
 114706861.449 7                  21827950.773
 113703918.424 7                  21637133.180
 107575358.803 8                  20470889.594
 116268828.862 7                  22125222.719
 128409065.368 6                  24435435.938
 114296845.698 8  89062615.58245  21749946.008                    21749951.504
 11  7 28  4  0  0.0000000  0  8G10G26G12G25G05G29G15G02
 125199408.546 6  97558109.13143  23824640.641                    23824649.000
 123167097.702 7  95974416.96744  23437921.914                    23437929.887
 114780309.743 7                  21841927.688
 113718209.794 8                  21639852.727
 107608575.263 8                  20477210.422
 116190864.125 7                  22110386.836
 128312788.308 6                  24417115.555
 114339451.252 7  89095814.70246  21758053.211                    21758059.121
 11  7 28  4  0 30.0000000  0  8G10G26G12G25G05G29G15G02
 125305509.843 6  97640785.46343  23844831.758                    23844839.578
 123071847.284 7  95900195.90944  23419796.016                    23419804.977
 114854120.716 7                  21855973.500
 113733064.021 8                  21642679.680
 107642283.532 8                  20483624.750
 116113038.636 7                  22095577.344
 128216420.337 6                  24398776.992
 114382155.098 7  89129090.42745  21766179.461                    21766185.277
 11  7 28  4  1  0.0000000  0  8G10G26G12G25G05G29G15G02
 125411737.151 6  97723559.97643  23865045.555                    23865053.957
 122976721.271 7  95826071.79243  23401694.305                    23401703.387
 114928291.673 7                  21870087.625
 113748480.097 8                  21645613.055
 107676481.527 8                  20490132.359
 116035354.715 7                  22080794.016
 128119963.657 6                  24380421.602
 114424957.254 7  89162442.73645  21774324.633                    21774330.328
 11  7 28  4  1 30.0000000  0  8G10G26G12G25G05G29G15G02
 125518088.175 6  97806430.87143  23885284.414                    23885292.039
 122881723.454 6  95752047.58343  23383615.656                    23383624.543
 115002820.137 7                  21884269.844
 113764457.251 8                  21648653.523
 107711167.667 8                  20496733.266
 115957814.697 7                  22066039.086
 128023421.280 6                  24362049.906
 114467858.161 7  89195872.01445  21782488.352                    21782494.277
 11  7 28  4  2  0.0000000  0  8G10G26G12G25G05G29G15G02
 125624560.572 6  97889396.33743  23905544.773                    23905552.863
 122786857.617 7  95678126.19043  23365564.406                    23365572.699
 115077703.047 7                  21898519.680
 113780994.241 8                  21651800.219
 107746340.106 8                  20503426.125
 115880420.477 7                  22051311.406
 127926795.637 6                  24343662.742
 114510857.360 8  89229377.87645  21790670.711                    21790676.434
 11  7 28  4  2 30.0000000  0  8G10G26G12G25G05G29G15G02
 125731151.742 6  97972454.38043  23925828.961                    23925836.508
 122692127.166 7  95604310.27944  23347537.586                    23347546.328
 115152937.824 7                  21912835.938
 113798090.107 8                  21655053.984
 107781997.107 8                  20510212.008
 115803174.151 7                  22036612.039
 127830089.340 6                  24325259.852
 114553955.087 8  89262960.50945  21798872.070                    21798877.852
 11  7 28  4  3  0.0000000  0  8G10G26G12G25G05G29G15G02
 125837858.694 6  98055602.60243  23946133.523                    23946142.418
 122597535.575 7  95530602.56544  23329537.570                    23329545.879
 115228521.276 7                  21927219.500
 113815743.405 8                  21658412.492
 107818136.201 8                  20517088.531
 115726077.644 7                  22021940.984
 127733305.146 6                  24306842.672
 114597150.875 8  89296619.55345  21807092.055                    21807097.699
 11  7 28  4  3 30.0000000  0  8G10G26G12G25G05G29G15G02
 125944678.961 5  98138839.16943  23966460.805                    23966469.477
 122503086.390 7  95457005.85644  23311563.453                    23311573.191
 115304450.623 7                  21941668.102
 113833952.940 8                  21661878.016
 107854755.662 8                  20524056.828
 115649133.138 7                  22007298.523
 127636445.688 7                  24288411.078
 114640444.532 8  89330354.85345  21815330.383                    21815336.492
 11  7 28  4  4  0.0000000  0  8G10G26G12G25G05G29G15G02
 126051610.312 6  98222162.30142  23986808.227                    23986817.848
 122408783.513 7  95383523.17344  23293618.672                    23293628.402
 115380723.058 7                  21956182.484
 113852717.715 8                  21665448.930
 107891853.831 8                  20531116.563
 115572342.510 7                  21992686.109
 127539513.739 7                  24269965.875
 114683836.462 8  89364166.73545  21823587.773                    21823593.152
 11  7 28  4  4 30.0000000  0  8G10G26G12G25G05G29G15G02
 126158649.671 6  98305569.49843  24007178.148                    24007187.016
 122314630.188 7  95310156.99244  23275702.086                    23275710.379
 115457335.524 7                  21970761.500
 113872036.205 8                  21669124.977
 107929428.005 8                  20538266.531
 115495707.840 7                  21978102.773
 127442511.715 6                  24251506.438
 114727326.157 8  89398054.80045  21831863.922                    21831869.340
 11  7 28  4  5  0.0000000  0  8G10G26G12G25G05G29G15G02
 126265795.102 6  98389059.41143  24027567.617                    24027576.082
 122220630.570 7  95236910.56244  23257815.125                    23257823.219
 115534285.638 7                  21985404.508
 113891907.650 8                  21672906.547
 107967477.436 8                  20545507.352
 115419231.504 8                  21963550.000
 127345442.840 6                  24233034.789
 114770914.183 8  89432019.48045  21840158.258                    21840164.082
 11  7 28  4  5 30.0000000  0  8G10G26G12G25G05G29G15G02
 126373043.874 6  98472629.87143  24047976.203                    24047985.219
 122126787.772 7  95163786.32144  23239956.773                    23239965.082
 115611570.255 7                  22000110.852
 113912330.317 8                  21676792.766
 108005999.332 8                  20552837.539
 115342915.461 8                  21949027.000
 127248309.163 6                  24214550.180
 114814600.007 8  89466060.37845  21848471.453                    21848476.855
 11  7 28  4  6  0.0000000  0  8G10G26G12G25G05G29G15G02
 126480393.127 6  98556278.61743  24068404.320                    24068413.227
 122033105.685 7  95090787.31044  23222129.367                    23222138.559
 115689186.233 7                  22014880.758
 113933303.019 8                  21680783.805
 108044991.757 8                  20560257.602
 115266761.776 8                  21934536.008
 127151113.869 6                  24196054.477
 114858383.758 8  89500177.57145  21856803.320                    21856808.543
 11  7 28  4  6 30.0000000  0  8G10G26G12G25G05G29G15G02
 126587840.633 6  98640003.93643  24088850.930                    24088859.871
 121939587.842 7  95017916.32344  23204333.516                    23204343.086
 115767130.793 8                  22029713.109
 113954824.468 8                  21684879.430
 108084452.909 8                  20567766.797
 115190772.658 8                  21920075.359
 127053859.359 6                  24177548.656
 114902265.167 7  89534370.87845  21865152.945                    21865159.133
 11  7 28  4  7  0.0000000  0  8G10G26G12G25G05G29G15G02
 126695383.824 6  98723803.76643  24109315.805                    24109324.668
 121846238.089 7  94945176.31144  23186569.938                    23186579.238
 115845401.368 7                  22044607.734
 113976893.438 8                  21689078.672
 108124380.846 8                  20575364.859
 115114950.326 7                  21905647.156
 126956548.578 6                  24159030.328
 114946244.678 8  89568640.61245  21873522.297                    21873527.543
 11  7 28  4  7 30.0000000  0  8G10G26G12G25G05G29G15G02
 126803020.291 6  98807676.26443  24129798.680                    24129806.949
 121753059.859 7  94872569.91344  23168838.953                    23168847.480
 115923994.565 8                  22059563.664
 113999508.380 8                  21693381.773
 108164773.450 8                  20583051.398
 115039296.693 7                  21891250.648
 126859184.143 6                  24140502.648
 114990322.117 8  89602986.66845  21881910.508                    21881915.918
 11  7 28  4  8  0.0000000  0  8G10G26G12G25G05G29G15G02
 126910747.403 6  98891619.41543  24150298.242                    24150307.168
 121660056.924 7  94800100.12844  23151140.742                    23151149.391
 116002907.756 7                  22074580.422
 114022668.080 8                  21697789.430
 108205628.532 8                  20590826.023
 114963813.667 8                  21876886.805
 126761769.041 6                  24121965.023
 115034497.418 8  89637408.97445  21890316.125                    21890322.164
 11  7 28  4  8 30.0000000  0  8G10G26G12G25G05G29G15G02
 127018562.513 6  98975631.13943  24170815.125                    24170823.336
 121567232.760 7  94727769.62744  23133477.047                    23133485.578
 116082137.821 8                  22089657.164
 114046370.863 8                  21702299.945
 108246943.833 8                  20598687.688
 114888503.818 7                  21862555.383
 126664305.628 6                  24103418.094
 115078770.600 8  89671907.54545  21898741.375                    21898747.191
 11  7 28  4  9  0.0000000  0  8G10G26G12G25G05G29G15G02
 127126463.240 6  99059709.56243  24191347.883                    24191356.582
 121474590.737 7  94655581.07244  23115847.719                    23115856.629
 116161681.658 8                  22104793.867
 114070615.119 8                  21706913.164
 108288717.218 8                  20606637.203
 114813369.050 7                  21848258.102
 126566796.668 6                  24084862.930
 115123141.299 8  89706482.12145  21907184.508                    21907190.066
 11  7 28  4  9 30.0000000  0  8G10G26G12G25G05G29G15G02
 127234447.519 6  99143853.15843  24211897.078                    24211906.051
 121382135.257 7  94583537.89044  23098254.469                    23098262.891
 116241536.829 8                  22119989.781
 114095399.927 8                  21711630.008
 108330947.539 8                  20614673.320
 114738411.938 7                  21833993.766
 126469245.182 6                  24066299.781
 115167610.431 7  89741133.37845  21915646.680                    21915652.527
 11  7 28  4 10  0.0000000  0  9G10G26G12G25G05G29G15G21G02
 127342512.657 6  99228059.70043  24232460.328                    24232469.316
 121289869.721 7  94511642.69644  23080696.945                    23080705.699
 116321700.145 8                  22135244.258
 114120723.558 8                  21716448.586
 108373632.178 8                  20622795.977
 114663634.417 7                  21819764.234
 126371653.930 6                  24047728.727
 132257320.98716 103057745.69852  25167747.781                    25167755.098
 115212177.390 8  89775860.87945  21924127.797                    21924133.242
 11  7 28  4 10 30.0000000  0  9G10G26G12G25G05G29G15G21G02
 127450656.340 6  99312327.46843  24253039.039                    24253048.496
 121197797.749 6  94439898.32244  23063175.711                    23063184.133
 116402168.987 8                  22150557.430
 114146584.688 8                  21721370.102
 108416769.280 8                  20631004.758
 114589038.648 7                  21805569.219
 126274025.860 6                  24029150.773
 132198232.416 5 103011702.70642  25156501.750                    25156510.625
 115256842.534 7  89810664.88745  21932627.648                    21932633.184
 11  7 28  4 11  0.0000000  0  9G10G26G12G25G05G29G15G21G02
 127558875.951 5  99396654.40142  24273633.016                    24273641.953
 121105923.173 7  94368307.79644  23045692.586                    23045701.215
 116482940.149 7                  22165927.344
 114172981.638 8                  21726393.273
 108460356.470 8                  20639299.000
 114514626.700 7                  21791409.125
 126176363.756 6                  24010565.672
 132139157.755 6 102965670.57842  25145260.195                    25145269.406
 115301605.501 7  89845545.12145  21941145.055                    21941150.891
 11  7 28  4 11 30.0000000  0  9G10G26G12G25G05G29G15G21G02
 127667169.008 5  99481038.60542  24294240.453                    24294249.441
 121014249.594 7  94296873.83844  23028247.531                    23028256.293
 116564010.571 7                  22181354.539
 114199912.808 8                  21731517.750
 108504391.595 8                  20647678.469
 114440400.983 7                  21777284.523
 126078670.200 6                  23991975.805
 132080096.372 6 102919648.85342  25134021.445                    25134030.211
 115346466.513 8  89880501.74245  21949682.250                    21949687.957
 11  7 28  4 12  0.0000000  0  9G10G26G12G25G05G29G15G21G02
 127775533.023 5  99565478.11042  24314861.867                    24314870.461
 120922780.221 7  94225599.05144  23010841.672                    23010850.055
 116645377.200 7                  22196838.102
 114227376.506 8                  21736743.914
 108548872.492 8                  20656142.938
 114366363.349 7                  21763195.578
 125980947.933 7                  23973380.078
 132021048.189 6 102873637.29942  25122784.930                    25122793.820
 115391425.541 8  89915534.75145  21958237.750                    21958243.207
 11  7 28  4 12 30.0000000  0  9G10G26G12G25G05G29G15G21G02
 127883965.696 5  99649971.11142  24335495.813                    24335504.359
 120831519.275 7  94154486.65944  22993475.594                    22993484.145
 116727037.060 7                  22212377.391
 114255371.270 8                  21742071.258
 108593797.381 8                  20664692.109
 114292516.015 7                  21749142.922
 125883199.902 6                  23954778.414
 131962012.387 6 102827635.48843  25111550.992                    25111559.488
 115436482.768 8  89950644.27445  21966811.641                    21966817.074
 11  7 28  4 13  0.0000000  0  9G10G26G12G25G05G29G15G21G02
 127992464.475 6  99734515.65142  24356142.266                    24356150.820
 120740469.964 7  94083539.19644  22976148.961                    22976158.387
 116808987.208 7                  22227972.297
 114283895.271 8                  21747499.203
 108639163.231 8                  20673324.852
 114218861.121 7                  21735126.750
 125785428.655 6                  23936173.805
 131902988.306 6 102781642.74343  25100318.484                    25100327.637
 115481637.981 8  89985830.14045  21975404.789                    21975409.836
 11  7 28  4 13 30.0000000  0  9G10G26G12G25G05G29G15G21G02
 128101027.196 6  99819110.07342  24376800.922                    24376809.422
 120649636.283 7  94012759.72144  22958863.500                    22958872.102
 116891224.716 7                  22243621.922
 114312946.911 8                  21753027.602
 108684968.720 8                  20682041.320
 114145400.844 7                  21721147.891
 125687637.187 6                  23917563.719
 131843975.738 6 102735658.99843  25089089.789                    25089097.305
 115526891.249 8  90021092.42645  21984015.656                    21984021.387
 11  7 28  4 14  0.0000000  0  9G10G26G12G25G05G29G15G21G02
 128209651.402 6  99903752.37343  24397471.859                    24397480.148
 120559022.139 7  93942151.32844  22941620.195                    22941629.574
 116973746.622 7                  22259324.570
 114342524.542 8                  21758656.492
 108731211.413 8                  20690841.016
 114072137.753 7                  21707206.609
 125589828.494 6                  23898951.883
 131784973.778 6 102689683.51942  25077860.750                    25077870.113
 115572242.748 7  90056431.24445  21992646.406                    21992651.820
 11  7 28  4 14 30.0000000  0  9G10G26G12G25G05G29G15G21G02
 128318334.608 6  99988440.68143  24418153.094                    24418161.887
 120468630.570 7  93871716.37044  22924419.672                    22924427.914
 117056549.733 7                  22275081.430
 114372626.535 8                  21764384.070
 108777889.075 8                  20699723.172
 113999073.927 7                  21693302.750
 125492005.229 6                  23880337.398
 131725982.403 6 102643716.30043  25066636.602                    25066643.633
 115617692.670 7  90091846.75745  22001294.586                    22001300.305
 11  7 28  4 15  0.0000000  0  9G10G26G12G25G05G29G15G21G02
 128427074.565 6 100073173.18143  24438846.023                    24438854.473
 120378465.984 7  93801458.27944  22907262.008                    22907270.027
 117139631.374 7                  22290891.641
 114403251.270 8                  21770212.102
 108824999.722 8                  20708687.953
 113926211.611 7                  21679437.547
 125394170.356 7                  23861719.492
 131667000.902 6 102597756.81143  25055412.758                    25055420.004
 115663241.164 8  90127339.06945  22009962.422                    22009968.160
